[[{"header":{"parameterUnit":"m.s-1","parameterCategory":1,"la1":30.6,"la2":29.2853,"lo1":-89.7004,"lo2":-87.6739,"dy":0.0162,"dx":0.0183,"nx":112,"ny":82,"refTime":"2023-07-01T18:00:00:Z","depth":0,"parameterNumber":2,"parameterNumberName":"U-component_of_WINDS"},"data":[0.0,0.0,0.0,0.0,0.0,0.0,0.0,0.0,0.0,0.0,0.0,0.0,0.0,0.0,0.0,0.0,0.0,0.0,0.0,0.0,0.0,0.0,0.0,0.0,0.0,0.0,0.0,0.0,0.0,0.0,0.0,0.0,0.0,0.0,0.0,0.0,0.0,0.0,0.0,0.0,0.0,0.0,0.0,0.0,0.0,0.0,0.0,0.0,0.0,0.0,0.0,0.0,0.0,0.0,0.0,0.0,0.0,0.0,0.0,0.0,0.0,0.0,0.0,0.0,0.0,0.0,0.0,0.0,0.0,0.0,0.0,0.0,0.0,0.0,0.0,0.0,0.0,0.0,0.0,0.0,0.0,0.0,0.0,0.0,0.0,0.0,0.0,0.0,0.0,0.0,0.0,-1.8628,-1.9159,-1.9471,-1.9471,-1.8002,-1.837,-2.145,0.0,0.0,0.0,0.0,0.0,0.0,0.0,0.0,0.0,0.0,0.0,0.0,0.0,0.0,0.0,0.0,0.0,0.0,0.0,0.0,0.0,0.0,0.0,0.0,0.0,0.0,0.0,0.0,0.0,0.0,0.0,0.0,0.0,0.0,0.0,0.0,0.0,0.0,0.0,0.0,0.0,0.0,0.0,0.0,0.0,0.0,0.0,0.0,0.0,0.0,0.0,0.0,0.0,0.0,0.0,0.0,0.0,0.0,0.0,0.0,0.0,0.0,0.0,0.0,0.0,0.0,0.0,0.0,0.0,0.0,0.0,0.0,0.0,0.0,0.0,0.0,0.0,0.0,0.0,0.0,0.0,0.0,0.0,0.0,0.0,0.0,0.0,0.0,0.0,0.0,0.0,0.0,0.0,0.0,0.0,0.0,0.0,0.0,0.0,0.0,0.0,0.0,0.0,0.0,-1.8501,-1.9127,-1.9282,-1.9353,-1.9413,-1.7893,-1.821,-2.1176,0.0,0.0,0.0,0.0,0.0,0.0,0.0,0.0,0.0,0.0,0.0,0.0,0.0,0.0,0.0,0.0,0.0,0.0,0.0,0.0,0.0,0.0,0.0,0.0,0.0,0.0,0.0,0.0,0.0,0.0,0.0,0.0,0.0,0.0,0.0,0.0,0.0,0.0,0.0,0.0,0.0,0.0,0.0,0.0,0.0,0.0,0.0,0.0,0.0,0.0,0.0,0.0,0.0,0.0,0.0,0.0,0.0,0.0,0.0,0.0,0.0,0.0,0.0,0.0,0.0,0.0,0.0,0.0,0.0,0.0,0.0,0.0,0.0,0.0,0.0,0.0,0.0,0.0,0.0,0.0,0.0,0.0,0.0,0.0,0.0,0.0,0.0,0.0,0.0,0.0,0.0,0.0,0.0,0.0,0.0,0.0,0.0,0.0,0.0,0.0,0.0,0.0,0.0,-1.8128,-1.8972,-1.9219,-1.9256,-1.9264,-1.9298,-1.7793,-1.811,-2.105,-1.8318,0.0,0.0,0.0,0.0,0.0,0.0,0.0,0.0,0.0,0.0,0.0,0.0,0.0,0.0,0.0,0.0,0.0,0.0,0.0,0.0,0.0,0.0,0.0,0.0,0.0,0.0,0.0,0.0,0.0,0.0,0.0,0.0,0.0,0.0,0.0,0.0,0.0,0.0,0.0,0.0,0.0,0.0,0.0,0.0,0.0,0.0,0.0,0.0,0.0,0.0,0.0,0.0,0.0,0.0,0.0,0.0,0.0,0.0,0.0,0.0,0.0,0.0,0.0,0.0,0.0,0.0,0.0,0.0,0.0,0.0,0.0,0.0,0.0,0.0,0.0,0.0,0.0,0.0,0.0,0.0,0.0,0.0,0.0,0.0,0.0,0.0,0.0,0.0,0.0,0.0,0.0,0.0,0.0,0.0,0.0,0.0,0.0,0.0,0.0,0.0,0.0,0.0,-1.848,-1.8816,-1.9137,-1.9176,-1.9176,-1.9186,-1.7694,-1.8031,-2.0929,-1.826,0.0,0.0,0.0,0.0,0.0,0.0,0.0,0.0,0.0,0.0,0.0,0.0,0.0,0.0,0.0,0.0,0.0,0.0,0.0,0.0,0.0,0.0,0.0,0.0,0.0,0.0,0.0,0.0,0.0,0.0,0.0,0.0,0.0,0.0,0.0,0.0,0.0,0.0,0.0,0.0,0.0,0.0,0.0,0.0,0.0,0.0,0.0,0.0,0.0,0.0,0.0,0.0,0.0,0.0,0.0,0.0,0.0,0.0,0.0,0.0,0.0,0.0,0.0,0.0,0.0,0.0,0.0,0.0,0.0,0.0,0.0,0.0,0.0,0.0,0.0,0.0,0.0,0.0,0.0,0.0,0.0,0.0,0.0,0.0,0.0,0.0,0.0,0.0,0.0,0.0,0.0,0.0,0.0,0.0,0.0,0.0,0.0,0.0,0.0,0.0,0.0,0.0,-1.7391,-1.7452,-1.895,-1.9101,-1.9109,-1.9104,-1.7622,-1.7913,-2.0742,-1.8128,0.0,0.0,0.0,0.0,0.0,0.0,0.0,0.0,0.0,0.0,0.0,0.0,0.0,0.0,0.0,0.0,0.0,0.0,0.0,0.0,0.0,0.0,0.0,0.0,0.0,0.0,0.0,0.0,0.0,0.0,0.0,0.0,0.0,0.0,0.0,0.0,0.0,0.0,0.0,0.0,0.0,0.0,0.0,0.0,0.0,0.0,0.0,0.0,0.0,0.0,0.0,0.0,0.0,0.0,0.0,0.0,0.0,0.0,0.0,0.0,0.0,0.0,0.0,0.0,0.0,0.0,0.0,0.0,0.0,0.0,0.0,0.0,0.0,0.0,0.0,0.0,0.0,0.0,0.0,0.0,0.0,0.0,0.0,0.0,0.0,0.0,0.0,0.0,0.0,0.0,0.0,0.0,0.0,0.0,0.0,0.0,0.0,0.0,0.0,0.0,0.0,0.0,-1.7495,-1.7844,0.0,-1.8703,-1.8973,-1.8974,-1.7547,-1.784,-2.0668,0.0,0.0,0.0,0.0,0.0,0.0,0.0,0.0,0.0,0.0,0.0,0.0,0.0,0.0,0.0,0.0,0.0,0.0,0.0,0.0,0.0,0.0,0.0,0.0,0.0,0.0,0.0,0.0,0.0,0.0,0.0,0.0,0.0,0.0,0.0,0.0,0.0,0.0,0.0,0.0,0.0,0.0,0.0,0.0,0.0,0.0,0.0,0.0,0.0,0.0,0.0,0.0,0.0,0.0,0.0,0.0,0.0,0.0,0.0,0.0,0.0,0.0,0.0,0.0,0.0,0.0,0.0,0.0,0.0,0.0,0.0,0.0,0.0,0.0,0.0,0.0,0.0,0.0,0.0,0.0,0.0,0.0,0.0,0.0,0.0,0.0,0.0,0.0,0.0,0.0,0.0,0.0,0.0,0.0,0.0,0.0,0.0,0.0,0.0,0.0,0.0,0.0,-1.657,-1.7275,-1.7736,0.0,-1.8473,-1.8913,-1.8904,-1.7515,-1.7814,-2.0624,0.0,0.0,0.0,0.0,0.0,0.0,0.0,0.0,0.0,0.0,0.0,0.0,0.0,0.0,0.0,0.0,0.0,0.0,0.0,0.0,0.0,0.0,0.0,0.0,0.0,0.0,0.0,0.0,0.0,0.0,0.0,0.0,0.0,0.0,0.0,0.0,0.0,0.0,0.0,0.0,0.0,0.0,0.0,0.0,0.0,0.0,0.0,0.0,0.0,0.0,0.0,0.0,0.0,0.0,0.0,0.0,0.0,0.0,0.0,0.0,0.0,0.0,0.0,0.0,0.0,0.0,0.0,0.0,0.0,0.0,0.0,0.0,0.0,0.0,0.0,0.0,0.0,0.0,0.0,0.0,0.0,0.0,0.0,0.0,0.0,0.0,0.0,0.0,0.0,0.0,0.0,0.0,0.0,0.0,0.0,0.0,0.0,0.0,0.0,0.0,0.0,0.0,-1.6391,-1.6491,-1.6793,-1.7607,-1.8473,-1.8975,-1.8904,-1.7545,-1.7873,0.0,0.0,0.0,0.0,0.0,0.0,0.0,0.0,0.0,0.0,0.0,0.0,0.0,0.0,0.0,0.0,0.0,0.0,0.0,0.0,0.0,0.0,0.0,0.0,0.0,0.0,0.0,0.0,0.0,0.0,0.0,0.0,0.0,0.0,0.0,0.0,0.0,0.0,0.0,0.0,0.0,0.0,0.0,0.0,0.0,0.0,0.0,0.0,0.0,0.0,0.0,0.0,0.0,0.0,0.0,0.0,0.0,0.0,0.0,0.0,0.0,0.0,0.0,0.0,0.0,0.0,0.0,0.0,0.0,0.0,0.0,0.0,0.0,0.0,0.0,0.0,0.0,0.0,0.0,0.0,0.0,0.0,0.0,0.0,0.0,0.0,0.0,0.0,0.0,0.0,0.0,0.0,0.0,0.0,0.0,0.0,0.0,0.0,0.0,0.0,0.0,0.0,0.0,-1.6334,-1.6429,-1.652,-1.6761,-1.8029,-1.887,-1.8905,-1.7451,-1.7745,-2.0558,0.0,0.0,0.0,0.0,0.0,0.0,0.0,0.0,0.0,0.0,0.0,0.0,0.0,0.0,0.0,0.0,0.0,0.0,0.0,0.0,0.0,0.0,0.0,0.0,0.0,0.0,0.0,0.0,0.0,0.0,0.0,0.0,0.0,0.0,0.0,0.0,0.0,0.0,0.0,0.0,0.0,0.0,0.0,0.0,0.0,0.0,0.0,0.0,0.0,0.0,0.0,0.0,0.0,0.0,0.0,0.0,0.0,0.0,0.0,0.0,0.0,0.0,0.0,0.0,0.0,0.0,0.0,0.0,0.0,0.0,0.0,0.0,0.0,0.0,0.0,0.0,0.0,0.0,0.0,0.0,0.0,0.0,0.0,0.0,0.0,0.0,0.0,0.0,0.0,0.0,0.0,0.0,0.0,0.0,0.0,0.0,0.0,0.0,0.0,0.0,0.0,0.0,-1.6297,-1.64,-1.6399,-1.6399,-1.7851,-1.886,-1.8896,-1.7444,-1.7504,-1.9766,0.0,0.0,0.0,0.0,0.0,0.0,0.0,0.0,0.0,0.0,0.0,0.0,0.0,0.0,0.0,0.0,0.0,0.0,0.0,0.0,0.0,0.0,0.0,0.0,0.0,0.0,0.0,0.0,0.0,0.0,0.0,0.0,0.0,0.0,0.0,0.0,0.0,0.0,0.0,0.0,0.0,0.0,0.0,0.0,0.0,0.0,0.0,0.0,0.0,0.0,0.0,0.0,0.0,0.0,0.0,0.0,0.0,0.0,0.0,0.0,0.0,0.0,0.0,0.0,0.0,0.0,0.0,0.0,0.0,0.0,0.0,0.0,0.0,0.0,0.0,0.0,0.0,0.0,0.0,0.0,0.0,0.0,0.0,0.0,0.0,0.0,0.0,0.0,0.0,0.0,0.0,0.0,0.0,0.0,0.0,0.0,0.0,0.0,0.0,0.0,0.0,0.0,-1.6509,-1.6546,-1.6492,-1.65,-1.794,-1.8896,-1.8905,-1.7549,-1.7266,-1.8616,0.0,0.0,0.0,0.0,0.0,0.0,0.0,0.0,0.0,0.0,0.0,0.0,0.0,0.0,0.0,0.0,0.0,0.0,0.0,0.0,0.0,0.0,0.0,0.0,0.0,0.0,0.0,0.0,0.0,0.0,0.0,0.0,0.0,0.0,0.0,0.0,0.0,0.0,0.0,0.0,0.0,0.0,0.0,0.0,0.0,0.0,0.0,0.0,0.0,0.0,0.0,0.0,0.0,0.0,0.0,0.0,0.0,0.0,0.0,0.0,-2.0402,0.0,0.0,0.0,0.0,0.0,0.0,0.0,0.0,0.0,0.0,0.0,0.0,0.0,0.0,0.0,0.0,0.0,0.0,0.0,0.0,0.0,0.0,0.0,0.0,0.0,0.0,0.0,0.0,0.0,0.0,0.0,0.0,0.0,0.0,0.0,0.0,0.0,0.0,0.0,0.0,0.0,-1.8114,-1.7651,-1.7267,-1.7266,-1.8155,-1.8788,-1.8896,-1.8009,-1.7798,-1.8567,-1.7962,0.0,0.0,0.0,0.0,0.0,0.0,0.0,0.0,0.0,0.0,0.0,0.0,0.0,0.0,0.0,0.0,0.0,0.0,0.0,0.0,0.0,0.0,0.0,0.0,0.0,0.0,0.0,0.0,0.0,0.0,0.0,0.0,0.0,0.0,0.0,0.0,0.0,0.0,0.0,0.0,0.0,0.0,0.0,0.0,0.0,0.0,0.0,0.0,0.0,0.0,0.0,0.0,0.0,0.0,0.0,0.0,0.0,0.0,0.0,0.0,-2.1795,0.0,0.0,0.0,0.0,0.0,0.0,0.0,0.0,0.0,0.0,0.0,0.0,0.0,0.0,0.0,0.0,0.0,0.0,0.0,0.0,0.0,0.0,0.0,0.0,0.0,0.0,0.0,0.0,0.0,0.0,0.0,0.0,0.0,0.0,0.0,0.0,0.0,0.0,0.0,0.0,-1.9131,-1.818,-1.7453,-1.7445,-1.8162,-1.8678,-1.8752,-1.8039,-1.7585,-1.7551,-1.7426,0.0,0.0,0.0,0.0,0.0,0.0,0.0,0.0,0.0,0.0,0.0,0.0,0.0,0.0,0.0,0.0,0.0,0.0,0.0,0.0,0.0,0.0,0.0,0.0,0.0,0.0,0.0,0.0,0.0,0.0,0.0,0.0,0.0,0.0,0.0,0.0,0.0,0.0,0.0,0.0,0.0,0.0,0.0,0.0,0.0,0.0,0.0,0.0,0.0,0.0,0.0,0.0,0.0,-2.775,-2.7709,-2.7092,-2.7704,-2.7704,-2.7099,-2.4933,-2.375,-2.3336,-2.3422,0.0,0.0,0.0,0.0,0.0,0.0,0.0,0.0,0.0,0.0,0.0,0.0,0.0,0.0,0.0,0.0,0.0,0.0,0.0,0.0,0.0,0.0,0.0,0.0,-1.8826,-1.8858,-1.8666,0.0,0.0,0.0,0.0,0.0,0.0,0.0,0.0,0.0,0.0,0.0,-1.9631,-1.8588,-1.7796,-1.7805,-1.8407,-1.8807,-1.8834,-1.8154,-1.7408,-1.6661,-1.695,-1.6897,0.0,0.0,0.0,0.0,0.0,0.0,0.0,0.0,0.0,0.0,0.0,0.0,0.0,0.0,0.0,0.0,0.0,0.0,0.0,0.0,0.0,0.0,0.0,0.0,0.0,0.0,0.0,0.0,0.0,0.0,0.0,0.0,-1.5576,-1.7944,0.0,0.0,0.0,0.0,0.0,0.0,0.0,0.0,0.0,0.0,0.0,0.0,0.0,-2.7382,-2.7297,-2.9187,-3.0032,-2.9878,-3.0157,-3.021,-3.0122,-3.0211,-3.0195,-3.0034,-2.9696,0.0,-2.5759,-2.5121,0.0,0.0,0.0,0.0,0.0,0.0,0.0,0.0,0.0,0.0,0.0,0.0,0.0,0.0,0.0,0.0,0.0,0.0,0.0,0.0,0.0,0.0,-2.1096,-2.0934,-2.0904,-2.0885,0.0,-2.0335,-1.999,-2.0025,-1.9969,0.0,0.0,0.0,0.0,0.0,0.0,0.0,-1.9417,-1.9347,-1.9393,-1.9399,-1.9545,-1.9666,-1.9716,-1.9063,-1.8298,-1.7486,-1.6854,-1.67,-1.7125,-1.6544,0.0,0.0,0.0,0.0,0.0,0.0,0.0,0.0,0.0,0.0,0.0,0.0,0.0,0.0,0.0,0.0,0.0,0.0,0.0,0.0,0.0,0.0,0.0,0.0,0.0,0.0,0.0,0.0,0.0,-1.5606,-1.7146,-1.9195,-1.9077,-1.8971,0.0,0.0,0.0,0.0,0.0,0.0,0.0,0.0,0.0,-2.8187,-2.9378,-3.0253,-3.08,-3.2124,-3.3021,-3.3443,-3.3518,-3.3565,-3.3561,-3.3525,-3.3498,-3.3466,-3.3427,-3.2153,-2.9993,-2.8478,-2.7585,-2.7077,0.0,0.0,0.0,0.0,-2.329,-2.3958,-2.1701,-2.1673,0.0,-2.2172,0.0,0.0,0.0,0.0,0.0,0.0,0.0,0.0,0.0,0.0,-2.1934,-2.197,-2.1949,-2.1901,-2.1789,-2.1589,-2.1376,0.0,-2.1254,-2.1661,-2.2641,0.0,0.0,0.0,0.0,-2.1063,-2.0511,-2.0395,-2.0368,-2.0372,-2.0424,-2.0306,-1.9883,-1.9585,-1.8885,-1.7621,-1.7212,-1.6743,-1.6146,-1.6474,-1.662,0.0,0.0,0.0,0.0,0.0,0.0,0.0,0.0,0.0,0.0,0.0,0.0,0.0,0.0,0.0,0.0,0.0,0.0,0.0,0.0,0.0,0.0,0.0,0.0,0.0,0.0,0.0,0.0,-1.7669,-1.9043,-2.0826,-2.1162,-2.1368,0.0,0.0,0.0,0.0,0.0,0.0,-2.8724,-2.8984,-2.9814,-3.1502,-3.2543,-3.346,-3.4264,-3.5132,-3.5853,-3.6429,-3.6447,-3.6424,-3.6421,-3.6358,-3.6332,-3.6331,-3.6298,-3.5554,-3.4193,-3.1764,-3.0065,-2.8946,-2.8654,-2.8185,-2.754,-2.6293,-2.6321,-2.6646,-2.4166,-2.3822,-2.435,-2.3526,-2.3309,-2.3388,-2.3376,0.0,0.0,0.0,0.0,-2.2649,-2.2679,-2.2672,-2.2686,-2.2807,-2.293,-2.2991,-2.2954,-2.3328,-2.3265,0.0,-2.1856,-2.2398,-2.3704,0.0,0.0,0.0,0.0,-2.1605,-2.1288,-2.1202,-2.1172,-2.1172,-2.1227,-2.1011,-2.0417,-2.0058,-1.9351,-1.8163,-1.7728,-1.6992,-1.5849,-1.6291,-1.6155,-1.5313,0.0,0.0,0.0,0.0,0.0,0.0,0.0,0.0,0.0,0.0,0.0,0.0,0.0,0.0,0.0,0.0,0.0,0.0,0.0,0.0,0.0,0.0,0.0,0.0,0.0,0.0,0.0,0.0,0.0,-2.4368,-2.498,0.0,0.0,0.0,0.0,-2.8652,-2.8826,-2.9678,-3.1596,-3.2344,-3.3231,-3.4356,-3.5983,-3.6853,-3.6919,-3.7774,-3.8201,-3.8171,-3.8171,-3.8142,-3.8084,-3.8084,-3.8067,-3.8077,-3.8072,-3.7983,-3.7585,-3.4224,-3.1615,-2.973,-2.9723,-2.9879,-2.9877,-2.7773,-2.7481,-2.7688,-2.4637,-2.4115,-2.47,-2.4137,-2.4174,-2.4215,-2.3093,-2.3473,0.0,0.0,-2.4162,-2.4547,-2.4113,-2.3961,-2.3873,-2.3762,-2.4212,-2.4675,-2.4664,-2.6065,-2.6104,0.0,-2.1153,-2.1529,-2.2677,0.0,-2.2721,-2.2763,-2.2677,-2.2205,-2.0997,-2.1481,-2.1937,-2.1937,-2.196,-2.193,-2.1895,-2.0615,-1.977,-1.9699,-1.8302,-1.748,-1.7391,-1.5911,-1.5671,-1.6868,-1.6138,0.0,0.0,0.0,0.0,0.0,0.0,0.0,0.0,0.0,0.0,0.0,0.0,0.0,0.0,0.0,0.0,0.0,0.0,0.0,0.0,0.0,0.0,0.0,0.0,0.0,0.0,0.0,0.0,-2.7137,-2.7225,0.0,-2.8342,-2.9815,-3.0748,-3.0828,-3.2481,-3.4008,-3.5252,-3.5519,-3.6079,-3.7023,-3.7634,-3.8202,-3.876,-3.9601,-4.0282,-4.0829,-4.1291,-4.1515,-4.1453,-4.0892,-4.0642,-4.061,-4.0018,-3.9116,-3.8041,-3.7345,-3.5938,-3.4075,-3.2393,-3.1802,-3.1608,-2.9117,-2.8722,-2.9096,-2.6824,-2.6899,-2.7899,-2.7092,-2.6495,-2.6033,-2.5596,-2.5682,-2.5912,-2.5729,-2.5837,-2.5949,-2.5704,-2.5599,-2.5634,-2.6027,-2.626,-2.6381,-2.6288,-2.6809,-2.6659,-2.4539,-2.3919,-2.388,-2.4326,-2.2877,-2.2054,-2.3284,-2.281,-2.2124,-2.1639,-2.2259,-2.2776,-2.2776,-2.2806,-2.2641,-2.211,-2.1574,-2.0859,-1.9848,-1.9245,-1.8457,-1.7416,-1.6799,-1.6438,-1.6362,-1.5547,-1.5927,0.0,0.0,0.0,0.0,0.0,0.0,0.0,0.0,0.0,0.0,0.0,0.0,0.0,0.0,0.0,0.0,0.0,0.0,0.0,0.0,0.0,0.0,0.0,0.0,0.0,0.0,-2.6508,-2.9335,-2.971,-3.0108,-3.1009,-3.3107,-3.4315,-3.4054,-3.5702,-3.7131,-3.8003,-3.8253,-3.8777,-3.9615,-3.9936,-4.0369,-4.0932,-4.1479,-4.2031,-4.2588,-4.3065,-4.3292,-4.3279,-4.2699,-4.2434,-4.2389,-4.1756,-4.0686,-3.9411,-3.9964,-3.9308,-3.7755,-3.5434,-3.4342,-3.3826,-3.1733,-3.1127,-3.102,-2.8619,-2.8304,-2.8849,-2.8191,-2.7736,-2.7419,-2.741,-2.7714,-2.7976,-2.7668,-2.7735,-2.7837,-2.7475,-2.7306,-2.7344,-2.7773,-2.8015,-2.8036,-2.7656,-2.7753,-2.7588,-2.6463,-2.5791,-2.5327,-2.5108,-2.3477,-2.2706,-2.4128,-2.3268,-2.2617,-2.301,-2.3125,-2.3168,-2.3168,-2.3205,-2.3029,-2.2482,-2.2406,-2.1754,-2.023,-2.0072,-1.9338,-1.7773,-1.8171,-1.8146,-1.7555,-1.6716,-1.6583,-1.7201,0.0,0.0,0.0,0.0,0.0,0.0,0.0,0.0,0.0,0.0,0.0,0.0,0.0,0.0,0.0,0.0,0.0,0.0,0.0,0.0,0.0,0.0,0.0,-2.5117,-2.6803,-2.8815,-3.1047,-3.2582,-3.3987,-3.5287,-3.6548,-3.7582,-3.8346,-3.8478,-3.8895,-3.9768,-4.0558,-4.1349,-4.2119,-4.2964,-4.3399,-4.3399,-4.3412,-4.34,-4.3337,-4.3376,-4.3376,-4.3382,-4.3343,-4.3343,-4.3337,-4.3232,-4.2714,-4.1938,-4.194,-4.1389,-4.0367,-3.8591,-3.7386,-3.6508,-3.5553,-3.462,-3.3342,-2.9934,-2.8183,-2.743,-2.7353,-2.7772,-2.8334,-2.8249,-2.9275,-3.0313,-2.9542,-2.9817,-3.0132,-2.9329,-2.9053,-2.8948,-2.8858,-2.9348,-2.9608,-2.8771,-2.9071,-2.9048,-2.7476,-2.6476,-2.5627,-2.477,-2.4645,-2.4782,-2.516,-2.4112,0.0,-2.4913,-2.3938,-2.3142,-2.3177,-2.3177,-2.3177,-2.3177,-2.3115,-2.2433,-2.0936,-2.077,-2.0077,-1.859,-1.9852,-2.0535,-2.05,-1.9636,-1.8044,-1.5673,0.0,0.0,0.0,0.0,0.0,0.0,0.0,0.0,0.0,0.0,0.0,0.0,0.0,0.0,0.0,0.0,0.0,0.0,0.0,0.0,0.0,0.0,-2.7701,-2.7264,-2.8815,-3.0906,-3.3375,-3.4588,-3.5344,-3.5666,-3.7668,-3.8764,-3.8364,-4.0039,-4.1465,-4.2347,-4.2588,-4.2815,-4.3042,-4.3282,-4.3399,-4.3399,-4.3975,-4.4253,-4.4247,-4.4821,-4.5117,-4.5084,-4.4504,-4.4246,-4.4207,-4.3503,-4.3062,-4.2845,-4.2788,-4.2252,-4.1215,-3.8818,-3.7715,-3.7291,-3.5755,-3.4975,-3.445,-3.2851,-3.1692,-3.0818,-3.017,-2.9626,-2.9232,-2.9156,-2.9404,-2.9768,-3.0083,-3.0298,-3.0364,-3.0051,-3.0349,-3.054,-2.9893,-3.0243,-3.0666,-3.0369,-2.9967,-2.9508,-2.9017,-2.8259,-2.7207,-2.5734,-2.5472,-2.5511,-2.5614,-2.5321,0.0,-2.4638,-2.4277,-2.4211,-2.4659,-2.4698,-2.4698,-2.4698,-2.4685,-2.382,-2.1797,-2.1651,-2.0938,-1.9356,-1.9675,-1.9307,-1.81,-1.886,-1.8663,0.0,0.0,0.0,0.0,0.0,0.0,0.0,0.0,0.0,0.0,0.0,0.0,0.0,0.0,0.0,0.0,0.0,0.0,0.0,0.0,0.0,0.0,-2.8278,-2.9946,-3.0195,-3.1465,-3.3198,-3.5392,-3.6086,-3.6651,-3.7333,-3.9039,-4.0203,-4.041,-4.1815,-4.3005,-4.3865,-4.3904,-4.4072,-4.4389,-4.4408,-4.4408,-4.4408,-4.4873,-4.5099,-4.5118,-4.5582,-4.5807,-4.5787,-4.5316,-4.5097,-4.5075,-4.452,-4.4078,-4.369,-4.3667,-4.3126,0.0,0.0,0.0,0.0,0.0,-3.5737,-3.4972,-3.4423,-3.3629,-3.2761,-3.2213,-3.1656,-3.1125,-3.0701,-3.076,-3.0966,-3.1058,-3.128,-3.1494,-3.1406,-3.1931,-3.2322,-3.1781,-3.1934,-3.2083,-3.167,-3.1143,-3.0645,-3.0256,-2.9485,0.0,-2.7579,-2.6811,-2.6412,-2.6614,-2.6158,-2.579,-2.5781,-2.5293,-2.5076,-2.5428,-2.5169,-2.4963,-2.4936,-2.4865,0.0,0.0,0.0,-2.213,-2.1499,-2.1458,0.0,0.0,0.0,-1.9682,-1.76,-1.8359,0.0,0.0,-1.6066,-1.642,0.0,0.0,0.0,0.0,0.0,0.0,0.0,0.0,0.0,0.0,0.0,0.0,0.0,0.0,0.0,0.0,-3.045,-3.1779,-3.3349,-3.4506,-3.5686,-3.7071,-3.7327,-3.8058,-3.9713,-4.0624,-4.1732,-4.327,-4.3484,-4.3898,-4.4686,0.0,0.0,0.0,0.0,-4.5807,-4.5807,-4.5807,-4.5807,-4.5807,-4.5807,-4.5807,-4.5807,-4.58,-4.5798,-4.5807,-4.5781,-4.531,-4.4545,-4.4545,-4.3973,-4.3,-4.2074,-4.1159,-4.0198,-3.8582,-3.6955,-3.5511,-3.5352,0.0,0.0,-3.3582,-3.3474,-3.325,-3.2373,-3.2446,-3.2713,-3.2076,-3.2258,-3.2659,-3.2617,-3.3142,-3.3618,-3.3558,-3.3565,-3.3387,-3.2698,-3.2392,-3.2009,-3.1302,-3.041,-2.9737,-2.9634,-2.8308,-2.7384,-2.7791,-2.684,-2.6459,-2.7481,-2.6572,-2.5865,-2.5928,0.0,0.0,-2.4675,-2.455,-2.3809,-2.2248,-2.2614,-2.3177,-2.3846,-2.3698,-2.3285,-2.2574,-2.2479,-2.0737,-1.7274,-1.7152,-1.6686,-1.595,-1.8169,-1.8405,0.0,0.0,0.0,0.0,0.0,0.0,0.0,0.0,0.0,0.0,0.0,0.0,0.0,0.0,0.0,-3.006,-3.2282,-3.4208,-3.5173,-3.7276,-3.8566,-3.8197,-3.8775,-3.984,-4.1463,-4.2383,-4.3019,-4.3305,-4.3976,-4.4711,-4.5524,-4.5562,-4.564,-4.5807,-4.5807,-4.5807,-4.5807,-4.5807,-4.5807,-4.5807,0.0,0.0,-4.5807,-4.5791,-4.5795,-4.5807,-4.5731,-4.5615,-4.545,-4.545,-4.4512,-4.3,-4.2078,-4.1126,-4.0269,-3.9937,-3.9099,-3.8061,-3.7357,-3.6473,-3.5457,-3.4036,-3.3543,-3.3303,-3.2378,-3.1688,0.0,-3.1773,-3.1525,-3.1109,-3.0991,-3.155,-3.2083,-3.198,-3.2388,-3.2928,-3.3369,-3.2885,-3.232,-3.2156,-3.1415,-3.0603,-2.9885,-2.8868,-2.8161,-2.8201,-2.7982,-2.7616,-2.7116,-2.6841,-2.6854,-2.7335,-2.725,-2.6919,-2.6306,-2.6225,-2.5319,-2.3177,-2.2565,-2.2312,-2.2405,-2.1674,-2.1184,-2.1033,-2.0915,-2.0415,-1.9559,-1.9551,-1.9333,-1.8905,-1.6967,-1.617,0.0,0.0,0.0,0.0,0.0,0.0,0.0,0.0,0.0,0.0,0.0,-2.6939,0.0,0.0,-3.1073,-3.234,-3.4072,-3.5677,-3.6938,-3.8609,-3.9548,-3.9101,-4.0179,-4.1422,-4.2637,-4.3147,-4.3737,-4.4537,-4.4962,-4.5374,-4.5787,-4.5807,-4.5807,-4.5807,-4.5807,-4.5807,-4.5807,-4.5807,-4.5807,-4.5807,-4.5807,-4.5807,-4.5807,-4.5805,-4.5776,-4.5758,-4.5715,-4.5687,-4.5648,-4.5648,-4.488,-4.3615,-4.271,-4.1248,-3.974,-4.0155,-3.9461,-3.828,-3.8223,-3.7604,-3.67,-3.5787,-3.5189,-3.4619,-3.3679,-3.2791,-3.2102,-3.2008,-3.1694,-3.1334,-3.1239,-3.1463,-3.1721,-3.1609,-3.2164,-3.2783,-3.3141,-3.3148,-3.3094,-3.3054,-3.2361,-3.1601,-3.1174,-3.0341,-2.9426,-2.8492,-2.834,-2.8183,-2.7705,-2.7611,-2.7732,-2.801,-2.7666,-2.7248,-2.6835,-2.6052,-2.493,-2.3359,-2.2859,-2.2629,-2.254,-2.2076,-2.1603,-2.1214,-2.1089,-2.0761,-2.0208,-2.0198,-2.0061,-1.9755,-1.8194,-1.758,0.0,0.0,0.0,0.0,0.0,0.0,0.0,0.0,-2.6358,-2.7303,-2.8709,-2.9848,-3.0128,-3.1417,-3.2967,-3.4597,-3.5577,-3.6724,-3.842,-3.9542,-4.0247,-4.0417,-4.1631,-4.2839,-4.3813,-4.3908,-4.446,-4.579,-4.5854,-4.5814,-4.5814,-4.5807,-4.5807,-4.5807,-4.5807,-4.5884,-4.6058,-4.6058,-4.6136,-4.631,-4.6136,-4.6058,-4.6058,-4.5877,-4.5776,-4.5715,-4.57,-4.5671,-4.5622,-4.5614,-4.5094,-4.422,-4.334,-4.1626,-3.9659,-4.0133,-3.9201,-3.7812,-3.8556,-3.8147,-3.728,-3.738,-3.6942,-3.6201,-3.5457,-3.448,-3.3496,-3.2795,-3.2302,-3.1995,-3.1933,-3.1868,-3.1827,-3.1929,-3.2396,-3.2835,-3.2938,-3.3427,-3.3815,-3.3753,-3.3154,-3.262,-3.2461,-3.1828,-3.0739,-2.894,-2.8666,-2.8586,-2.8411,-2.8353,-2.8313,-2.8313,-2.77,-2.717,-2.6956,-2.5456,-2.4228,-2.3518,-2.3299,-2.3193,-2.3132,-2.3028,-2.2686,-2.2031,-2.1953,-2.1505,-2.0653,-2.0654,-2.0526,-2.0254,-2.0187,-1.989,-2.3866,-2.4025,-2.4358,-2.589,-2.6262,-2.6551,0.0,0.0,-2.9216,-3.0149,-3.1102,-3.2028,-3.2803,-3.3687,-3.4612,-3.5596,-3.6434,-3.756,-3.9314,-4.0926,-4.2209,-4.2986,-4.3233,-4.3961,-4.5551,-4.572,-4.5761,-4.5886,-4.5893,-4.5893,-4.5893,-4.5821,-4.5807,-4.5807,-4.5807,-4.6174,-4.6941,-4.6941,-4.7347,-4.8101,-4.7308,-4.6941,-4.6922,-4.6158,-4.5807,-4.5792,-4.5722,-4.5701,-4.5673,-4.5631,-4.5094,-4.422,-4.3412,-4.2392,-4.1308,-4.0574,-3.92,-3.7818,-3.8603,-3.7813,-3.6558,-3.7261,-3.7382,-3.7224,-3.7119,-3.5912,-3.4526,-3.4352,-3.3237,-3.2058,-3.1998,-3.1944,-3.2046,-3.2704,-3.2875,-3.3074,-3.3702,-3.393,-3.3959,-3.3881,-3.3742,-3.34,-3.2614,-3.2364,-3.1669,-2.9911,-2.9597,-2.9264,-2.8501,-2.838,-2.838,-2.838,-2.8308,-2.7927,-2.7128,-2.5599,-2.461,-2.4461,-2.3714,-2.3265,-2.3193,-2.307,-2.293,-2.2784,-2.2703,-2.2526,-2.2228,-2.2245,-2.2139,-2.1916,-2.1809,-2.0964,-2.5664,-2.6098,0.0,0.0,-2.7917,-2.853,-2.9526,-3.0353,-3.1185,-3.2111,-3.3007,-3.3719,-3.4094,-3.4806,-3.5633,0.0,-3.7767,-3.9217,-4.0968,-4.2654,-4.404,-4.4914,-4.4977,-4.5234,-4.5928,-4.6008,-4.5991,-4.596,-4.5925,-4.5906,-4.5906,-4.5874,-4.5867,-4.5867,-4.6351,-4.6783,-4.715,-4.7613,-4.8043,-4.8392,-4.7521,-4.7096,-4.7076,-4.6192,-4.581,-4.58,-4.5727,-4.5706,-4.5701,-4.5657,-4.5428,-4.4979,-4.4124,-4.3244,-4.23,-4.0886,-3.9226,-3.775,-3.8088,-3.7365,-3.6358,-3.6692,-3.706,-3.7398,-3.7404,-3.6871,-3.6252,-3.6147,-3.5227,-3.418,-3.3596,-3.3096,-3.266,-3.243,-3.2701,-3.3071,-3.3309,-3.3728,-3.4036,-3.3972,-3.3934,-3.3784,-3.3388,-3.3253,-3.2802,-3.1558,-3.0875,-3.0219,-2.9383,-2.9196,-2.8968,-2.8447,-2.8411,-2.8043,-2.7171,-2.6483,-2.5867,-2.5333,-2.452,-2.4015,-2.3899,-2.3385,-2.307,-2.297,-2.2893,-2.2777,-2.2623,-2.2542,-2.2422,-2.2271,-2.2166,-2.1697,-2.7741,0.0,0.0,-2.9479,-3.0063,-3.0675,-3.1356,-3.2153,-3.2937,-3.3617,-3.4451,-3.5123,-3.5344,-3.5663,-3.6334,-3.7705,-3.8731,-4.0146,-4.2346,-4.3711,-4.4865,-4.5973,-4.6052,-4.6022,-4.6022,-4.6011,-4.6008,-4.6008,-4.596,-4.5923,-4.5923,-4.6144,-4.6254,-4.6254,-4.7107,-4.7675,-4.7908,-4.85,-4.8905,-4.9103,-4.8,-4.7478,-4.7424,-4.631,-4.5812,-4.5803,-4.5739,-4.5727,-4.5734,-4.5709,-4.5665,-4.5516,-4.4402,-4.356,-4.2795,-4.1046,-3.9425,-3.8054,-3.7781,-3.7098,-3.632,-3.6312,-3.6663,-3.7183,-3.7625,-3.7585,-3.7421,-3.7562,-3.6941,-3.6087,-3.5417,-3.4772,-3.4158,-3.3471,-3.3568,-3.3801,-3.3665,-3.3919,-3.4136,-3.4049,-3.4023,-3.4011,-3.3934,-3.3881,-3.3626,-3.2973,-3.23,-3.1459,-3.0405,-2.9961,-2.9434,-2.8575,-2.8445,-2.8172,-2.7541,-2.7238,-2.6829,-2.6203,-2.5399,-2.488,-2.4792,-2.4164,-2.3684,-2.336,-2.3271,-2.3063,-2.2699,-2.2569,-2.2432,-2.2324,-2.2225,-2.2137,0.0,0.0,-3.0957,-3.2711,-3.321,-3.3297,-3.3317,-3.3982,-3.4625,-3.4656,-3.535,-3.6196,-3.6982,-3.6445,-3.6746,-3.9295,-3.9052,-3.9701,-4.3086,-4.3596,-4.4245,-4.5899,-4.6093,-4.6093,0.0,-4.6032,-4.5997,-4.5997,-4.5994,-4.5997,-4.5997,-4.6738,-4.7165,-4.7165,-4.7999,-4.8878,-4.9705,-4.9744,-5.015,-5.0908,-4.9243,-4.8428,-4.8295,-4.6581,-4.5807,-4.58,-4.5803,-4.5807,-4.58,-4.5734,-4.5701,-4.5519,-4.3814,-4.3079,-4.2795,-4.1046,-3.9825,-3.8929,-3.8016,-3.7123,-3.6384,-3.632,-3.6312,-3.6625,-3.8188,-3.8071,-3.7556,-3.834,-3.7874,-3.7152,-3.7134,-3.6998,-3.6885,-3.6848,-3.6208,-3.5607,-3.5534,-3.487,-3.4257,-3.4124,-3.4099,-3.4074,-3.4011,-3.3998,-3.3954,-3.3871,-3.3773,-3.3093,-3.1383,-3.0423,-2.9572,-2.8772,-2.8569,-2.8492,-2.8456,-2.7625,-2.7087,-2.7051,-2.6252,-2.5748,-2.5765,-2.5539,-2.5064,-2.4273,-2.4126,-2.3614,-2.2699,-2.2569,-2.246,-2.2391,-2.2254,-2.22,0.0,0.0,-3.2552,-3.3195,-3.3819,-3.4256,-3.4256,-3.494,-3.5561,-3.5554,-3.5271,-3.5076,-3.5305,-3.5603,-3.6101,-3.695,-3.8854,-4.0809,-4.25,-4.3732,-4.4892,-4.6021,-4.6126,0.0,0.0,0.0,0.0,-4.6066,-4.6021,-4.6258,-4.6835,-4.7115,-4.7536,-4.8105,-4.8935,-4.9505,-4.9795,-5.0377,-5.0803,-5.1041,-4.9315,-4.819,-4.7557,-4.6355,-4.5807,-4.5807,-4.5793,-4.5791,-4.5781,-4.5727,-4.5706,-4.5635,-4.5015,-4.4058,-4.2983,-4.2364,-4.12,-3.9825,-3.8885,-3.76,-3.6392,-3.6375,-3.6339,-3.6407,-3.6938,-3.7638,-3.8317,-3.8539,-3.8761,-3.878,-3.8165,-3.7957,-3.776,-3.7153,-3.6375,-3.589,-3.6366,-3.5352,-3.4507,-3.5002,-3.4624,-3.4197,-3.4086,-3.4074,-3.4049,-3.3972,-3.3369,-3.2705,-3.2082,-3.0802,-2.9853,-2.953,-2.8983,-2.8594,-2.8505,-2.8219,-2.7993,-2.7888,-2.7115,-2.6621,-2.6525,-2.591,-2.5429,-2.5099,-2.4948,-2.4718,-2.4347,-2.4209,-2.4113,-2.4061,-2.3884,-2.3793,-3.2057,-3.291,-3.3867,-3.423,-3.4743,-3.5154,-3.5154,-3.5602,-3.5991,-3.6006,-3.4971,-3.4231,-3.4768,-3.4878,-3.5034,-3.5509,-3.7607,-3.9785,-4.1513,-4.2727,-4.4,-4.5554,-4.5971,0.0,0.0,0.0,0.0,-4.6562,-4.6528,-4.6877,-4.7722,-4.8072,-4.8494,-4.9046,-4.9864,-5.0292,-5.0292,-5.0856,-5.0979,-5.0617,-4.9181,-4.8037,-4.7171,-4.6241,-4.5821,-4.5807,-4.5807,-4.5793,-4.5803,-4.5746,-4.5727,-4.566,-4.531,-4.4314,-4.3038,-4.2678,-4.1637,-4.0309,-3.936,-3.8066,-3.68,-3.6497,-3.6185,-3.5969,-3.6216,-3.7214,-3.8331,-3.8612,-3.9232,-3.9592,-3.8694,-3.8678,-3.8557,-3.7354,-3.6899,-3.6782,-3.6906,-3.6096,-3.5474,-3.5975,-3.5608,-3.5106,-3.4699,-3.434,-3.4086,-3.4049,-3.3466,-3.2913,-3.2554,-3.1568,-3.0659,-3.0043,-2.9464,-2.8983,-2.8587,-2.8518,-2.8453,-2.838,-2.7843,-2.749,-2.7393,-2.6823,-2.634,-2.5959,-2.5836,-2.5572,-2.5195,-2.5071,-2.4974,-2.4888,-2.4752,-2.4675,-3.412,-3.464,-3.4893,-3.5775,-3.5994,-3.5994,-3.5994,-3.5994,-3.5973,-3.5874,-3.4452,-3.3676,0.0,0.0,-3.365,-3.5005,-3.5568,-3.7003,-4.0354,-4.0859,-4.1872,0.0,0.0,0.0,0.0,0.0,0.0,-4.7523,0.0,-4.7816,-4.8623,-4.9459,-4.9915,-4.9965,-5.0781,-5.1202,-5.1202,-5.1202,-5.0744,-4.9865,-4.8949,-4.8076,-4.7236,-4.6326,-4.586,-4.5807,-4.5807,-4.5807,-4.58,-4.5803,-4.5765,-4.563,-4.4792,-4.3904,-4.2989,-4.2102,-4.124,-4.0378,-3.947,-3.8567,-3.7636,-3.6743,-3.5925,-3.5382,-3.6043,-3.6806,-3.7603,-3.8439,-3.9201,-3.9569,-3.8801,-3.9143,-3.9293,-3.7664,-3.7841,-3.8157,-3.7258,-3.7047,-3.6986,-3.6963,-3.6932,-3.6627,-3.5752,-3.481,-3.4167,-3.4111,-3.4049,-3.3696,-3.2876,-3.2614,-3.1913,-3.0393,-3.0073,-2.9639,-2.8852,-2.8654,-2.8559,-2.8523,-2.8375,-2.8313,-2.83,-2.8164,-2.7715,-2.6871,-2.6729,-2.622,-2.5331,-2.519,-2.5092,-2.5023,-2.4983,-2.497,-3.4477,-3.5115,-3.5691,-3.5948,-3.6007,-3.6007,-3.6007,-3.6004,-3.5627,-3.4263,-3.3075,-3.1953,0.0,0.0,0.0,-3.2759,-3.5565,0.0,-4.0727,-4.1587,0.0,0.0,0.0,-4.6193,-4.6199,-4.6971,0.0,0.0,-4.8743,-4.8739,-4.9591,-4.9844,-5.0257,-5.0853,-5.1081,-5.1206,-5.1202,-5.1202,-5.108,-5.0821,-4.9296,-4.8463,-4.8179,-4.6623,-4.5893,-4.5867,-4.5814,-4.5807,-4.58,-4.5803,-4.5781,-4.5746,-4.5476,-4.4445,-4.3076,-4.2837,-4.1788,-4.0463,-4.0227,-3.9525,-3.8586,-3.7674,-3.679,-3.6011,-3.5602,-3.6005,-3.6644,-3.6872,-3.7963,-3.8984,-3.8691,-3.9187,-3.9494,-3.8418,-3.8331,-3.8403,-3.8115,-3.7577,-3.7291,-3.7772,-3.733,-3.6639,-3.5831,-3.5423,-3.5002,-3.4338,-3.4148,-3.3975,-3.3708,-3.3066,-3.2469,-3.2008,-3.1351,-3.0598,-2.9745,-2.9584,-2.9272,-2.861,-2.851,-2.8388,-2.83,-2.8223,-2.8051,-2.7769,-2.7646,-2.7393,-2.7061,-2.6934,-2.6831,-2.6759,-2.7202,-2.7086,-3.5573,-3.6165,-3.6579,-3.6578,-3.6577,-3.6263,-3.5125,-3.4866,-3.4348,-3.2539,-3.1102,0.0,0.0,0.0,0.0,0.0,0.0,0.0,-3.9062,-4.037,-4.1646,0.0,-4.4986,0.0,-4.6209,-4.7336,-4.8778,0.0,-4.9761,-4.9647,-5.0514,-5.0572,-5.0753,-5.119,-5.121,-5.1194,-5.1206,-5.1208,-5.1202,-5.1183,-4.9825,-4.8978,-4.8553,-4.7139,-4.6293,-4.59,0.0,-4.584,-4.58,-4.5805,-4.5803,-4.5807,-4.5765,-4.4917,-4.3701,-4.3678,-4.2587,-4.1115,-4.1056,-4.0458,-3.9563,-3.8614,-3.7693,-3.6809,-3.6008,-3.6316,-3.6824,-3.6463,-3.7538,-3.8696,-3.8235,-3.901,-3.9575,-3.8326,-3.8568,-3.8961,-3.8535,-3.838,-3.8409,-3.8745,-3.8091,-3.7342,-3.6863,-3.616,-3.5477,-3.4992,-3.4499,-3.4173,-3.4136,-3.3635,-3.311,-3.2697,-3.2192,-3.151,-3.0629,-3.0511,-3.0246,-2.9733,-2.9631,-2.9539,-2.9449,-2.9357,-2.9258,-2.9205,-2.9071,-2.8921,-2.8752,-2.8677,-2.8586,-2.8459,-2.8811,-2.8694,-3.6834,-3.7226,-3.7167,-3.7262,-3.7203,-3.6478,-3.3961,-3.3407,-3.2791,-3.0628,0.0,-2.81,-2.8386,0.0,-3.025,-3.0249,0.0,-3.4945,-3.6926,-3.8567,-3.9938,-4.0974,-4.4024,-4.6086,-4.6183,-4.7782,-4.951,-5.1168,-5.0599,-5.0494,-5.1256,-5.1295,-5.1263,-5.1215,-5.1191,-5.1196,-5.1194,-5.12,-5.1202,-5.1183,-5.0309,-4.9443,-4.8565,-4.7699,-4.6796,-4.5912,-4.5906,-4.5867,-4.5814,-4.5814,-4.5812,-4.5795,-4.5795,-4.5271,-4.4492,-4.4442,-4.3416,-4.2044,-4.1934,-4.1421,-4.0647,-3.947,-3.8548,-3.7759,-3.7071,-3.7247,-3.7564,-3.6916,-3.7737,-3.8641,-3.788,-3.8829,-3.9606,-3.7976,-3.8739,-3.9577,-3.8708,-3.9149,-3.9674,-3.9626,-3.8964,-3.8333,-3.8096,-3.6943,-3.5911,-3.5593,-3.4948,-3.4435,-3.4335,-3.4136,-3.3708,-3.2963,-3.2807,-3.2412,-3.156,-3.1422,-3.1303,-3.1146,-3.1052,-3.0971,-3.0906,-3.0779,-3.0682,-3.0612,-3.0484,-3.0333,-3.0135,-3.0119,-3.0005,-2.9825,-2.9896,-2.9846,-3.7012,-3.6777,-3.6406,-3.7129,-3.6758,-3.5722,-3.382,-3.3403,0.0,0.0,0.0,-2.7435,-2.5355,-2.6889,0.0,-3.03,0.0,0.0,0.0,0.0,-4.0075,0.0,0.0,0.0,0.0,0.0,0.0,0.0,0.0,-5.1141,-5.1296,-5.1296,-5.1284,-5.1282,-5.122,-5.1196,-5.1194,-5.1208,-5.1211,-5.1183,-5.0309,-4.9435,-4.8574,-4.7691,-4.682,-4.598,-4.5911,0.0,-4.5886,-4.5886,-4.5847,-4.5793,-4.5793,-4.5269,-4.4506,-4.4498,-4.3809,-4.2899,-4.2864,-4.272,-4.2172,-3.9849,-3.9001,-3.8833,-3.8699,-3.8197,-3.7809,-3.8317,-3.867,-3.8842,-3.8623,-3.9326,-3.982,-3.879,-3.9292,-3.9716,-3.8775,-3.9169,-3.9696,-3.9684,-3.9555,-3.9011,-3.7619,-3.7589,-3.7067,-3.5027,-3.5138,-3.5196,-3.4486,-3.4209,-3.4018,-3.3858,-3.3757,-3.3335,-3.2531,-3.2337,-3.1984,-3.1313,-3.1159,-3.1052,-3.1003,-3.0906,-3.0812,-3.07,-3.0612,-3.0475,-3.0274,-3.0149,-3.0021,-2.9908,-3.0453,-3.0384,-3.6932,-3.6991,-3.6776,-3.7206,-3.6991,-3.5859,-3.2747,0.0,0.0,0.0,0.0,-2.4981,-2.367,0.0,0.0,0.0,0.0,0.0,0.0,0.0,0.0,0.0,0.0,0.0,0.0,0.0,0.0,0.0,0.0,-5.1292,-5.13,-5.13,-5.1296,-5.1304,-5.1263,-5.1244,-5.1254,-5.1224,-5.1203,-5.1186,-5.0786,-4.9881,-4.858,-4.8175,-4.7251,-4.5997,-4.596,-4.5937,-4.5906,-4.5906,-4.5887,-4.5854,-4.5854,-4.5582,-4.5179,-4.5177,-4.4607,-4.3809,-4.3782,-4.3453,-4.2854,-4.1602,-4.114,-4.1003,-4.059,-4.0132,-3.9665,-3.9153,-3.9307,-3.9518,-3.8985,-3.949,-4.0051,-3.9573,-3.9732,-3.9851,-3.9334,-3.9498,-3.9747,-3.9701,-3.9696,-3.9439,-3.8648,-3.8413,-3.7803,-3.6152,-3.5844,-3.5469,-3.4574,-3.4328,-3.4233,-3.4161,-3.4061,-3.3825,-3.3361,-3.3272,-3.3041,-3.2577,-3.2492,-3.2397,-3.2305,-3.2238,-3.1939,-3.1379,-3.1273,-3.0942,-3.0348,-3.0289,-3.0374,-3.065,-3.0952,-3.1077,-3.6832,-3.7163,-3.7065,-3.7241,-3.7163,-3.5936,-3.175,-3.0122,0.0,0.0,-2.3402,-2.2851,-2.2589,0.0,0.0,0.0,0.0,0.0,0.0,0.0,0.0,0.0,0.0,0.0,0.0,0.0,0.0,0.0,0.0,0.0,-5.13,-5.13,-5.13,-5.13,-5.1304,-5.1295,-5.131,-5.1249,-5.1205,-5.1189,-5.1206,-5.0295,-4.8599,-4.8599,-4.7656,-4.6003,-4.6003,-4.5966,-4.5917,-4.5917,-4.5899,-4.5906,-4.59,-4.586,-4.5814,-4.5817,-4.537,-4.4776,-4.4727,-4.4233,-4.3659,-4.3657,-4.3312,-4.2839,-4.2378,-4.2129,-4.1709,-4.0534,-4.0382,-4.0441,-3.9671,-3.9853,-4.0196,-4.0147,-4.0067,-3.9986,-3.99,-3.9848,-3.9826,-3.977,-3.9735,-3.9667,-3.9497,-3.9071,-3.8418,-3.7374,-3.6784,-3.6032,-3.4944,-3.4735,-3.4598,-3.4288,-3.4185,-3.4074,-3.3947,-3.3908,-3.3873,-3.3753,-3.3712,-3.3661,-3.352,-3.3452,-3.2969,-3.2028,-3.19,-3.1372,-3.0424,-3.0587,-3.0885,-3.1344,-3.1502,-3.1824,-3.6832,-3.6714,-3.6304,-3.7104,-3.6694,-3.5193,-3.1618,0.0,0.0,-2.3993,-2.3046,-2.273,-2.1863,-2.3218,-2.5237,0.0,0.0,0.0,0.0,0.0,0.0,0.0,0.0,0.0,0.0,0.0,0.0,0.0,0.0,0.0,-5.13,-5.13,-5.13,-5.13,-5.1296,-5.1308,-5.131,-5.1287,-5.1259,-5.1194,-5.1208,-5.0298,-4.8599,-4.8599,-4.7648,-4.5997,-4.5997,0.0,0.0,-4.5991,-4.5955,-4.5905,-4.5893,-4.59,-4.5886,-4.5814,-4.5759,-4.5691,-4.5665,-4.5576,-4.546,-4.5459,-4.4344,-4.3122,-4.3843,-4.3471,-4.2917,-4.356,-4.2688,-4.1529,-4.1388,-4.0815,-4.0271,-4.0215,-4.0147,-4.0096,-4.0086,-4.0017,-3.9975,-3.9975,-3.987,-3.9547,-3.882,-3.9199,-3.9059,-3.7516,-3.7781,-3.7585,-3.5985,-3.5706,-3.5364,-3.4547,-3.4305,-3.4161,-3.4086,-3.3972,-3.3895,-3.3881,-3.3766,-3.3657,-3.3591,-3.352,-3.3042,-3.2119,-3.201,-3.1479,-3.0496,-3.1169,-3.1499,-3.1492,-3.2165,-3.2486,-3.5117,-3.5483,-3.5308,-3.5659,-3.5081,-3.3665,-3.0683,0.0,0.0,-2.3623,-2.2235,-2.1371,-2.0952,-2.2639,-2.4437,-2.5425,0.0,0.0,0.0,0.0,0.0,0.0,0.0,0.0,0.0,0.0,0.0,0.0,0.0,0.0,-5.13,-5.13,-5.13,-5.13,-5.13,-5.1296,-5.1308,-5.1295,-5.1273,-5.1196,-5.12,-5.0284,-4.8599,-4.8599,-4.7648,-4.6002,-4.6002,0.0,0.0,-4.6005,-4.5983,-4.5955,-4.5962,-4.5938,-4.59,-4.586,-4.5833,-4.5798,-4.5795,-4.5773,-4.5758,-4.5711,-4.5216,-4.4675,-4.4989,-4.482,-4.4495,-4.4305,-4.3394,-4.2358,-4.1806,-4.0985,-4.0289,-4.0215,-4.0177,-4.0157,-4.0117,-4.0077,-4.0057,-4.0057,-3.9975,-3.9819,-3.9496,-3.9651,-3.9425,-3.8261,-3.8334,-3.8082,-3.6836,-3.6197,-3.5709,-3.5312,-3.4668,-3.4233,-3.4173,-3.4074,-3.3985,-3.3908,-3.3842,-3.378,-3.3657,-3.3131,-3.2401,-3.145,-3.0892,-3.0384,-2.9905,-3.0198,-3.0751,-3.157,-3.1359,-3.1489,-3.337,-3.4121,-3.433,-3.433,-3.3662,-3.2408,0.0,0.0,-2.5208,-2.3469,-2.1703,-2.0569,-2.0751,-2.2394,-2.3874,-2.4346,0.0,-2.9487,0.0,0.0,0.0,0.0,0.0,0.0,0.0,0.0,0.0,0.0,0.0,0.0,-5.1292,-5.1304,-5.13,-5.13,-5.13,-5.13,-5.13,-5.1304,-5.1287,-5.122,-5.1225,-5.0305,-4.8591,-4.8591,-4.7658,-4.6002,-4.6002,-4.6002,0.0,-4.6002,-4.6005,-4.6008,-4.5997,-4.5968,-4.5925,-4.5906,-4.586,-4.5833,-4.5817,-4.5803,-4.5795,-4.5739,-4.5723,-4.5708,-4.5654,-4.562,-4.5488,-4.4895,-4.3889,-4.2787,-4.1927,-4.1011,-4.0316,-4.028,-4.0234,-4.0215,-4.0167,-4.0138,-4.0137,-4.0137,-4.0077,-4.0036,-4.0036,-3.9965,-3.9713,-3.9123,-3.8985,-3.8628,-3.7739,-3.7035,-3.6434,-3.5893,-3.5179,-3.4596,-3.4252,-3.4148,-3.4061,-3.3972,-3.3921,-3.3842,-3.3739,-3.3122,-3.2338,-3.1406,-3.0758,-3.0143,-2.9551,-2.9789,-3.0259,-3.0965,-3.0647,-3.0747,-3.1884,-3.2768,-3.3413,-3.3413,-3.2762,-3.166,0.0,0.0,-2.5214,-2.3457,-2.1702,-2.0733,-2.1529,-2.2302,-2.3383,-2.5109,-2.6042,0.0,0.0,0.0,0.0,0.0,0.0,0.0,0.0,0.0,0.0,0.0,0.0,0.0,-5.1294,-5.1292,-5.13,-5.13,-5.13,-5.13,-5.13,-5.13,-5.1308,-5.131,-5.131,-5.0349,-4.8603,-4.8603,-4.7655,-4.6002,0.0,0.0,0.0,-4.6002,-4.6002,-4.5997,-4.6008,-4.5997,-4.5986,-4.5925,-4.59,-4.5893,-4.5821,-4.5807,-4.58,-4.5803,-4.5807,-4.58,-4.5715,-4.5695,-4.5701,-4.5701,-4.4391,-4.2795,-4.1931,-4.1044,-4.0407,-4.0407,-4.0353,-4.0307,-4.0307,-4.0253,-4.0196,-4.0196,-4.0147,-4.0106,-4.0106,-4.0046,-3.9996,-3.9996,-3.9881,-3.9501,-3.8691,-3.8467,-3.7747,-3.6072,-3.5829,-3.5385,-3.4379,-3.4173,-3.4099,-3.4099,-3.3972,-3.3868,-3.3788,-3.3739,-3.3246,-3.2306,-3.2204,-3.1359,-2.9701,-3.043,-3.0341,-2.9536,-3.0327,-3.0597,-2.9789,-3.0519,-3.0729,-3.0722,-3.0088,-2.9001,-2.7324,-2.5368,-2.3601,-2.2456,-2.1257,-2.0511,-2.0751,-2.1864,-2.3093,-2.4202,-2.557,0.0,0.0,0.0,0.0,0.0,0.0,0.0,0.0,0.0,0.0,0.0,0.0,0.0,-5.1294,-5.1307,-5.1296,-5.13,-5.13,-5.13,-5.13,-5.13,-5.1308,-5.131,-5.131,-5.0378,-4.8667,-4.8667,-4.7724,0.0,0.0,-4.6037,-4.6002,-4.6002,-4.6002,-4.6002,-4.5991,-4.5994,-4.5991,-4.5974,-4.5931,-4.5906,-4.5874,-4.586,-4.5854,-4.5819,-4.5805,-4.5805,-4.5771,-4.5739,-4.5587,-4.4977,-4.3962,-4.2879,-4.1992,-4.1124,-4.0477,-4.0477,-4.0424,-4.037,-4.037,-4.0326,-4.0262,-4.0262,-4.0215,-4.0166,-4.0166,-4.0108,-4.0057,-4.0007,-3.9965,-3.9797,-3.9455,-3.8893,-3.8301,-3.7683,-3.7058,-3.6054,-3.4505,-3.4281,-3.4197,-3.4111,-3.4023,-3.3934,-3.3868,-3.3216,-3.272,-3.2388,-3.176,-3.1411,-3.1343,-3.1567,-3.1207,-3.0302,-3.0019,-2.9505,0.0,-2.8531,-2.9018,-2.9009,-2.8375,0.0,0.0,-2.4352,-2.2857,-2.1975,-2.1074,-2.0618,-2.1236,-2.2115,-2.3107,-2.4239,-2.5327,0.0,0.0,0.0,0.0,0.0,0.0,0.0,0.0,0.0,0.0,0.0,0.0,0.0,-5.1333,-5.1301,-5.1307,-5.1292,-5.1304,-5.13,-5.13,-5.13,-5.1292,-5.13,-5.13,-5.0391,-4.8695,-4.8695,-4.7747,0.0,0.0,-4.6081,0.0,-4.6037,-4.6032,-4.6002,-4.6002,-4.6011,-4.5994,-4.6003,-4.5966,-4.5923,-4.5912,-4.5899,-4.5893,-4.5854,-4.5834,-4.5847,-4.5847,-4.5791,-4.5627,-4.504,-4.4048,-4.3019,-4.2468,-4.1447,-4.0531,-4.0531,-4.0482,-4.0432,-4.0432,-4.0379,-4.0353,-4.0353,-4.0299,-4.0272,-4.0234,-4.0186,-4.0109,-4.0087,-4.0027,-3.9975,-3.99,-3.9383,-3.8893,-3.849,-3.7931,-3.6986,-3.5509,-3.5023,-3.4623,-3.4204,-3.4086,-3.4011,-3.3934,-3.3351,-3.297,-3.2894,-3.2333,-3.2078,-3.2169,-3.1823,-3.1355,-3.0765,-2.99,-2.9189,0.0,-2.6704,0.0,0.0,0.0,0.0,0.0,-2.4219,0.0,-2.1907,-2.1055,-2.0977,-2.251,-2.2786,-2.336,-2.5095,0.0,0.0,0.0,0.0,0.0,0.0,0.0,0.0,0.0,0.0,0.0,0.0,0.0,0.0,-5.1399,-5.1333,-5.1294,-5.1294,-5.1292,-5.13,-5.13,-5.13,-5.13,-5.13,-5.13,-5.0396,-4.8701,-4.8701,-4.7754,0.0,-4.6117,-4.6104,-4.61,-4.61,-4.6066,-4.6002,-4.6002,-4.6002,-4.5997,-4.6008,-4.5997,-4.5997,-4.5923,-4.5911,-4.5911,-4.5892,-4.5906,-4.59,-4.59,-4.5852,-4.5781,-4.5723,-4.4492,-4.3199,-4.3199,-4.1916,-4.0588,-4.0588,-4.0554,-4.051,-4.051,-4.0449,-4.0415,-4.0415,-4.0407,-4.0379,-4.0316,-4.0243,-4.0215,-4.0206,-4.0098,-4.0007,-3.9996,-3.9881,-3.9509,-3.8667,-3.8527,-3.8108,-3.7171,-3.6179,-3.5255,-3.4442,-3.4222,-3.4074,-3.4011,-3.3934,-3.3829,-3.3712,-3.3647,-3.3213,-3.2379,-3.1446,-3.0996,-3.0964,-2.996,-2.9496,-2.3355,0.0,-2.529,-2.529,-2.5658,-2.5425,0.0,-2.2914,-2.2665,-2.1122,0.0,0.0,-2.1654,-2.229,0.0,0.0,0.0,0.0,0.0,0.0,0.0,0.0,0.0,0.0,0.0,0.0,0.0,0.0,0.0,-5.1408,-5.1399,-5.1391,-5.1358,-5.1294,-5.1307,-5.1296,-5.13,-5.13,-5.13,-5.13,-5.13,-5.04,-4.8779,-4.8779,-4.7837,-4.6181,-4.6181,-4.6149,-4.6108,-4.6108,-4.6095,-4.6071,-4.6071,-4.6056,-4.6002,-4.5991,-4.5991,-4.6005,-4.5978,-4.5986,-4.596,-4.5917,-4.5905,-4.5899,-4.5899,-4.5848,-4.5805,-4.5781,-4.4537,-4.3197,-4.3207,-4.1919,-4.06,-4.06,-4.0595,-4.0577,-4.0577,-4.0523,-4.0485,-4.0485,-4.0432,-4.0388,-4.0379,-4.0316,-4.0252,-4.0215,-4.0177,-4.0108,-4.0007,-3.9975,-3.9846,-3.9528,-3.9441,-3.9032,-3.8146,-3.6646,-3.5612,-3.5311,-3.4593,-3.4148,-3.4086,-3.3959,-3.3855,-3.378,-3.3657,-3.3514,-3.3285,-3.2401,-3.195,-3.1862,-3.0296,-2.9551,-2.2135,-2.3134,-2.3905,-2.4309,-2.4753,-2.4638,-2.2807,0.0,0.0,0.0,0.0,0.0,0.0,0.0,0.0,0.0,0.0,0.0,0.0,0.0,0.0,0.0,0.0,0.0,0.0,0.0,0.0,0.0,0.0,-5.1392,-5.1406,-5.1401,-5.1372,-5.1355,-5.132,-5.1303,-5.13,-5.13,-5.13,-5.13,-5.13,-5.0424,-4.8806,-4.8806,-4.7848,-4.6201,-4.6201,-4.617,-4.6149,-4.6149,-4.6137,-4.6095,-4.6095,-4.609,-4.6056,-4.6042,-4.6056,-4.6037,-4.6005,-4.5994,-4.5994,-4.5958,-4.5941,-4.5949,-4.5949,-4.5899,-4.5848,-4.5854,-4.4614,-4.3279,-4.3278,-4.1975,-4.0654,-4.0654,-4.0626,-4.0598,-4.0598,-4.0561,-4.055,-4.0546,-4.0523,-4.0491,-4.0449,-4.0388,-4.0316,-4.0271,-4.0225,-4.0176,-4.0098,-4.0046,-3.9965,-3.9867,-3.9781,-3.9542,-3.9046,-3.7784,-3.6778,-3.6236,-3.5342,-3.4804,-3.4704,-3.4201,-3.3881,-3.3766,-3.3684,-3.3633,-3.3605,-3.2734,-3.2278,-3.22,-3.0468,-2.962,-2.1189,-2.2131,-2.2924,-2.3944,-2.4406,-2.4346,-2.334,0.0,0.0,0.0,0.0,0.0,0.0,0.0,0.0,0.0,0.0,0.0,0.0,0.0,0.0,0.0,0.0,0.0,0.0,0.0,0.0,0.0,0.0,-5.1258,-5.1394,-5.1406,-5.1401,-5.1399,-5.1336,-5.131,-5.1328,-5.1304,-5.13,-5.13,-5.13,-5.0424,-4.8806,-4.8806,-4.7852,-4.6199,0.0,0.0,-4.6193,-4.6193,-4.6162,-4.6122,-4.6122,-4.6117,-4.6093,-4.6095,-4.6105,-4.6081,-4.6022,-4.6012,-4.6012,-4.6012,-4.6016,-4.6028,-4.6028,-4.5966,-4.5923,-4.5923,-4.4794,-4.3575,-4.3427,-4.2163,-4.0875,-4.0752,-4.0648,-4.0628,-4.0621,-4.0614,-4.06,-4.0603,-4.0588,-4.0585,-4.0534,-4.0458,-4.0388,-4.0325,-4.0262,-4.0215,-4.0196,-4.0098,-3.9996,-3.9922,-3.9867,-3.9789,-3.971,-3.9039,-3.8242,-3.7337,-3.6348,-3.569,-3.5421,-3.4511,-3.3934,-3.3753,-3.3739,-3.3698,-3.3643,-3.2885,-3.2461,-3.2283,-3.0645,-2.9796,-2.0586,-2.0758,-2.122,-2.2871,-2.441,-2.5076,-2.3476,0.0,0.0,0.0,0.0,0.0,0.0,0.0,0.0,0.0,0.0,0.0,0.0,0.0,0.0,0.0,0.0,0.0,0.0,0.0,0.0,0.0,0.0,-5.0612,-5.1355,-5.1392,-5.1408,-5.1399,-5.1394,-5.1383,-5.1385,-5.1335,-5.13,-5.13,-5.13,-5.0424,-4.8806,-4.8806,-4.7852,-4.6199,0.0,-4.6196,-4.6192,-4.6192,-4.6181,-4.6181,-4.6181,-4.6154,-4.6098,-4.6093,-4.6089,-4.6089,-4.6084,-4.6084,-4.6084,-4.6084,-4.609,-4.6085,-4.6085,-4.6051,-4.5986,-4.5986,-4.5268,-4.4329,-4.3592,-4.2656,-4.1695,-4.0963,-4.0719,-4.0675,-4.0681,-4.0628,-4.0588,-4.0607,-4.0591,-4.06,-4.0592,-4.0523,-4.0458,-4.0388,-4.0335,-4.0252,-4.0206,-4.0186,-4.0118,-3.9996,-3.9922,-3.9867,-3.98,-3.9602,-3.9375,-3.9133,-3.7604,-3.6304,-3.544,-3.4562,-3.4049,-3.3959,-3.3895,-3.3855,-3.3842,-3.3611,-3.3113,-3.2352,-3.1306,-3.0387,-1.9758,-2.0818,-2.2056,-2.2859,-2.3643,-2.4147,-2.3776,-2.4734,0.0,0.0,0.0,0.0,0.0,0.0,0.0,0.0,0.0,0.0,0.0,0.0,0.0,0.0,0.0,0.0,0.0,0.0,0.0,0.0,0.0,0.0,-4.9969,-5.0008,-5.0007,-5.0002,-4.9994,-5.0223,-5.0684,-5.0664,-5.0878,-5.13,-5.13,-5.0649,-4.943,-4.9001,-4.8105,-4.6881,0.0,-4.6199,-4.6199,-4.6199,-4.6192,-4.6204,-4.6204,-4.6177,-4.615,-4.6158,-4.6126,-4.6098,-4.6098,-4.6098,-4.6098,-4.6098,-4.6108,-4.6099,-4.6099,-4.6071,-4.6042,-4.6042,-4.5389,-4.4494,-4.3627,-4.2743,-4.1879,-4.1003,-4.0779,-4.0756,-4.0739,-4.072,-4.0701,-4.0668,-4.064,-4.0639,-4.0615,-4.0543,-4.0487,-4.0458,-4.037,-4.0289,-4.0262,-4.0215,-4.0176,-4.0108,-4.0026,-3.9933,-3.9867,-3.9789,-3.9484,-3.8845,-3.7567,-3.6422,-3.5491,-3.4587,-3.4074,-3.3998,-3.3972,-3.3934,-3.3895,-3.338,-3.2878,-3.2433,-3.1483,-3.0812,-1.9189,-2.0948,-2.2833,-2.2978,-2.3317,-2.3842,-2.4628,-2.5853,0.0,0.0,0.0,0.0,0.0,0.0,0.0,0.0,0.0,0.0,0.0,0.0,0.0,0.0,0.0,0.0,0.0,0.0,0.0,0.0,0.0,0.0,-4.8798,-4.8798,-4.8798,-4.8798,-4.8808,-4.9116,-4.9781,-4.9791,-5.0305,-5.1317,-5.1317,-5.0862,-5.001,-4.9386,-4.8529,-4.7457,-4.6794,-4.6385,-4.619,-4.619,-4.619,-4.619,-4.6206,-4.6203,-4.6196,-4.6201,-4.6166,-4.6111,-4.6111,-4.6111,-4.6111,-4.6111,-4.613,-4.6126,-4.6126,-4.6102,-4.6098,-4.6098,-4.559,-4.484,-4.3942,-4.3086,-4.2205,-4.1347,-4.0973,-4.0826,-4.0798,-4.08,-4.0782,-4.0733,-4.0707,-4.068,-4.0617,-4.0554,-4.0527,-4.0491,-4.0405,-4.0334,-4.0288,-4.0262,-4.0225,-4.0206,-4.0108,-4.0015,-3.9911,-3.9837,-3.9448,-3.8602,-3.7661,-3.6739,-3.5864,-3.4946,-3.4328,-3.4074,-3.4036,-3.3998,-3.3947,-3.3243,-3.2761,-3.2512,-3.1772,-3.127,-1.9212,-2.0426,-2.2061,-2.2808,-2.4258,-2.5693,-2.6442,-2.6761,0.0,-2.7776,0.0,0.0,0.0,0.0,0.0,0.0,0.0,0.0,0.0,0.0,0.0,0.0,0.0,0.0,0.0,0.0,0.0,0.0,0.0,0.0,-4.8759,-4.8798,-4.8798,-4.8798,-4.8798,-4.8835,-4.8894,-4.8894,-4.9723,-5.1391,-5.1391,-5.0943,-5.0085,-5.0026,-4.909,-4.751,-4.7432,-4.6944,-4.6203,-4.6203,-4.6203,-4.6203,-4.6209,-4.6193,-4.6199,-4.6196,-4.6196,-4.6192,-4.6192,-4.6192,-4.6192,-4.6192,-4.6181,-4.6185,-4.6185,-4.6154,-4.6098,-4.6098,-4.6054,-4.5793,-4.4934,-4.405,-4.3184,-4.231,-4.1484,-4.0872,-4.0812,-4.0798,-4.0794,-4.0788,-4.0739,-4.0687,-4.0614,-4.0591,-4.0577,-4.0518,-4.0493,-4.0441,-4.0316,-4.0298,-4.0262,-4.0206,-4.0196,-4.0108,-3.9911,-3.9837,-3.9747,-3.9599,-3.8639,-3.7717,-3.6839,-3.5957,-3.51,-3.43,-3.4161,-3.4086,-3.4086,-3.3904,-3.3377,-3.259,-3.2457,-3.1931,-1.9217,-2.0743,-2.2611,-2.2913,-2.4739,0.0,0.0,-2.7135,-2.7637,-2.8012,-2.8931,0.0,0.0,0.0,0.0,0.0,0.0,0.0,0.0,0.0,0.0,0.0,0.0,0.0,0.0,0.0,0.0,0.0,0.0,0.0,-4.7232,-4.7252,-4.7249,-4.7245,-4.7245,-4.7515,-4.8057,-4.8057,-4.8638,-4.9781,-4.9772,-4.9608,-4.9268,-4.8722,-4.8117,-4.7474,-4.6928,-4.6499,-4.6206,-4.6206,-4.6206,-4.6206,-4.6201,-4.6195,-4.6189,-4.6189,-4.6189,-4.6189,-4.6189,-4.6189,-4.6209,-4.62,-4.619,-4.6203,-4.6192,-4.6181,-4.6158,-4.6158,-4.6166,-4.5955,-4.5038,-4.4558,-4.3942,-4.2539,-4.1951,-4.1548,-4.098,-4.0862,-4.084,-4.0806,-4.0776,-4.0745,-4.0668,-4.0633,-4.0591,-4.0569,-4.0534,-4.0474,-4.0441,-4.0342,-4.0289,-4.0252,-4.0215,-4.0147,-3.9975,-3.99,-3.9834,-3.9773,-3.8823,-3.809,-3.7717,-3.6384,-3.5508,-3.5184,-3.4548,-3.4209,-3.4161,-3.4074,-3.3806,-3.3408,-3.333,-3.3103,-1.9414,-2.1083,-2.2958,-2.2938,0.0,0.0,-2.7047,-2.7959,-2.8763,-2.8826,-2.9968,0.0,0.0,0.0,0.0,0.0,0.0,0.0,0.0,0.0,0.0,0.0,0.0,0.0,0.0,0.0,0.0,0.0,0.0,0.0,0.0,-4.6301,-4.63,-4.6296,-4.6296,-4.6587,-4.7186,-4.7186,-4.7479,-4.8006,-4.8016,-4.8296,-4.8774,-4.8189,-4.7779,-4.7506,-4.6901,-4.6492,-4.6238,-4.6238,-4.6236,-4.6233,-4.6233,-4.6211,-4.6206,-4.6206,-4.6206,-4.6206,-4.6206,-4.6206,-4.6206,-4.6195,-4.6192,-4.6189,-4.62,-4.6196,-4.6196,-4.6196,-4.6206,-4.6056,-4.5414,-4.5021,-4.444,-4.2983,-4.241,-4.1969,-4.1116,-4.0917,-4.0892,-4.0834,-4.0812,-4.0782,-4.0707,-4.0668,-4.0626,-4.0595,-4.0562,-4.0515,-4.051,-4.0413,-4.0342,-4.0288,-4.0234,-4.0167,-4.0077,-3.9975,-3.9911,-3.9826,-3.9173,-3.8616,-3.8276,-3.7147,-3.6276,-3.5747,-3.5091,-3.4572,-3.4233,-3.4161,-3.4074,-3.3959,-3.3868,-3.3807,-1.991,-2.1363,-2.2863,0.0,0.0,0.0,-2.7735,-2.9306,-3.0564,-3.046,0.0,0.0,0.0,0.0,0.0,0.0,0.0,0.0,0.0,0.0,0.0,0.0,0.0,0.0,0.0,0.0,0.0,0.0,0.0,0.0,0.0,-4.6301,-4.6301,-4.6301,-4.6301,-4.6301,-4.6301,-4.6301,-4.6301,-4.6301,-4.6296,-4.7167,-4.8779,-4.8779,-4.8349,-4.7586,-4.7586,-4.71,-4.63,-4.63,-4.6294,-4.6306,-4.6306,-4.6258,-4.6209,-4.6209,-4.6209,-4.6209,-4.6209,-4.6209,-4.6209,-4.6209,-4.6206,-4.6206,-4.6206,-4.6206,-4.6206,-4.6206,-4.6206,-4.6203,-4.6209,-4.5503,-4.4619,-4.3797,-4.2909,-4.1998,-4.1181,-4.0946,-4.0902,-4.0902,-4.0859,-4.0788,-4.07,-4.0707,-4.0673,-4.0622,-4.0607,-4.0577,-4.0518,-4.0502,-4.0449,-4.0316,-4.0243,-4.0206,-4.0206,-4.0077,-3.9975,-3.99,-3.9837,-3.9381,-3.8455,-3.8341,-3.7519,-3.5874,-3.5729,-3.524,-3.4323,-3.4233,-3.4173,-3.4099,-3.3959,-3.3855,-2.0561,-2.1398,0.0,0.0,0.0,0.0,0.0,-2.9231,0.0,0.0,0.0,0.0,0.0,0.0,0.0,0.0,0.0,0.0,0.0,0.0,0.0,0.0,0.0,0.0,0.0,0.0,0.0,0.0,0.0,0.0,0.0,-4.6308,-4.6307,-4.6306,-4.6306,-4.6305,-4.6301,-4.6301,-4.6301,-4.6301,-4.6301,-4.657,-4.7032,-4.7045,-4.6905,-4.669,-4.669,-4.6534,-4.63,-4.63,-4.6298,-4.6296,-4.6296,-4.6294,-4.6273,-4.6273,-4.6273,-4.6273,-4.6273,-4.6273,-4.6271,-4.6262,-4.6279,-4.6258,-4.6211,-4.6206,-4.6206,-4.6206,-4.6206,-4.6206,-4.6201,-4.5988,-4.5572,-4.4725,-4.3837,-4.293,-4.2045,-4.1382,-4.0951,-4.0912,-4.0856,-4.0784,-4.0769,-4.0739,-4.0694,-4.0666,-4.0626,-4.0583,-4.0508,-4.0507,-4.0477,-4.0379,-4.0353,-4.0298,-4.0215,-4.0158,-4.0099,-4.0046,-4.0026,-3.9797,-3.9331,-3.8742,-3.8203,-3.7721,-3.6472,-3.5702,-3.5428,-3.465,-3.4233,-3.4173,-3.4086,-3.3985,-1.9805,0.0,0.0,0.0,0.0,0.0,0.0,0.0,0.0,0.0,0.0,0.0,0.0,0.0,0.0,0.0,0.0,0.0,0.0,0.0,0.0,0.0,0.0,0.0,0.0,0.0,0.0,0.0,0.0,0.0,0.0,-4.6308,-4.6308,-4.6308,-4.6308,-4.6307,-4.6306,-4.6306,-4.6306,-4.6306,-4.6305,-4.6303,-4.63,-4.6294,-4.6291,-4.6291,-4.6291,-4.6291,-4.6291,-4.6291,-4.6291,-4.6291,-4.6291,-4.6291,-4.6291,-4.6291,-4.6291,-4.6291,-4.6291,-4.6291,-4.6309,-4.63,-4.6298,-4.6296,-4.6245,-4.6243,-4.6243,-4.6243,-4.6243,-4.624,-4.6236,-4.6226,-4.5975,-4.5108,-4.4506,-4.3767,-4.2517,-4.1835,-4.1464,-4.1427,-4.1373,-4.1457,-4.1773,-4.1512,-4.1255,-4.1222,-4.0866,-4.0593,-4.0549,-4.0543,-4.0515,-4.0455,-4.0449,-4.0407,-4.0289,-4.0224,-4.0177,-4.0138,-4.0108,-4.0026,-3.9867,-3.9331,-3.8871,-3.8505,-3.7468,-3.6584,-3.5901,-3.5244,-3.4699,-3.4233,-3.4173,-3.4086,-1.8451,0.0,0.0,0.0,0.0,0.0,0.0,0.0,0.0,0.0,0.0,0.0,0.0,0.0,0.0,0.0,0.0,0.0,0.0,0.0,0.0,0.0,0.0,0.0,0.0,0.0,0.0,0.0,0.0,0.0,0.0,-4.6305,-4.6306,-4.6306,-4.6308,-4.6308,-4.6308,-4.6308,-4.6308,-4.6308,-4.6308,-4.6307,-4.6307,-4.6304,-4.6301,-4.6301,-4.6301,-4.6301,-4.6301,-4.6301,-4.6301,-4.6301,-4.6301,-4.6301,-4.6301,-4.6301,-4.6301,-4.6301,-4.6301,-4.6301,-4.6301,-4.6296,-4.6294,-4.6293,-4.6305,-4.6303,-4.6303,-4.6302,-4.6302,-4.63,-4.631,-4.6258,-4.6011,-4.5217,-4.4952,-4.4476,-4.2879,-4.2439,-4.2328,-4.2324,-4.2301,-4.2532,-4.3261,-4.2747,-4.2163,-4.2034,-4.1221,-4.0614,-4.0614,-4.0598,-4.058,-4.0531,-4.0503,-4.0474,-4.0405,-4.0298,-4.0224,-4.0215,-4.0148,-4.0118,-4.0108,-3.9994,-3.9507,-3.8652,-3.8565,-3.7747,-3.6159,-3.5987,-3.5398,-3.444,-3.4282,-3.4173,0.0,-2.043,0.0,0.0,0.0,0.0,0.0,0.0,0.0,0.0,0.0,0.0,0.0,0.0,0.0,0.0,0.0,0.0,0.0,0.0,0.0,0.0,0.0,0.0,0.0,0.0,0.0,0.0,0.0,0.0,-4.6262,-4.6302,-4.6303,-4.6303,-4.6304,-4.6306,-4.6307,-4.6307,-4.6308,-4.6308,-4.6308,-4.6308,-4.6308,-4.6305,-4.6301,-4.6301,-4.6301,-4.6301,-4.6301,-4.6301,-4.6301,-4.6301,-4.6301,-4.6301,-4.6301,-4.6301,-4.6301,-4.6301,-4.6301,-4.6301,-4.6301,-4.6301,-4.63,-4.63,-4.6299,-4.6299,-4.6297,-4.6293,-4.6291,-4.6308,-4.63,-4.629,-4.6219,-4.5972,-4.54,-4.4805,-4.4421,-4.3794,-4.3279,-4.3222,-4.318,-4.3197,-4.3366,-4.3247,-4.2883,-4.2182,-4.1274,-4.0687,-4.0687,-4.064,-4.0593,-4.0586,-4.0588,-4.0543,-4.0484,-4.0455,-4.0405,-4.0362,-4.0335,-4.029,-4.0177,-4.0089,-3.995,-3.9678,-3.901,-3.8456,-3.8013,-3.6599,-3.5766,-3.5533,-3.468,-3.4245,0.0,0.0,0.0,0.0,0.0,0.0,0.0,0.0,0.0,0.0,0.0,0.0,0.0,0.0,0.0,0.0,0.0,0.0,0.0,0.0,0.0,0.0,0.0,0.0,0.0,0.0,0.0,0.0,0.0,-4.5195,-4.5648,-4.6062,-4.6297,-4.6297,-4.6301,-4.6302,-4.6305,-4.6305,-4.6306,-4.6307,-4.6307,-4.6307,-4.6307,-4.6308,-4.6307,-4.6307,-4.6307,-4.6307,-4.6307,-4.6307,-4.6307,-4.6307,-4.6307,-4.6307,-4.6307,-4.6307,-4.6307,-4.6307,-4.6307,-4.6307,-4.6306,-4.6305,-4.6305,-4.6304,-4.6302,-4.6301,-4.6301,-4.6299,-4.6295,-4.6293,-4.6308,-4.6296,-4.6284,-4.6258,-4.5883,-4.5407,-4.5,-4.453,-4.4199,-4.4135,-4.4083,-4.4185,-4.4586,-4.43,-4.3728,-4.2844,-4.1943,-4.137,-4.1371,-4.0958,-4.0655,-4.0654,-4.0619,-4.0591,-4.0557,-4.0516,-4.0487,-4.0444,-4.0413,-4.0362,-4.0298,-4.0262,-4.0177,-4.0057,-3.9608,-3.9119,-3.8647,-3.7692,-3.6782,-3.5882,-3.533,-3.4778,0.0,0.0,0.0,0.0,0.0,0.0,0.0,0.0,0.0,0.0,0.0,0.0,0.0,0.0,0.0,0.0,0.0,0.0,0.0,0.0,0.0,0.0,0.0,0.0,0.0,0.0,0.0,0.0,0.0,-4.4616,-4.4774,-4.5602,-4.6075,-4.6077,-4.6218,-4.63,-4.6301,-4.6457,-4.6515,-4.6516,-4.6516,-4.6458,-4.6301,-4.6307,-4.6386,-4.6523,-4.6523,-4.6601,-4.6738,-4.6582,-4.6523,-4.6504,-4.6367,-4.6308,-4.6308,-4.6308,-4.6308,-4.6308,-4.6308,-4.6308,-4.6308,-4.6308,-4.6308,-4.6308,-4.6306,-4.6305,-4.6305,-4.6303,-4.63,-4.6296,-4.6294,-4.6401,-4.6524,-4.652,-4.6582,-4.6404,-4.5543,-4.5347,-4.5325,-4.5269,-4.5127,-4.5289,-4.6097,-4.5378,-4.4457,-4.3726,-4.2873,-4.228,-4.2115,-4.1427,-4.0874,-4.0739,-4.0668,-4.0628,-4.0621,-4.0557,-4.0519,-4.0519,-4.0471,-4.0422,-4.0413,-4.0424,-4.0326,-4.0166,-4.0128,-3.9725,-3.8948,-3.8776,-3.7904,-3.6381,-3.6186,-3.5582,0.0,0.0,0.0,0.0,0.0,0.0,0.0,0.0,0.0,0.0,0.0,0.0,0.0,0.0,0.0,0.0,0.0,0.0,0.0,0.0,0.0,0.0,0.0,0.0,0.0,0.0,0.0,0.0,-4.268,-4.3077,-4.3827,-4.471,-4.5162,-4.5169,-4.5913,-4.6308,-4.6294,-4.7055,-4.7428,-4.7433,-4.7433,-4.7023,-4.6301,-4.6303,-4.6713,-4.7435,-4.7435,-4.7845,-4.8489,-4.7747,-4.7435,-4.7357,-4.6596,-4.6303,-4.6303,-4.6303,-4.6303,-4.6303,-4.6303,-4.6303,-4.6303,-4.6304,-4.6304,-4.6305,-4.6307,-4.6308,-4.6308,-4.6307,-4.6306,-4.6305,-4.6296,-4.6857,-4.7418,-4.7342,-4.7901,-4.8206,-4.7336,-4.7111,-4.7061,-4.7042,-4.6444,-4.6192,-4.7062,-4.5811,-4.4666,-4.455,-4.3771,-4.2945,-4.2202,-4.1989,-4.1623,-4.0866,-4.0739,-4.0688,-4.0694,-4.064,-4.06,-4.06,-4.0569,-4.055,-4.05,-4.0499,-4.0441,-4.0353,-4.0252,-4.0101,-3.9915,-3.9092,-3.8565,-3.8306,-3.7363,-3.649,0.0,0.0,0.0,0.0,0.0,0.0,0.0,0.0,0.0,0.0,0.0,0.0,0.0,0.0,0.0,0.0,0.0,0.0,0.0,0.0,0.0,0.0,0.0,0.0,0.0,0.0,0.0,0.0,-4.2127,-4.2563,-4.2958,-4.3799,-4.4272,-4.4261,-4.4633,-4.4834,-4.4842,-4.5213,-4.5662,-4.6153,-4.6643,-4.6662,-4.6291,-4.6291,-4.6783,-4.7609,-4.7609,-4.7824,-4.8136,-4.7765,-4.7316,-4.6829,-4.6458,-4.6301,-4.6301,-4.6301,-4.6301,-4.6301,-4.6301,-4.6301,-4.6301,-4.6301,-4.6301,-4.6302,-4.6304,-4.6306,-4.6307,-4.6308,-4.664,-4.7029,-4.7026,-4.7684,-4.832,-4.8294,-4.8558,-4.8838,-4.8923,-4.8545,-4.816,-4.814,-4.7819,-4.7524,-4.7427,-4.6747,-4.6047,-4.5561,-4.4739,-4.4058,-4.3654,-4.3153,-4.2496,-4.1629,-4.1496,-4.129,-4.0808,-4.0681,-4.0655,-4.0655,-4.0621,-4.0598,-4.0564,-4.0561,-4.0523,-4.0452,-4.0314,-4.0215,-4.0158,-3.9727,-3.9257,-3.869,-3.8215,-3.7502,0.0,0.0,0.0,0.0,0.0,0.0,0.0,0.0,0.0,0.0,0.0,0.0,0.0,0.0,0.0,0.0,0.0,0.0,0.0,0.0,0.0,0.0,0.0,0.0,0.0,0.0,0.0,0.0,-4.1683,-4.2161,-4.2398,-4.3024,-4.3478,-4.3684,-4.3704,-4.3691,-4.37,-4.3918,-4.4367,-4.501,-4.587,-4.6183,-4.5964,-4.5964,-4.644,-4.7248,-4.7252,-4.7507,-4.7878,-4.7448,-4.7019,-4.661,-4.6395,-4.6297,-4.6297,-4.6297,-4.6297,-4.6297,-4.6297,-4.6297,-4.6297,-4.6297,-4.6297,-4.6258,-4.6046,-4.597,-4.6012,-4.6248,-4.6777,-4.7363,-4.7811,-4.8588,-4.9225,-4.9202,-4.9348,-4.9591,-5.0008,-4.9594,-4.9175,-4.9325,-4.8814,-4.8228,-4.78,-4.7367,-4.6857,-4.6195,-4.5555,-4.505,-4.4837,-4.419,-4.3426,-4.2546,-4.2438,-4.218,-4.153,-4.1213,-4.1053,-4.1053,-4.0797,-4.0641,-4.0641,-4.0602,-4.0579,-4.0531,-4.04,-4.0306,-4.0224,-4.0215,-3.9814,-3.9074,-3.9033,-3.8483,0.0,0.0,0.0,0.0,0.0,0.0,0.0,0.0,0.0,0.0,0.0,0.0,0.0,0.0,0.0,0.0,0.0,0.0,0.0,0.0,0.0,0.0,0.0,0.0,0.0,0.0,0.0,0.0,-4.1104,-4.1529,-4.2362,-4.244,-4.2858,-4.367,-4.3695,-4.37,-4.371,-4.4518,-4.4951,-4.501,-4.587,-4.5865,-4.5074,-4.5076,-4.5501,-4.6272,-4.6333,-4.7278,-4.8605,-4.7024,-4.6829,-4.7451,-4.6614,-4.6302,-4.6302,-4.6302,-4.6302,-4.6302,-4.6302,-4.6302,-4.6302,-4.6302,-4.6302,-4.6147,-4.5315,-4.5063,-4.5242,-4.6071,-4.6326,-4.6757,-4.8398,-4.9471,-5.0113,-5.0045,-5.0666,-5.105,-5.0274,-5.0056,-5.0254,-5.1018,-4.9157,-4.7723,-4.8502,-4.7259,-4.6156,-4.6117,-4.6054,-4.5724,-4.4906,-4.4768,-4.4394,-4.3515,-4.3373,-4.3303,-4.3274,-4.2499,-4.2034,-4.2034,-4.1195,-4.0694,-4.0694,-4.0629,-4.0593,-4.0588,-4.0523,-4.0425,-4.0279,-4.0224,-4.0177,-4.0129,-3.9929,-3.9388,0.0,0.0,0.0,0.0,0.0,0.0,0.0,0.0,0.0,0.0,0.0,0.0,0.0,0.0,0.0,0.0,0.0,0.0,0.0,0.0,0.0,0.0,0.0,0.0,0.0,0.0,0.0,0.0,0.0,-4.1162,-4.1474,-4.1494,-4.1916,-4.2836,-4.2312,-4.2027,-4.2037,-4.2902,-4.3333,-4.3333,-4.4213,-4.4465,-4.4168,-4.4168,-4.4321,-4.4573,-4.4033,-4.476,-4.6282,-4.624,-4.6084,-4.5889,-4.6143,-4.624,-4.624,-4.624,-4.624,-4.624,-4.624,-4.624,-4.6143,-4.5579,-4.5404,-4.525,-4.4419,-4.4564,-4.5078,-4.538,-4.6672,-4.8101,-4.8749,-4.9922,-5.0819,-5.0246,-5.0341,-5.0338,-4.9444,-5.014,-5.0859,-5.0589,-5.0228,-4.9536,-4.8168,-4.7882,-4.7443,-4.6332,-4.6154,-4.606,-4.5749,-4.565,-4.5302,-4.4437,-4.4311,-4.4064,-4.351,-4.3184,-4.2975,-4.2939,-4.2086,-4.1606,-4.1601,-4.1035,-4.0701,-4.066,-4.0605,-4.0512,-4.0432,-4.0316,-4.0233,-4.0196,-4.0128,-3.9865,0.0,0.0,0.0,0.0,0.0,0.0,0.0,0.0,0.0,0.0,0.0,0.0,0.0,0.0,0.0,0.0,0.0,0.0,0.0,0.0,0.0,0.0,0.0,0.0,0.0,0.0,0.0,0.0,0.0,0.0,-4.0979,-4.1006,-4.1292,-4.1944,-4.1404,-4.11,-4.1108,-4.1679,-4.211,-4.2403,-4.299,-4.3417,-4.3665,-4.3395,-4.3256,-4.3173,-4.2331,-4.2922,-4.4512,-4.4804,-4.4765,-4.4551,-4.5136,-4.537,-4.537,-4.537,-4.537,-4.537,-4.537,-4.537,-4.5272,-4.4687,-4.4492,-4.4339,-4.3507,-4.3868,-4.4619,-4.492,-4.645,-4.8213,-4.9078,-5.0351,-5.1191,-5.0348,-5.011,-4.9874,-4.901,-4.9733,-5.0355,-4.9784,-4.9895,-4.9541,-4.7805,-4.7738,-4.7538,-4.6368,-4.6209,-4.6208,-4.6208,-4.6166,-4.5912,-4.5328,-4.5246,-4.4999,-4.4418,-4.4093,-4.3918,-4.3874,-4.2781,-4.2128,-4.2133,-4.1277,-4.077,-4.0701,-4.0668,-4.0605,-4.0527,-4.043,-4.0325,-4.0271,-4.0225,-4.0089,0.0,0.0,0.0,0.0,0.0,0.0,0.0,0.0,0.0,0.0,0.0,0.0,0.0,0.0,0.0,0.0,0.0,0.0,0.0,0.0,0.0,0.0,0.0,0.0,0.0,0.0,0.0,0.0,-3.9171,-4.0023,-4.0887,-4.0979,-4.1036,-4.1088,-4.1126,-4.1114,-4.1095,-4.1125,-4.1562,-4.2403,-4.2422,-4.2844,-4.3568,-4.2788,-4.2389,-4.2296,-4.1497,-4.2103,-4.3595,-4.2754,-4.2893,-4.3653,-4.3692,-4.3692,-4.3692,-4.3692,-4.3692,-4.3692,-4.3692,-4.3692,-4.3692,-4.3673,-4.3653,-4.3497,-4.2637,-4.2997,-4.3866,-4.4717,-4.5623,-4.6919,-4.9443,-5.0759,-5.1191,-5.039,-5.0153,-4.9875,-4.9035,-4.8831,-4.8796,-4.8764,-4.8128,-4.7555,-4.7513,-4.6813,-4.6267,-4.6248,-4.6215,-4.6206,-4.6206,-4.6196,-4.6189,-4.6189,-4.6134,-4.6098,-4.6098,-4.5339,-4.4839,-4.4836,-4.3199,-4.2238,-4.2232,-4.1319,-4.0769,-4.07,-4.0701,-4.0668,-4.0595,-4.0527,-4.0458,-4.0407,-4.0252,-4.0099,-1.9841,0.0,0.0,0.0,0.0,0.0,0.0,0.0,0.0,0.0,0.0,0.0,0.0,0.0,0.0,0.0,0.0,0.0,0.0,0.0,0.0,0.0,0.0,0.0,0.0,0.0,0.0,0.0,-3.8274,-3.8859,-3.9109,-4.031,-4.1009,-4.1032,-4.1633,-4.1682,-4.1117,-4.1685,-4.2097,-4.2331,-4.2974,-4.338,-4.3588,-4.3374,-4.3254,-4.3192,-4.2335,-4.2237,-4.2669,-4.2425,-4.2467,-4.274,-4.3383,-4.3637,-4.3637,-4.3637,-4.363,-4.3624,-4.3624,-4.3633,-4.3525,-4.2896,-4.2689,-4.2536,-4.1699,-4.2471,-4.3687,-4.397,-4.5562,-4.7623,-4.9592,-5.0753,-5.1188,-5.0329,-5.0155,-4.9766,-4.8281,-4.8435,-4.8684,-4.8051,-4.8729,-4.8995,-4.7785,-4.7852,-4.786,-4.7235,-4.6599,-4.6201,-4.6201,-4.6195,-4.6209,-4.6209,-4.6174,-4.6176,-4.6165,-4.5955,-4.578,-4.5739,-4.4097,-4.3141,-4.3136,-4.1678,-4.084,-4.0769,-4.0719,-4.0681,-4.0668,-4.0554,-4.0492,-4.0468,-4.0288,-4.0177,0.0,0.0,0.0,0.0,0.0,0.0,-2.0356,-2.022,-2.0458,0.0,0.0,0.0,0.0,0.0,0.0,0.0,0.0,0.0,0.0,0.0,0.0,0.0,0.0,0.0,0.0,-3.567,-3.6139,-3.6488,-3.7346,-3.8018,-3.8377,-3.9354,-4.0077,-4.0441,-4.0958,-4.1179,-4.1107,-4.1906,-4.2471,-4.2841,-4.3367,-4.3796,-4.413,-4.3776,-4.3601,-4.3562,-4.3056,-4.2831,-4.2836,-4.2843,-4.2415,-4.1808,-4.2314,-4.2528,-4.2528,-4.2528,-4.2521,-4.2513,-4.2513,-4.2525,-4.2439,-4.1926,-4.1762,-4.1733,-4.1637,-4.2548,-4.3674,-4.4089,-4.605,-4.8272,-4.929,-5.0469,-5.1177,-5.0304,-5.0131,-4.9782,-4.8436,-4.8535,-4.8632,-4.7768,-4.8681,-4.9285,-4.8308,-4.8532,-4.8543,-4.7664,-4.7084,-4.6623,-4.6275,-4.6211,-4.6206,-4.6206,-4.6201,-4.6209,-4.619,-4.6199,-4.6181,-4.613,-4.4502,-4.3527,-4.3491,-4.183,-4.0883,-4.0834,-4.0775,-4.0726,-4.07,-4.0586,-4.0527,-4.0496,-4.0386,-4.0289,0.0,0.0,0.0,0.0,0.0,0.0,-1.9712,-1.9313,-1.9269,0.0,0.0,0.0,0.0,0.0,0.0,0.0,0.0,0.0,0.0,0.0,0.0,0.0,0.0,0.0,-3.4153,-3.4318,-3.47,-3.551,-3.643,-3.734,-3.8218,-3.826,-3.8669,-3.9519,-3.9562,-4.0,-4.0948,-4.1747,-4.2643,-4.3594,-4.3695,-4.4205,-4.5027,-4.4244,-4.3893,-4.3874,-4.3792,-4.3743,-4.3724,-4.3623,-4.2623,-4.1132,-4.1132,-4.1093,-4.0996,-4.0996,-4.0992,-4.0992,-4.0992,-4.1011,-4.0988,-4.0992,-4.1007,-4.1158,-4.2038,-4.29,-4.3805,-4.4763,-4.6858,-4.8803,-4.8808,-5.0083,-5.1201,-5.0436,-5.0243,-5.0029,-4.9209,-4.9116,-4.8925,-4.8044,-4.8511,-4.9037,-4.9037,-4.9032,-4.8774,-4.7994,-4.7668,-4.7244,-4.6544,-4.6318,-4.6214,-4.6214,-4.6211,-4.6203,-4.6212,-4.6206,-4.6154,-4.6061,-4.4514,-4.3522,-4.3363,-4.1781,-4.0917,-4.0907,-4.0829,-4.077,-4.0707,-4.0635,-4.0579,-4.0504,-4.0495,-4.0405,0.0,0.0,0.0,0.0,0.0,0.0,-2.0798,-2.0827,-2.0999,0.0,0.0,0.0,0.0,0.0,0.0,0.0,0.0,0.0,0.0,0.0,0.0,0.0,0.0,0.0,-3.3209,-3.3418,-3.3785,-3.4594,-3.5529,-3.6438,-3.7318,-3.7343,-3.7743,-3.8622,-3.8641,-3.908,-3.9956,-4.0816,-4.2043,-4.3615,-4.4316,-4.5102,-4.594,-4.576,-4.5689,-4.565,-4.4954,-4.4624,-4.4502,-4.3804,-4.2948,-4.2046,-4.2046,-4.1618,-4.0996,-4.0996,-4.1003,-4.0991,-4.0991,-4.0958,-4.0926,-4.0987,-4.0995,-4.1159,-4.205,-4.291,-4.3929,-4.5495,-4.7317,-4.8805,-4.8803,-5.0096,-5.1369,-5.1191,-5.1141,-5.0914,-5.0043,-5.042,-5.0658,-4.9781,-4.9785,-4.9958,-4.9958,-4.9896,-4.9814,-4.9639,-4.8447,-4.7528,-4.7371,-4.6721,-4.6287,-4.6287,-4.6273,-4.6279,-4.6277,-4.6237,-4.591,-4.5202,-4.4182,-4.3284,-4.2552,-4.1524,-4.0965,-4.0898,-4.0821,-4.0788,-4.0776,-4.072,-4.0653,-4.0573,-4.0543,-4.0487,0.0,0.0,0.0,-1.9926,0.0,0.0,0.0,-2.0558,-2.0829,-2.1763,0.0,0.0,0.0,0.0,0.0,0.0,0.0,0.0,0.0,0.0,0.0,0.0,0.0,0.0,-3.1622,-3.1865,-3.243,-3.3713,-3.4647,-3.5338,-3.5779,-3.6219,-3.6853,-3.772,-3.7751,-3.8171,-3.9031,-3.991,-4.1233,-4.2961,-4.3849,-4.4927,-4.6154,-4.6174,-4.6204,-4.6185,-4.5737,-4.5504,-4.5412,-4.4971,-4.4301,-4.3451,-4.2596,-4.1974,-4.1546,-4.1118,-4.0954,-4.095,-4.095,-4.0941,-4.0907,-4.0945,-4.1246,-4.1764,-4.2629,-4.3825,-4.5083,-4.5958,-4.745,-4.8805,-4.8802,-5.0075,-5.1369,-5.1383,-5.1396,-5.1271,-5.0848,-5.1094,-5.1277,-5.0828,-5.0777,-5.08,-5.0801,-5.076,-5.0601,-5.021,-4.9408,-4.8703,-4.8294,-4.7862,-4.7585,-4.7542,-4.7574,-4.7409,-4.6947,-4.6506,-4.5852,-4.4967,-4.3718,-4.2783,-4.2325,-4.1462,-4.098,-4.0907,-4.0872,-4.0829,-4.0794,-4.0764,-4.0707,-4.0598,-4.058,-4.0527,0.0,0.0,0.0,0.0,0.0,-2.0128,0.0,0.0,0.0,-2.1107,0.0,0.0,0.0,0.0,0.0,0.0,0.0,0.0,0.0,0.0,0.0,0.0,0.0,0.0,-2.9868,-3.039,-3.1191,-3.2583,-3.3662,-3.4266,-3.4264,-3.508,-3.5865,-3.6589,-3.6763,-3.7277,-3.8148,-3.8848,-4.0151,-4.2034,-4.2758,-4.4066,-4.5855,-4.592,-4.6029,-4.6209,-4.6181,-4.615,-4.6122,-4.6117,-4.5682,-4.488,-4.3127,-4.2442,-4.2345,-4.1471,-4.114,-4.116,-4.1335,-4.1179,-4.0927,-4.1102,-4.1737,-4.2606,-4.3486,-4.4883,-4.6216,-4.638,-4.7564,-4.8826,-4.9,-5.0157,-5.131,-5.1366,-5.138,-5.1372,-5.1396,-5.1394,-5.1405,-5.1407,-5.1393,-5.1398,-5.1403,-5.1406,-5.1171,-5.0527,-5.0252,-4.9878,-4.9235,-4.9,-4.8879,-4.8835,-4.8852,-4.8512,-4.76,-4.6911,-4.6006,-4.4746,-4.3407,-4.2476,-4.2088,-4.139,-4.0961,-4.0917,-4.0908,-4.0867,-4.0806,-4.08,-4.0732,-4.0621,-4.0617,-4.0558,0.0,0.0,0.0,0.0,-2.161,0.0,0.0,0.0,-2.2108,-2.1436,0.0,0.0,0.0,0.0,0.0,0.0,0.0,0.0,0.0,0.0,0.0,0.0,0.0,0.0,0.0,-2.9725,-3.0679,-3.0885,-3.2411,-3.3367,-3.3429,-3.4206,-3.4696,-3.4797,-3.555,-3.6366,-3.7245,-3.7342,-3.8624,-4.1053,-4.1211,-4.2585,-4.4953,-4.4961,-4.541,-4.6205,-4.613,-4.613,-4.6181,-4.6126,-4.6041,-4.5779,-4.4025,-4.3355,-4.3258,-4.2364,-4.2058,-4.2155,-4.2947,-4.2189,-4.1024,-4.1806,-4.2636,-4.3515,-4.4399,-4.5342,-4.6274,-4.7053,-4.7961,-4.8885,-4.9664,-5.0583,-5.1308,-5.131,-5.1317,-5.1327,-5.1394,-5.1401,-5.1406,-5.1394,-5.1405,-5.1393,-5.1398,-5.14,-5.1362,-5.1284,-5.0642,-5.0155,-5.0058,-4.9375,-4.8904,-4.8884,-4.8838,-4.8478,-4.7658,-4.7448,-4.634,-4.3999,-4.3656,-4.2863,-4.1307,-4.1085,-4.1007,-4.0982,-4.0936,-4.0878,-4.0801,-4.0792,-4.0764,-4.0694,-4.0621,-4.0598,0.0,0.0,0.0,0.0,0.0,0.0,-2.1969,0.0,-2.1836,0.0,0.0,0.0,0.0,0.0,0.0,0.0,-2.084,0.0,0.0,0.0,0.0,0.0,0.0,0.0,-2.7133,-2.8396,-2.9113,-2.914,-3.0731,-3.1717,-3.1797,-3.306,-3.4012,-3.4482,-3.4847,-3.5469,-3.6339,-3.6339,-3.7392,-3.9451,-3.9989,-4.1314,-4.3335,-4.4349,-4.5012,-4.541,-4.5932,-4.617,-4.6209,-4.6177,-4.6141,-4.5983,-4.4744,-4.4254,-4.4151,-4.3277,-4.2947,-4.3005,-4.3374,-4.3025,-4.2558,-4.3433,-4.3957,-4.4404,-4.5235,-4.5775,-4.628,-4.715,-4.8033,-4.8896,-4.9761,-5.065,-5.13,-5.1292,-5.1303,-5.1317,-5.133,-5.138,-5.1405,-5.1391,-5.1399,-5.1403,-5.1408,-5.1408,-5.1398,-5.1398,-5.1107,-5.0894,-5.0894,-5.0585,-5.0156,-4.9648,-4.9606,-4.9074,-4.7704,-4.7113,-4.6131,-4.4545,-4.3517,-4.239,-4.1145,-4.1039,-4.0993,-4.0999,-4.0975,-4.0931,-4.0854,-4.0812,-4.0781,-4.0758,-4.0648,-4.0605,-2.5479,0.0,0.0,0.0,0.0,0.0,0.0,0.0,0.0,0.0,0.0,0.0,0.0,0.0,0.0,0.0,0.0,-1.91,0.0,0.0,0.0,0.0,0.0,0.0,0.0,-2.7048,-2.771,-2.7778,-2.9101,-3.0044,-3.0321,-3.1778,-3.2963,-3.3798,-3.4268,-3.4808,-3.5449,-3.5678,-3.6556,-3.8056,-3.8926,-4.0228,-4.1883,-4.3402,-4.4221,-4.4522,-4.5434,-4.5834,-4.5866,-4.6099,-4.6166,-4.6067,-4.5417,-4.5021,-4.4725,-4.4084,-4.3714,-4.3535,-4.3763,-4.3704,-4.3641,-4.452,-4.4792,-4.4948,-4.5769,-4.6032,-4.6304,-4.7442,-4.8214,-4.8965,-5.0068,-5.0821,-5.13,-5.13,-5.1292,-5.1307,-5.1291,-5.134,-5.1388,-5.1394,-5.1394,-5.1394,-5.1394,-5.139,-5.1391,-5.1391,-5.1394,-5.1396,-5.1396,-5.1401,-5.115,-5.0527,-5.0293,-4.9568,-4.808,-4.7161,-4.6182,-4.5065,-4.3354,-4.211,-4.1476,-4.1178,-4.1019,-4.099,-4.1007,-4.0967,-4.0907,-4.0844,-4.0815,-4.0794,-4.0688,-4.0626,0.0,0.0,0.0,-2.5748,0.0,0.0,0.0,0.0,-2.3079,0.0,0.0,0.0,0.0,0.0,-1.9677,-1.8954,-1.8937,0.0,0.0,0.0,0.0,0.0,0.0,0.0,0.0,-2.5822,-2.6864,-2.6922,-2.7702,-2.8557,-2.9408,-3.0282,-3.1176,-3.2046,-3.3643,-3.4521,-3.454,-3.5391,-3.6241,-3.7159,-3.8037,-3.9319,-4.0966,-4.1863,-4.2784,-4.3685,-4.4561,-4.4935,-4.5011,-4.5845,-4.6204,-4.6185,-4.6087,-4.5535,-4.4793,-4.4773,-4.4229,-4.3622,-4.4472,-4.421,-4.3641,-4.452,-4.4792,-4.4948,-4.5769,-4.6002,-4.6362,-4.8166,-4.8686,-4.9108,-5.0801,-5.1281,-5.13,-5.13,-5.13,-5.1308,-5.1307,-5.1294,-5.1317,-5.1391,-5.1394,-5.1394,-5.1394,-5.1408,-5.1401,-5.1401,-5.1398,-5.1409,-5.1409,-5.1395,-5.1381,-5.1365,-5.0605,-4.9765,-4.8924,-4.8061,-4.6828,-4.5109,-4.3363,-4.2398,-4.2358,-4.1556,-4.1061,-4.099,-4.0997,-4.0976,-4.0907,-4.0898,-4.0856,-4.0794,-4.0726,-4.0661,0.0,0.0,-2.6322,-2.6718,0.0,0.0,0.0,0.0,0.0,0.0,0.0,0.0,0.0,0.0,-1.9635,-1.8798,-1.8303,-1.7926,0.0,-1.7975,-1.8837,0.0,0.0,0.0,0.0,0.0,0.0,-2.5955,-2.6259,-2.6786,-2.7699,-2.9078,-3.0243,-3.1118,-3.2244,-3.3371,-3.4482,-3.4789,-3.5371,-3.6241,-3.712,-3.8138,-3.9298,-4.0745,-4.189,-4.2786,-4.365,-4.4339,-4.4853,-4.5145,-4.5609,-4.6067,-4.5475,-4.5058,-4.4854,-4.5405,-4.471,-4.3617,-4.4506,-4.4617,-4.4501,-4.5336,-4.5594,-4.5633,-4.5924,-4.6002,-4.6371,-4.8141,-4.8623,-4.9032,-5.0778,-5.1225,-5.1234,-5.1234,-5.1234,-5.1239,-5.1228,-5.1261,-5.1316,-5.132,-5.1331,-5.1339,-5.1339,-5.1336,-5.1358,-5.1396,-5.1406,-5.1392,-5.14,-5.1408,-5.1179,-5.0596,-5.0287,-4.9763,-4.8962,-4.8105,-4.7108,-4.5935,-4.4777,-4.3601,-4.2444,-4.2121,-4.1675,-4.1081,-4.1016,-4.0983,-4.0971,-4.0912,-4.0868,-4.079,-4.0788,-4.0733,-2.9351,-2.853,0.0,-2.7639,-2.6947,0.0,-2.6449,0.0,0.0,0.0,0.0,0.0,0.0,0.0,-1.9554,-1.873,-1.7733,-1.6994,0.0,-1.75,-1.8392,0.0,0.0,0.0,0.0,0.0,-2.3738,-2.4612,-2.5208,-2.5793,0.0,-2.8029,-2.935,-3.0205,-3.1386,-3.2668,-3.4051,-3.4365,-3.4944,-3.5814,-3.7003,-3.7866,-3.8466,-4.0205,-4.1306,-4.1883,-4.2762,-4.3428,-4.3953,-4.4556,-4.5121,-4.5607,-4.5365,-4.5077,-4.4863,-4.5391,-4.49,-4.4035,-4.4617,-4.4792,-4.4928,-4.5749,-4.6002,-4.6002,-4.6002,-4.6002,-4.6293,-4.7761,-4.8374,-4.8934,-5.0388,-5.0987,-5.1211,-5.1211,-5.1211,-5.1211,-5.1211,-5.1249,-5.131,-5.131,-5.1308,-5.13,-5.13,-5.1292,-5.1314,-5.1361,-5.1372,-5.1401,-5.1408,-5.1398,-5.1171,-5.0627,-5.028,-4.9775,-4.8976,-4.8395,-4.7812,-4.7265,-4.6112,-4.4821,-4.3374,-4.2721,-4.1984,-4.1129,-4.1059,-4.1026,-4.0995,-4.0967,-4.0903,-4.0839,-4.0846,-4.0794]},{"header":{"parameterUnit":"m.s-1","parameterCategory":1,"la1":30.6,"la2":29.2853,"lo1":-89.7004,"lo2":-87.6739,"dy":0.0162,"dx":0.0183,"nx":112,"ny":82,"refTime":"2023-07-01T18:00:00:Z","depth":0,"parameterNumber":3,"parameterNumberName":"V-component_of_WINDS"},"data":[0.0,0.0,0.0,0.0,0.0,0.0,0.0,0.0,0.0,0.0,0.0,0.0,0.0,0.0,0.0,0.0,0.0,0.0,0.0,0.0,0.0,0.0,0.0,0.0,0.0,0.0,0.0,0.0,0.0,0.0,0.0,0.0,0.0,0.0,0.0,0.0,0.0,0.0,0.0,0.0,0.0,0.0,0.0,0.0,0.0,0.0,0.0,0.0,0.0,0.0,0.0,0.0,0.0,0.0,0.0,0.0,0.0,0.0,0.0,0.0,0.0,0.0,0.0,0.0,0.0,0.0,0.0,0.0,0.0,0.0,0.0,0.0,0.0,0.0,0.0,0.0,0.0,0.0,0.0,0.0,0.0,0.0,0.0,0.0,0.0,0.0,0.0,0.0,0.0,0.0,0.0,-0.8245,-0.7259,-0.6562,-0.6562,-0.6089,-0.646,-0.8047,0.0,0.0,0.0,0.0,0.0,0.0,0.0,0.0,0.0,0.0,0.0,0.0,0.0,0.0,0.0,0.0,0.0,0.0,0.0,0.0,0.0,0.0,0.0,0.0,0.0,0.0,0.0,0.0,0.0,0.0,0.0,0.0,0.0,0.0,0.0,0.0,0.0,0.0,0.0,0.0,0.0,0.0,0.0,0.0,0.0,0.0,0.0,0.0,0.0,0.0,0.0,0.0,0.0,0.0,0.0,0.0,0.0,0.0,0.0,0.0,0.0,0.0,0.0,0.0,0.0,0.0,0.0,0.0,0.0,0.0,0.0,0.0,0.0,0.0,0.0,0.0,0.0,0.0,0.0,0.0,0.0,0.0,0.0,0.0,0.0,0.0,0.0,0.0,0.0,0.0,0.0,0.0,0.0,0.0,0.0,0.0,0.0,0.0,0.0,0.0,0.0,0.0,0.0,0.0,-0.8432,-0.7342,-0.7042,-0.6901,-0.6851,-0.6402,-0.6899,-0.8744,0.0,0.0,0.0,0.0,0.0,0.0,0.0,0.0,0.0,0.0,0.0,0.0,0.0,0.0,0.0,0.0,0.0,0.0,0.0,0.0,0.0,0.0,0.0,0.0,0.0,0.0,0.0,0.0,0.0,0.0,0.0,0.0,0.0,0.0,0.0,0.0,0.0,0.0,0.0,0.0,0.0,0.0,0.0,0.0,0.0,0.0,0.0,0.0,0.0,0.0,0.0,0.0,0.0,0.0,0.0,0.0,0.0,0.0,0.0,0.0,0.0,0.0,0.0,0.0,0.0,0.0,0.0,0.0,0.0,0.0,0.0,0.0,0.0,0.0,0.0,0.0,0.0,0.0,0.0,0.0,0.0,0.0,0.0,0.0,0.0,0.0,0.0,0.0,0.0,0.0,0.0,0.0,0.0,0.0,0.0,0.0,0.0,0.0,0.0,0.0,0.0,0.0,0.0,-0.9336,-0.8948,-0.7377,-0.7223,-0.7202,-0.7167,-0.6675,-0.7156,-0.9044,-0.7681,0.0,0.0,0.0,0.0,0.0,0.0,0.0,0.0,0.0,0.0,0.0,0.0,0.0,0.0,0.0,0.0,0.0,0.0,0.0,0.0,0.0,0.0,0.0,0.0,0.0,0.0,0.0,0.0,0.0,0.0,0.0,0.0,0.0,0.0,0.0,0.0,0.0,0.0,0.0,0.0,0.0,0.0,0.0,0.0,0.0,0.0,0.0,0.0,0.0,0.0,0.0,0.0,0.0,0.0,0.0,0.0,0.0,0.0,0.0,0.0,0.0,0.0,0.0,0.0,0.0,0.0,0.0,0.0,0.0,0.0,0.0,0.0,0.0,0.0,0.0,0.0,0.0,0.0,0.0,0.0,0.0,0.0,0.0,0.0,0.0,0.0,0.0,0.0,0.0,0.0,0.0,0.0,0.0,0.0,0.0,0.0,0.0,0.0,0.0,0.0,0.0,0.0,-0.9289,-0.8774,-0.7587,-0.7433,-0.7433,-0.7461,-0.6881,-0.7354,-0.9318,-0.7869,0.0,0.0,0.0,0.0,0.0,0.0,0.0,0.0,0.0,0.0,0.0,0.0,0.0,0.0,0.0,0.0,0.0,0.0,0.0,0.0,0.0,0.0,0.0,0.0,0.0,0.0,0.0,0.0,0.0,0.0,0.0,0.0,0.0,0.0,0.0,0.0,0.0,0.0,0.0,0.0,0.0,0.0,0.0,0.0,0.0,0.0,0.0,0.0,0.0,0.0,0.0,0.0,0.0,0.0,0.0,0.0,0.0,0.0,0.0,0.0,0.0,0.0,0.0,0.0,0.0,0.0,0.0,0.0,0.0,0.0,0.0,0.0,0.0,0.0,0.0,0.0,0.0,0.0,0.0,0.0,0.0,0.0,0.0,0.0,0.0,0.0,0.0,0.0,0.0,0.0,0.0,0.0,0.0,0.0,0.0,0.0,0.0,0.0,0.0,0.0,0.0,0.0,-0.8041,-0.7118,-0.7632,-0.7572,-0.7551,-0.767,-0.7008,-0.7535,-0.9728,-0.8119,0.0,0.0,0.0,0.0,0.0,0.0,0.0,0.0,0.0,0.0,0.0,0.0,0.0,0.0,0.0,0.0,0.0,0.0,0.0,0.0,0.0,0.0,0.0,0.0,0.0,0.0,0.0,0.0,0.0,0.0,0.0,0.0,0.0,0.0,0.0,0.0,0.0,0.0,0.0,0.0,0.0,0.0,0.0,0.0,0.0,0.0,0.0,0.0,0.0,0.0,0.0,0.0,0.0,0.0,0.0,0.0,0.0,0.0,0.0,0.0,0.0,0.0,0.0,0.0,0.0,0.0,0.0,0.0,0.0,0.0,0.0,0.0,0.0,0.0,0.0,0.0,0.0,0.0,0.0,0.0,0.0,0.0,0.0,0.0,0.0,0.0,0.0,0.0,0.0,0.0,0.0,0.0,0.0,0.0,0.0,0.0,0.0,0.0,0.0,0.0,0.0,0.0,-0.877,-0.8085,0.0,-0.7723,-0.7835,-0.7884,-0.7246,-0.7757,-0.9886,0.0,0.0,0.0,0.0,0.0,0.0,0.0,0.0,0.0,0.0,0.0,0.0,0.0,0.0,0.0,0.0,0.0,0.0,0.0,0.0,0.0,0.0,0.0,0.0,0.0,0.0,0.0,0.0,0.0,0.0,0.0,0.0,0.0,0.0,0.0,0.0,0.0,0.0,0.0,0.0,0.0,0.0,0.0,0.0,0.0,0.0,0.0,0.0,0.0,0.0,0.0,0.0,0.0,0.0,0.0,0.0,0.0,0.0,0.0,0.0,0.0,0.0,0.0,0.0,0.0,0.0,0.0,0.0,0.0,0.0,0.0,0.0,0.0,0.0,0.0,0.0,0.0,0.0,0.0,0.0,0.0,0.0,0.0,0.0,0.0,0.0,0.0,0.0,0.0,0.0,0.0,0.0,0.0,0.0,0.0,0.0,0.0,0.0,0.0,0.0,0.0,0.0,-0.9542,-0.8945,-0.8318,0.0,-0.7817,-0.7979,-0.8,-0.7322,-0.7815,-0.9976,0.0,0.0,0.0,0.0,0.0,0.0,0.0,0.0,0.0,0.0,0.0,0.0,0.0,0.0,0.0,0.0,0.0,0.0,0.0,0.0,0.0,0.0,0.0,0.0,0.0,0.0,0.0,0.0,0.0,0.0,0.0,0.0,0.0,0.0,0.0,0.0,0.0,0.0,0.0,0.0,0.0,0.0,0.0,0.0,0.0,0.0,0.0,0.0,0.0,0.0,0.0,0.0,0.0,0.0,0.0,0.0,0.0,0.0,0.0,0.0,0.0,0.0,0.0,0.0,0.0,0.0,0.0,0.0,0.0,0.0,0.0,0.0,0.0,0.0,0.0,0.0,0.0,0.0,0.0,0.0,0.0,0.0,0.0,0.0,0.0,0.0,0.0,0.0,0.0,0.0,0.0,0.0,0.0,0.0,0.0,0.0,0.0,0.0,0.0,0.0,0.0,0.0,-0.9655,-0.8245,-0.7324,-0.7656,-0.7817,-0.7933,-0.8,-0.72,-0.7679,0.0,0.0,0.0,0.0,0.0,0.0,0.0,0.0,0.0,0.0,0.0,0.0,0.0,0.0,0.0,0.0,0.0,0.0,0.0,0.0,0.0,0.0,0.0,0.0,0.0,0.0,0.0,0.0,0.0,0.0,0.0,0.0,0.0,0.0,0.0,0.0,0.0,0.0,0.0,0.0,0.0,0.0,0.0,0.0,0.0,0.0,0.0,0.0,0.0,0.0,0.0,0.0,0.0,0.0,0.0,0.0,0.0,0.0,0.0,0.0,0.0,0.0,0.0,0.0,0.0,0.0,0.0,0.0,0.0,0.0,0.0,0.0,0.0,0.0,0.0,0.0,0.0,0.0,0.0,0.0,0.0,0.0,0.0,0.0,0.0,0.0,0.0,0.0,0.0,0.0,0.0,0.0,0.0,0.0,0.0,0.0,0.0,0.0,0.0,0.0,0.0,0.0,0.0,-0.979,-0.8326,-0.7312,-0.7397,-0.7909,-0.8229,-0.8147,-0.7475,-0.797,-1.011,0.0,0.0,0.0,0.0,0.0,0.0,0.0,0.0,0.0,0.0,0.0,0.0,0.0,0.0,0.0,0.0,0.0,0.0,0.0,0.0,0.0,0.0,0.0,0.0,0.0,0.0,0.0,0.0,0.0,0.0,0.0,0.0,0.0,0.0,0.0,0.0,0.0,0.0,0.0,0.0,0.0,0.0,0.0,0.0,0.0,0.0,0.0,0.0,0.0,0.0,0.0,0.0,0.0,0.0,0.0,0.0,0.0,0.0,0.0,0.0,0.0,0.0,0.0,0.0,0.0,0.0,0.0,0.0,0.0,0.0,0.0,0.0,0.0,0.0,0.0,0.0,0.0,0.0,0.0,0.0,0.0,0.0,0.0,0.0,0.0,0.0,0.0,0.0,0.0,0.0,0.0,0.0,0.0,0.0,0.0,0.0,0.0,0.0,0.0,0.0,0.0,0.0,-0.9889,-0.8424,-0.7344,-0.7344,-0.7925,-0.8299,-0.8216,-0.754,-0.7839,-0.9507,0.0,0.0,0.0,0.0,0.0,0.0,0.0,0.0,0.0,0.0,0.0,0.0,0.0,0.0,0.0,0.0,0.0,0.0,0.0,0.0,0.0,0.0,0.0,0.0,0.0,0.0,0.0,0.0,0.0,0.0,0.0,0.0,0.0,0.0,0.0,0.0,0.0,0.0,0.0,0.0,0.0,0.0,0.0,0.0,0.0,0.0,0.0,0.0,0.0,0.0,0.0,0.0,0.0,0.0,0.0,0.0,0.0,0.0,0.0,0.0,0.0,0.0,0.0,0.0,0.0,0.0,0.0,0.0,0.0,0.0,0.0,0.0,0.0,0.0,0.0,0.0,0.0,0.0,0.0,0.0,0.0,0.0,0.0,0.0,0.0,0.0,0.0,0.0,0.0,0.0,0.0,0.0,0.0,0.0,0.0,0.0,0.0,0.0,0.0,0.0,0.0,0.0,-1.0067,-0.8568,-0.7472,-0.7454,-0.7917,-0.8216,-0.8196,-0.7494,-0.7508,-0.8557,0.0,0.0,0.0,0.0,0.0,0.0,0.0,0.0,0.0,0.0,0.0,0.0,0.0,0.0,0.0,0.0,0.0,0.0,0.0,0.0,0.0,0.0,0.0,0.0,0.0,0.0,0.0,0.0,0.0,0.0,0.0,0.0,0.0,0.0,0.0,0.0,0.0,0.0,0.0,0.0,0.0,0.0,0.0,0.0,0.0,0.0,0.0,0.0,0.0,0.0,0.0,0.0,0.0,0.0,0.0,0.0,0.0,0.0,0.0,0.0,-0.4151,0.0,0.0,0.0,0.0,0.0,0.0,0.0,0.0,0.0,0.0,0.0,0.0,0.0,0.0,0.0,0.0,0.0,0.0,0.0,0.0,0.0,0.0,0.0,0.0,0.0,0.0,0.0,0.0,0.0,0.0,0.0,0.0,0.0,0.0,0.0,0.0,0.0,0.0,0.0,0.0,0.0,-1.0884,-0.9237,-0.7983,-0.7892,-0.8202,-0.8365,-0.8216,-0.7807,-0.7901,-0.8707,-0.8616,0.0,0.0,0.0,0.0,0.0,0.0,0.0,0.0,0.0,0.0,0.0,0.0,0.0,0.0,0.0,0.0,0.0,0.0,0.0,0.0,0.0,0.0,0.0,0.0,0.0,0.0,0.0,0.0,0.0,0.0,0.0,0.0,0.0,0.0,0.0,0.0,0.0,0.0,0.0,0.0,0.0,0.0,0.0,0.0,0.0,0.0,0.0,0.0,0.0,0.0,0.0,0.0,0.0,0.0,0.0,0.0,0.0,0.0,0.0,0.0,-0.4832,0.0,0.0,0.0,0.0,0.0,0.0,0.0,0.0,0.0,0.0,0.0,0.0,0.0,0.0,0.0,0.0,0.0,0.0,0.0,0.0,0.0,0.0,0.0,0.0,0.0,0.0,0.0,0.0,0.0,0.0,0.0,0.0,0.0,0.0,0.0,0.0,0.0,0.0,0.0,0.0,-1.1467,-0.9616,-0.8231,-0.8158,-0.8421,-0.8561,-0.8447,-0.8079,-0.7945,-0.8161,-0.8288,0.0,0.0,0.0,0.0,0.0,0.0,0.0,0.0,0.0,0.0,0.0,0.0,0.0,0.0,0.0,0.0,0.0,0.0,0.0,0.0,0.0,0.0,0.0,0.0,0.0,0.0,0.0,0.0,0.0,0.0,0.0,0.0,0.0,0.0,0.0,0.0,0.0,0.0,0.0,0.0,0.0,0.0,0.0,0.0,0.0,0.0,0.0,0.0,0.0,0.0,0.0,0.0,0.0,-0.4924,-0.5042,-0.5052,-0.5385,-0.5072,-0.4322,-0.4368,-0.4214,-0.4089,-0.6085,0.0,0.0,0.0,0.0,0.0,0.0,0.0,0.0,0.0,0.0,0.0,0.0,0.0,0.0,0.0,0.0,0.0,0.0,0.0,0.0,0.0,0.0,0.0,0.0,-0.9207,-0.9096,-0.9485,0.0,0.0,0.0,0.0,0.0,0.0,0.0,0.0,0.0,0.0,0.0,-1.1621,-0.9805,-0.8512,-0.8492,-0.8681,-0.8795,-0.8783,-0.8345,-0.791,-0.7571,-0.7971,-0.8173,0.0,0.0,0.0,0.0,0.0,0.0,0.0,0.0,0.0,0.0,0.0,0.0,0.0,0.0,0.0,0.0,0.0,0.0,0.0,0.0,0.0,0.0,0.0,0.0,0.0,0.0,0.0,0.0,0.0,0.0,0.0,0.0,-0.0953,-0.1255,0.0,0.0,0.0,0.0,0.0,0.0,0.0,0.0,0.0,0.0,0.0,0.0,0.0,-0.4644,-0.4905,-0.4362,-0.4254,-0.4499,-0.3603,-0.3309,-0.3565,-0.3643,-0.3774,-0.3954,-0.3975,0.0,-0.4949,-0.5254,0.0,0.0,0.0,0.0,0.0,0.0,0.0,0.0,0.0,0.0,0.0,0.0,0.0,0.0,0.0,0.0,0.0,0.0,0.0,0.0,0.0,0.0,-0.8577,-0.8967,-0.9035,-0.9081,0.0,-1.0166,-1.091,-1.1129,-1.1269,0.0,0.0,0.0,0.0,0.0,0.0,0.0,-1.0736,-0.9911,-0.938,-0.9279,-0.9244,-0.917,-0.9063,-0.8612,-0.8171,-0.7785,-0.757,-0.7721,-0.8329,-0.8226,0.0,0.0,0.0,0.0,0.0,0.0,0.0,0.0,0.0,0.0,0.0,0.0,0.0,0.0,0.0,0.0,0.0,0.0,0.0,0.0,0.0,0.0,0.0,0.0,0.0,0.0,0.0,0.0,0.0,-0.2594,-0.2735,-0.3277,-0.36,-0.4032,0.0,0.0,0.0,0.0,0.0,0.0,0.0,0.0,0.0,-0.3617,-0.3998,-0.4084,-0.3816,-0.3589,-0.3653,-0.3921,-0.3597,-0.3528,-0.375,-0.3894,-0.4113,-0.4369,-0.4512,-0.4734,-0.5019,-0.56,-0.6495,-0.7605,0.0,0.0,0.0,0.0,-0.8592,-0.8868,-0.7525,-0.7304,0.0,-0.8567,0.0,0.0,0.0,0.0,0.0,0.0,0.0,0.0,0.0,0.0,-0.931,-0.9326,-0.9374,-0.9438,-0.9644,-1.0038,-1.0484,0.0,-1.157,-1.2443,-1.3437,0.0,0.0,0.0,0.0,-1.1675,-1.1137,-1.0308,-0.9742,-0.9689,-0.9578,-0.9415,-0.9166,-0.8926,-0.8532,-0.7961,-0.7776,-0.7674,-0.7615,-0.8191,-0.8721,0.0,0.0,0.0,0.0,0.0,0.0,0.0,0.0,0.0,0.0,0.0,0.0,0.0,0.0,0.0,0.0,0.0,0.0,0.0,0.0,0.0,0.0,0.0,0.0,0.0,0.0,0.0,0.0,-0.3375,-0.3572,-0.4689,-0.4137,-0.4202,0.0,0.0,0.0,0.0,0.0,0.0,-0.3877,-0.4267,-0.4124,-0.3346,-0.3708,-0.3591,-0.2998,-0.3151,-0.3413,-0.3748,-0.3951,-0.415,-0.4351,-0.4545,-0.4743,-0.4904,-0.5142,-0.5234,-0.5225,-0.5887,-0.6322,-0.6683,-0.7913,-0.855,-0.8782,-0.8512,-0.8616,-0.8754,-0.7533,-0.7255,-0.7532,-0.8043,-0.8426,-0.8832,-0.9504,0.0,0.0,0.0,0.0,-1.0352,-0.9802,-0.977,-0.9835,-0.9652,-0.9763,-0.9967,-1.01,-1.0509,-1.0787,0.0,-1.1226,-1.2288,-1.3513,0.0,0.0,0.0,0.0,-1.1578,-1.1259,-1.0571,-1.0098,-1.0098,-0.9983,-0.9798,-0.9548,-0.93,-0.8921,-0.8373,-0.8149,-0.7833,-0.7327,-0.8078,-0.8388,-0.8185,0.0,0.0,0.0,0.0,0.0,0.0,0.0,0.0,0.0,0.0,0.0,0.0,0.0,0.0,0.0,0.0,0.0,0.0,0.0,0.0,0.0,0.0,0.0,0.0,0.0,0.0,0.0,0.0,0.0,-0.4078,-0.2625,0.0,0.0,0.0,0.0,-0.4378,-0.4404,-0.4105,-0.3391,-0.39,-0.3713,-0.2591,-0.3069,-0.3427,-0.3555,-0.3637,-0.3889,-0.4349,-0.4349,-0.4599,-0.5056,-0.5056,-0.5181,-0.5394,-0.5563,-0.5761,-0.5911,-0.565,-0.6145,-0.7103,-0.7376,-0.8462,-0.9744,-0.8359,-0.8108,-0.8234,-0.6832,-0.6518,-0.6966,-0.8311,-0.9614,-1.0435,-0.9213,-0.9933,0.0,0.0,-1.0008,-1.0199,-0.9286,-0.9138,-0.9313,-0.954,-1.0091,-1.0601,-1.0724,-1.2224,-1.2732,0.0,-0.9724,-1.0211,-1.1679,0.0,-1.1891,-1.2104,-1.2058,-1.1528,-1.0326,-1.0448,-1.067,-1.067,-1.0533,-1.046,-1.0443,-0.9723,-0.9271,-0.9238,-0.8583,-0.8174,-0.8133,-0.7653,-0.7877,-0.8922,-0.8876,0.0,0.0,0.0,0.0,0.0,0.0,0.0,0.0,0.0,0.0,0.0,0.0,0.0,0.0,0.0,0.0,0.0,0.0,0.0,0.0,0.0,0.0,0.0,0.0,0.0,0.0,0.0,0.0,-0.4572,-0.3282,0.0,-0.4711,-0.4257,-0.3912,-0.4059,-0.3737,-0.3424,-0.3123,-0.342,-0.3514,-0.328,-0.3458,-0.3678,-0.3988,-0.4206,-0.4456,-0.4652,-0.507,-0.5327,-0.5503,-0.5565,-0.5667,-0.5753,-0.6025,-0.6108,-0.6025,-0.6291,-0.662,-0.6894,-0.6738,-0.716,-0.7808,-0.7226,-0.7194,-0.7389,-0.6968,-0.7145,-0.7639,-0.8315,-0.8897,-0.9219,-0.8751,-0.9157,-0.9721,-0.9428,-0.9532,-0.9734,-0.961,-0.9667,-0.9904,-1.045,-1.081,-1.113,-1.1396,-1.2006,-1.2149,-1.1054,-1.1281,-1.1809,-1.2228,-1.1282,-1.0876,-1.2121,-1.1591,-1.091,-1.0525,-1.0767,-1.0955,-1.0955,-1.0847,-1.0648,-1.0398,-1.0117,-0.9755,-0.9335,-0.9102,-0.8804,-0.84,-0.8239,-0.8263,-0.854,-0.8245,-0.8693,0.0,0.0,0.0,0.0,0.0,0.0,0.0,0.0,0.0,0.0,0.0,0.0,0.0,0.0,0.0,0.0,0.0,0.0,0.0,0.0,0.0,0.0,0.0,0.0,0.0,0.0,-0.302,-0.5272,-0.3714,-0.3164,-0.4981,-0.4248,-0.3682,-0.373,-0.3359,-0.3167,-0.3283,-0.3557,-0.3819,-0.4076,-0.4197,-0.4377,-0.4618,-0.4818,-0.4975,-0.5088,-0.5526,-0.5748,-0.5842,-0.5906,-0.5964,-0.6005,-0.6287,-0.6308,-0.6242,-0.6733,-0.6975,-0.6998,-0.6767,-0.6753,-0.6844,-0.6926,-0.7043,-0.7162,-0.7202,-0.7485,-0.7865,-0.8117,-0.8348,-0.858,-0.861,-0.9005,-0.9395,-0.9392,-0.9618,-0.9858,-1.0,-1.0175,-1.0462,-1.0975,-1.1319,-1.1577,-1.1775,-1.1995,-1.2031,-1.1679,-1.2026,-1.2319,-1.2144,-1.1072,-1.0739,-1.236,-1.1506,-1.0879,-1.141,-1.131,-1.1175,-1.1175,-1.1099,-1.0923,-1.0663,-1.0687,-1.0376,-0.9622,-0.9682,-0.9406,-0.8693,-0.9035,-0.9171,-0.9041,-0.8748,-0.8957,-0.9658,0.0,0.0,0.0,0.0,0.0,0.0,0.0,0.0,0.0,0.0,0.0,0.0,0.0,0.0,0.0,0.0,0.0,0.0,0.0,0.0,0.0,0.0,0.0,-0.3978,-0.335,-0.3634,-0.6,-0.3712,-0.2787,-0.5038,-0.3922,-0.3164,-0.3397,-0.3451,-0.3617,-0.3917,-0.4263,-0.4574,-0.4892,-0.5228,-0.5377,-0.5377,-0.5426,-0.5521,-0.5705,-0.5711,-0.5855,-0.6097,-0.6092,-0.6092,-0.6139,-0.6317,-0.6479,-0.6642,-0.6877,-0.7205,-0.7482,-0.7414,-0.7267,-0.7179,-0.7557,-0.7715,-0.7698,-0.7498,-0.7486,-0.7575,-0.7779,-0.8226,-0.873,-0.8873,-0.9512,-1.0106,-0.9885,-1.023,-1.0633,-1.0386,-1.0575,-1.0859,-1.1042,-1.1561,-1.1963,-1.1844,-1.234,-1.2593,-1.1947,-1.165,-1.1444,-1.1256,-1.1199,-1.1556,-1.2613,-1.1825,0.0,-1.2797,-1.2,-1.1318,-1.1336,-1.1336,-1.1336,-1.1336,-1.1462,-1.1123,-1.0183,-1.0299,-0.9983,-0.9067,-0.9952,-1.0463,-1.0445,-1.0413,-0.995,-0.9026,0.0,0.0,0.0,0.0,0.0,0.0,0.0,0.0,0.0,0.0,0.0,0.0,0.0,0.0,0.0,0.0,0.0,0.0,0.0,0.0,0.0,0.0,-0.3248,-0.3438,-0.2743,-0.2602,-0.3655,-0.3102,-0.2976,-0.3906,-0.3918,-0.3946,-0.4202,-0.4518,-0.477,-0.4965,-0.5088,-0.5162,-0.5237,-0.5362,-0.5377,-0.5377,-0.5643,-0.5777,-0.5825,-0.61,-0.624,-0.6336,-0.6255,-0.6268,-0.6262,-0.6356,-0.6532,-0.6786,-0.7016,-0.726,-0.7406,-0.737,-0.7417,-0.7545,-0.7641,-0.7914,-0.8191,-0.8153,-0.8196,-0.8294,-0.8367,-0.8565,-0.8798,-0.8914,-0.9236,-0.9636,-0.9993,-1.0211,-1.0381,-1.0568,-1.0896,-1.1229,-1.1177,-1.1685,-1.2157,-1.227,-1.2375,-1.2411,-1.2317,-1.2104,-1.183,-1.1491,-1.1408,-1.1559,-1.1944,-1.174,0.0,-1.195,-1.171,-1.1711,-1.2261,-1.2314,-1.2314,-1.2314,-1.2341,-1.1844,-1.0602,-1.0589,-1.0269,-0.9545,-0.9783,-0.9732,-0.9347,-1.0002,-1.008,0.0,0.0,0.0,0.0,0.0,0.0,0.0,0.0,0.0,0.0,0.0,0.0,0.0,0.0,0.0,0.0,0.0,0.0,0.0,0.0,0.0,0.0,-0.3191,-0.3015,-0.3074,-0.2718,-0.2613,-0.3096,-0.3236,-0.3489,-0.3924,-0.4319,-0.4625,-0.4872,-0.5134,-0.5376,-0.558,-0.5585,-0.5656,-0.5795,-0.5797,-0.5797,-0.5797,-0.6007,-0.6088,-0.609,-0.6305,-0.6387,-0.6384,-0.6369,-0.6388,-0.6536,-0.6554,-0.6735,-0.7066,-0.7209,-0.7362,0.0,0.0,0.0,0.0,0.0,-0.8086,-0.8275,-0.8384,-0.8502,-0.8663,-0.8745,-0.8928,-0.9146,-0.9203,-0.9478,-0.9801,-1.0091,-1.0353,-1.0576,-1.0776,-1.1229,-1.1645,-1.1646,-1.2019,-1.2396,-1.2435,-1.2543,-1.2576,-1.2494,-1.2364,0.0,-1.1956,-1.1762,-1.1794,-1.234,-1.2024,-1.1889,-1.2366,-1.203,-1.1894,-1.2334,-1.2242,-1.2175,-1.2229,-1.2329,0.0,0.0,0.0,-1.0943,-1.0719,-1.0757,0.0,0.0,0.0,-1.0576,-0.9581,-1.0308,0.0,0.0,-1.0039,-1.0612,0.0,0.0,0.0,0.0,0.0,0.0,0.0,0.0,0.0,0.0,0.0,0.0,0.0,0.0,0.0,0.0,-0.2664,-0.2466,-0.2918,-0.3133,-0.3318,-0.361,-0.38,-0.4126,-0.4613,-0.4898,-0.517,-0.5457,-0.5484,-0.5633,-0.5933,0.0,0.0,0.0,0.0,-0.6387,-0.6387,-0.6387,-0.6387,-0.6387,-0.6387,-0.6387,-0.6387,-0.6437,-0.6589,-0.6795,-0.6842,-0.7075,-0.7404,-0.7404,-0.7507,-0.763,-0.7703,-0.7814,-0.795,-0.8245,-0.8277,-0.8198,-0.8365,0.0,0.0,-0.892,-0.9244,-0.9534,-0.9474,-0.9842,-1.0236,-1.0114,-1.0442,-1.0848,-1.0914,-1.1371,-1.1905,-1.2131,-1.2341,-1.2483,-1.2429,-1.2678,-1.2851,-1.2567,-1.248,-1.247,-1.2464,-1.2089,-1.2156,-1.3144,-1.2409,-1.2163,-1.3292,-1.2568,-1.1958,-1.2056,0.0,0.0,-1.1736,-1.1907,-1.1644,-1.0791,-1.1152,-1.1556,-1.1922,-1.2042,-1.1992,-1.1751,-1.1889,-1.1171,-0.9526,-0.9704,-0.9731,-0.9631,-1.1134,-1.1641,0.0,0.0,0.0,0.0,0.0,0.0,0.0,0.0,0.0,0.0,0.0,0.0,0.0,0.0,0.0,-0.3591,-0.3215,-0.2955,-0.3348,-0.3712,-0.3968,-0.393,-0.4033,-0.4363,-0.4953,-0.5157,-0.5425,-0.5942,-0.6083,-0.6184,-0.6297,-0.6302,-0.6313,-0.6387,-0.6387,-0.6387,-0.6387,-0.6387,-0.6387,-0.6387,0.0,0.0,-0.6387,-0.6639,-0.6742,-0.6795,-0.7039,-0.7276,-0.7555,-0.7555,-0.7599,-0.763,-0.7894,-0.8087,-0.8193,-0.8443,-0.8534,-0.8525,-0.8539,-0.8714,-0.8923,-0.8802,-0.8988,-0.9275,-0.9246,-0.9311,0.0,-0.9904,-0.9978,-0.9996,-1.0294,-1.0595,-1.0969,-1.1325,-1.1748,-1.2148,-1.2476,-1.2541,-1.2487,-1.2424,-1.2335,-1.221,-1.2112,-1.2068,-1.2135,-1.2482,-1.2349,-1.2259,-1.2465,-1.2268,-1.238,-1.2965,-1.2961,-1.284,-1.2582,-1.2614,-1.211,-1.0931,-1.0763,-1.0792,-1.0958,-1.0895,-1.0823,-1.0775,-1.1004,-1.1027,-1.0842,-1.0977,-1.1162,-1.1388,-1.0551,-1.0351,0.0,0.0,0.0,0.0,0.0,0.0,0.0,0.0,0.0,0.0,0.0,-0.3367,0.0,0.0,-0.3129,-0.3221,-0.3168,-0.32,-0.3557,-0.393,-0.4157,-0.411,-0.4312,-0.4628,-0.4999,-0.5346,-0.5661,-0.6012,-0.6219,-0.6377,-0.6384,-0.6387,-0.6387,-0.6387,-0.6387,-0.6387,-0.6387,-0.6387,-0.6387,-0.6387,-0.6387,-0.6387,-0.6387,-0.6539,-0.6739,-0.6992,-0.7138,-0.7441,-0.7793,-0.7793,-0.7762,-0.774,-0.7916,-0.7971,-0.795,-0.8261,-0.8433,-0.853,-0.8693,-0.8855,-0.9023,-0.913,-0.9182,-0.9276,-0.938,-0.9364,-0.9357,-0.9671,-0.9765,-0.9804,-1.0037,-1.0299,-1.0575,-1.0845,-1.1272,-1.169,-1.2021,-1.2229,-1.2374,-1.2482,-1.2382,-1.2289,-1.2201,-1.2182,-1.2151,-1.2204,-1.2212,-1.2181,-1.2154,-1.2221,-1.2383,-1.2765,-1.2718,-1.2598,-1.2513,-1.2252,-1.1791,-1.1048,-1.0872,-1.0854,-1.0994,-1.1007,-1.0948,-1.0809,-1.1008,-1.1126,-1.1202,-1.134,-1.1582,-1.187,-1.1204,-1.1119,0.0,0.0,0.0,0.0,0.0,0.0,0.0,0.0,-0.3441,-0.2749,-0.3017,-0.3203,-0.2537,-0.2818,-0.3029,-0.2761,-0.2995,-0.3334,-0.3657,-0.4025,-0.423,-0.4293,-0.4513,-0.4786,-0.504,-0.5391,-0.5705,-0.5927,-0.6189,-0.6337,-0.6337,-0.6387,-0.6387,-0.6387,-0.6387,-0.6398,-0.6422,-0.6422,-0.6433,-0.6457,-0.6433,-0.6422,-0.6422,-0.6448,-0.6739,-0.7138,-0.7238,-0.754,-0.7942,-0.7992,-0.7901,-0.7797,-0.7837,-0.7762,-0.7754,-0.8074,-0.8243,-0.8383,-0.8724,-0.8851,-0.895,-0.9363,-0.9425,-0.9404,-0.9542,-0.9562,-0.9526,-0.9559,-0.9645,-0.9782,-0.9916,-1.0124,-1.038,-1.0567,-1.0958,-1.1306,-1.1543,-1.1919,-1.2224,-1.2452,-1.2437,-1.2359,-1.2339,-1.2297,-1.2186,-1.2098,-1.2094,-1.2134,-1.2096,-1.2182,-1.2274,-1.2274,-1.2116,-1.2061,-1.2108,-1.1634,-1.1265,-1.1123,-1.1082,-1.1124,-1.1251,-1.1418,-1.1404,-1.1226,-1.1337,-1.1434,-1.1448,-1.1567,-1.1791,-1.214,-1.225,-1.2398,-0.3221,-0.335,-0.3072,-0.2921,-0.2934,-0.2615,0.0,0.0,-0.2171,-0.1679,-0.1766,-0.1994,-0.2114,-0.2356,-0.2572,-0.2762,-0.3067,-0.341,-0.3742,-0.4121,-0.4436,-0.4518,-0.4592,-0.4766,-0.514,-0.5209,-0.5366,-0.5634,-0.5889,-0.6042,-0.6042,-0.6287,-0.6387,-0.6387,-0.6387,-0.6438,-0.6597,-0.6597,-0.6654,-0.676,-0.6649,-0.6597,-0.6594,-0.6693,-0.6795,-0.6895,-0.7344,-0.7596,-0.7643,-0.7892,-0.7901,-0.7797,-0.7655,-0.7809,-0.8076,-0.8163,-0.8154,-0.8082,-0.8514,-0.8556,-0.8524,-0.8946,-0.9277,-0.9583,-0.96,-0.9581,-0.9615,-0.9729,-0.9648,-0.9572,-0.9706,-0.9881,-1.0143,-1.0587,-1.088,-1.1147,-1.1605,-1.1724,-1.1818,-1.204,-1.2198,-1.228,-1.2153,-1.2262,-1.2276,-1.2047,-1.2146,-1.2234,-1.2135,-1.212,-1.212,-1.212,-1.2089,-1.2035,-1.1866,-1.1364,-1.1086,-1.118,-1.1027,-1.0972,-1.1124,-1.1377,-1.1526,-1.1641,-1.1756,-1.2009,-1.2353,-1.2362,-1.259,-1.2974,-1.304,-1.2815,-0.2245,-0.2628,0.0,0.0,-0.2258,-0.2183,-0.1612,-0.1856,-0.201,-0.1542,-0.1622,-0.1841,-0.2123,-0.2319,-0.2531,0.0,-0.3055,-0.3302,-0.3674,-0.4107,-0.4386,-0.4473,-0.4628,-0.4804,-0.4929,-0.509,-0.524,-0.5338,-0.5639,-0.5789,-0.5789,-0.5887,-0.5937,-0.5937,-0.6154,-0.6315,-0.6365,-0.6586,-0.6752,-0.6801,-0.6679,-0.6619,-0.6616,-0.6595,-0.6642,-0.6845,-0.7191,-0.7444,-0.7596,-0.7743,-0.7806,-0.788,-0.778,-0.782,-0.7983,-0.7994,-0.8025,-0.8024,-0.8313,-0.8412,-0.8436,-0.8724,-0.9111,-0.9454,-0.9586,-0.9621,-0.9671,-0.9982,-0.9935,-0.9761,-0.9952,-0.9921,-0.9946,-1.0225,-1.0468,-1.0785,-1.1185,-1.1408,-1.1595,-1.1781,-1.1892,-1.1964,-1.2028,-1.2227,-1.2264,-1.2074,-1.2162,-1.2171,-1.1946,-1.2093,-1.2184,-1.2112,-1.2096,-1.2012,-1.1814,-1.1584,-1.1483,-1.1478,-1.1239,-1.1167,-1.1367,-1.1311,-1.1377,-1.1578,-1.1728,-1.1952,-1.2283,-1.2431,-1.2686,-1.2988,-1.3089,-1.3037,-0.2244,0.0,0.0,-0.2061,-0.1806,-0.1708,-0.1781,-0.1861,-0.1834,-0.1541,-0.1692,-0.1918,-0.2162,-0.2377,-0.2581,-0.2843,-0.3006,-0.3204,-0.3612,-0.392,-0.4172,-0.4275,-0.4485,-0.4583,-0.4583,-0.4887,-0.509,-0.509,-0.5338,-0.5486,-0.5486,-0.5615,-0.5679,-0.5679,-0.5941,-0.6118,-0.6148,-0.6439,-0.6656,-0.6792,-0.6639,-0.6567,-0.6665,-0.6457,-0.6489,-0.6692,-0.6989,-0.7191,-0.7397,-0.7547,-0.7693,-0.7872,-0.7779,-0.7828,-0.7883,-0.7886,-0.7932,-0.8002,-0.816,-0.8267,-0.8343,-0.855,-0.8844,-0.9185,-0.9512,-0.9589,-0.9678,-1.0065,-1.0115,-1.005,-1.0197,-1.0176,-1.0118,-1.0233,-1.0383,-1.0617,-1.0979,-1.1144,-1.1298,-1.1558,-1.1632,-1.1669,-1.1892,-1.204,-1.2115,-1.2083,-1.2157,-1.2115,-1.1862,-1.2029,-1.2079,-1.1909,-1.1965,-1.1958,-1.1797,-1.1808,-1.177,-1.1735,-1.1475,-1.1437,-1.1627,-1.1493,-1.1455,-1.1583,-1.1761,-1.191,-1.2101,-1.2382,-1.2627,-1.2856,-1.3027,-1.3138,0.0,0.0,-0.2913,-0.2574,-0.1849,-0.1236,-0.1236,-0.1224,-0.1285,-0.1475,-0.1698,-0.1976,-0.2262,-0.2389,-0.257,-0.2791,-0.2902,-0.3125,-0.3438,-0.367,-0.3871,-0.4016,-0.4033,-0.4033,0.0,-0.4483,-0.4834,-0.4834,-0.5037,-0.519,-0.519,-0.5583,-0.5791,-0.5791,-0.5894,-0.5947,-0.6103,-0.6108,-0.6324,-0.6702,-0.6483,-0.6537,-0.6787,-0.6495,-0.6387,-0.6437,-0.6692,-0.6795,-0.6845,-0.7397,-0.7596,-0.7617,-0.7627,-0.7742,-0.7883,-0.7886,-0.7922,-0.792,-0.7994,-0.806,-0.8149,-0.8343,-0.855,-0.8835,-0.9433,-0.958,-0.9625,-0.9871,-1.0104,-1.0303,-1.0298,-1.0565,-1.0882,-1.0871,-1.0897,-1.0929,-1.1161,-1.0995,-1.0925,-1.1335,-1.1409,-1.1484,-1.1669,-1.1706,-1.1774,-1.1953,-1.2168,-1.2209,-1.1929,-1.1869,-1.1686,-1.137,-1.1615,-1.1802,-1.1787,-1.1797,-1.1813,-1.1797,-1.1722,-1.17,-1.1708,-1.2011,-1.2056,-1.1806,-1.2061,-1.2162,-1.2101,-1.2382,-1.2578,-1.27,-1.2978,-1.3109,0.0,0.0,-0.2348,-0.1776,-0.1403,-0.1196,-0.1196,-0.122,-0.132,-0.1513,-0.208,-0.2645,-0.2972,-0.3154,-0.3278,-0.3436,-0.3186,-0.2988,-0.3158,-0.3442,-0.3632,-0.3723,-0.3883,0.0,0.0,0.0,0.0,-0.4537,-0.4786,-0.4964,-0.5078,-0.5212,-0.5311,-0.5321,-0.563,-0.5804,-0.5839,-0.6074,-0.6294,-0.6437,-0.6383,-0.6398,-0.6419,-0.6412,-0.6387,-0.6387,-0.6487,-0.6639,-0.6842,-0.7191,-0.7444,-0.7637,-0.7786,-0.7818,-0.7724,-0.7852,-0.7915,-0.7922,-0.8132,-0.8164,-0.811,-0.8189,-0.8431,-0.8741,-0.8953,-0.9297,-0.9642,-0.9877,-1.0114,-1.0346,-1.045,-1.0616,-1.0739,-1.0873,-1.0818,-1.0802,-1.1118,-1.0893,-1.0715,-1.1162,-1.1125,-1.1111,-1.1446,-1.1484,-1.1558,-1.1781,-1.2022,-1.2187,-1.2235,-1.1863,-1.1609,-1.1632,-1.1527,-1.1553,-1.1771,-1.1797,-1.1882,-1.2126,-1.1895,-1.1853,-1.2018,-1.2048,-1.2061,-1.2073,-1.2337,-1.2493,-1.2573,-1.2838,-1.3058,-1.3235,-1.3513,-1.3633,-0.2664,-0.2265,-0.1997,-0.1382,-0.1251,-0.1228,-0.1228,-0.1282,-0.1335,-0.1454,-0.2177,-0.292,-0.3271,-0.3358,-0.3566,-0.4242,-0.3745,-0.3306,-0.3495,-0.3738,-0.3753,-0.3435,-0.3618,0.0,0.0,0.0,0.0,-0.4278,-0.4429,-0.4669,-0.4858,-0.4894,-0.499,-0.5155,-0.5406,-0.5619,-0.5619,-0.585,-0.5977,-0.6047,-0.6202,-0.6218,-0.621,-0.6242,-0.6287,-0.6387,-0.6387,-0.6487,-0.6692,-0.6939,-0.7191,-0.7487,-0.7684,-0.7714,-0.7637,-0.7766,-0.7811,-0.779,-0.8053,-0.8135,-0.8074,-0.8091,-0.8229,-0.8387,-0.8528,-0.8977,-0.9424,-0.9672,-1.0009,-1.0331,-1.0368,-1.05,-1.0647,-1.0667,-1.0624,-1.0678,-1.102,-1.0864,-1.0761,-1.1127,-1.1057,-1.1027,-1.1274,-1.1365,-1.1446,-1.1558,-1.181,-1.202,-1.209,-1.1882,-1.1692,-1.1608,-1.1532,-1.1527,-1.1622,-1.174,-1.1895,-1.212,-1.2034,-1.206,-1.2232,-1.2259,-1.2282,-1.2312,-1.2566,-1.275,-1.2803,-1.3086,-1.3314,-1.3513,-1.372,-1.3819,-0.2012,-0.1815,-0.1829,-0.1367,-0.1257,-0.1257,-0.1257,-0.1257,-0.1295,-0.1331,-0.2032,-0.2761,0.0,0.0,-0.3463,-0.5075,-0.4407,-0.3889,-0.433,-0.4385,-0.4078,0.0,0.0,0.0,0.0,0.0,0.0,-0.4053,0.0,-0.4288,-0.4682,-0.4762,-0.4916,-0.5196,-0.5281,-0.5382,-0.5382,-0.5382,-0.5445,-0.5571,-0.5848,-0.6063,-0.6166,-0.6047,-0.6139,-0.6387,-0.6387,-0.6387,-0.6437,-0.6692,-0.6942,-0.7176,-0.7345,-0.7446,-0.758,-0.7661,-0.7597,-0.7529,-0.7806,-0.7934,-0.8,-0.8062,-0.7964,-0.7885,-0.8238,-0.8667,-0.9028,-0.9228,-0.9729,-1.0187,-1.0035,-1.0351,-1.062,-1.0357,-1.045,-1.0627,-1.086,-1.0886,-1.0956,-1.1169,-1.1203,-1.1198,-1.1187,-1.131,-1.1391,-1.1372,-1.1558,-1.1685,-1.1602,-1.187,-1.1852,-1.1288,-1.1582,-1.1675,-1.1329,-1.1613,-1.1793,-1.1778,-1.2081,-1.2274,-1.2305,-1.2613,-1.2704,-1.253,-1.2785,-1.2894,-1.2837,-1.3113,-1.3341,-1.3551,-1.3706,-1.377,-0.1543,-0.1226,-0.0935,-0.0824,-0.0786,-0.0786,-0.0786,-0.0904,-0.1127,-0.1533,-0.2422,-0.3358,0.0,0.0,0.0,-0.4349,-0.3346,0.0,-0.2759,-0.2771,0.0,0.0,0.0,-0.2977,-0.318,-0.3336,0.0,0.0,-0.3997,-0.4264,-0.4393,-0.4416,-0.4618,-0.4953,-0.5031,-0.5156,-0.5382,-0.5382,-0.5425,-0.5454,-0.5562,-0.5629,-0.5702,-0.5879,-0.6042,-0.6089,-0.6337,-0.6387,-0.6437,-0.6692,-0.6842,-0.6939,-0.7152,-0.7288,-0.7305,-0.7313,-0.7415,-0.7499,-0.7592,-0.7728,-0.7938,-0.8008,-0.803,-0.8025,-0.7974,-0.823,-0.8586,-0.881,-0.9202,-0.963,-0.9916,-1.018,-1.0398,-1.0339,-1.0361,-1.047,-1.0705,-1.0598,-1.0605,-1.1189,-1.1235,-1.1158,-1.0997,-1.1126,-1.1162,-1.0992,-1.126,-1.1533,-1.1648,-1.1709,-1.1697,-1.165,-1.1683,-1.1631,-1.1455,-1.1654,-1.1752,-1.1668,-1.1809,-1.205,-1.2305,-1.2529,-1.2673,-1.2728,-1.3039,-1.325,-1.3308,-1.365,-1.3893,-1.4116,-1.4654,-1.4745,-0.097,-0.071,-0.0479,-0.0559,-0.0599,-0.0673,-0.092,-0.1065,-0.135,-0.1955,-0.2824,0.0,0.0,0.0,0.0,0.0,0.0,0.0,-0.2774,-0.2823,-0.2775,0.0,-0.2554,0.0,-0.3029,-0.3154,-0.3251,0.0,-0.3752,-0.3962,-0.4142,-0.4147,-0.4329,-0.4704,-0.4706,-0.4873,-0.5156,-0.5326,-0.5382,-0.538,-0.5402,-0.5418,-0.5532,-0.5684,-0.5838,-0.5992,0.0,-0.6289,-0.6437,-0.6539,-0.6692,-0.6795,-0.6942,-0.7064,-0.7117,-0.726,-0.727,-0.7296,-0.7517,-0.7635,-0.7735,-0.79,-0.8012,-0.8034,-0.7859,-0.8093,-0.8417,-0.8418,-0.8796,-0.9245,-0.9489,-0.9771,-1.0005,-1.0001,-1.0154,-1.0349,-1.0506,-1.0554,-1.0742,-1.1202,-1.1283,-1.1194,-1.1094,-1.1055,-1.1016,-1.0865,-1.1002,-1.1186,-1.1298,-1.15,-1.1644,-1.1699,-1.1717,-1.1703,-1.1604,-1.175,-1.1838,-1.1862,-1.2009,-1.2235,-1.25,-1.2765,-1.2988,-1.3156,-1.3402,-1.3678,-1.3985,-1.4181,-1.4408,-1.4657,-1.5038,-1.5136,-0.0362,-0.0244,-0.0284,-0.0488,-0.0528,-0.0677,-0.126,-0.1422,-0.1647,-0.241,0.0,-0.3824,-0.4433,0.0,-0.3647,-0.5028,0.0,-0.3057,-0.3271,-0.3332,-0.3099,-0.2237,-0.2259,-0.2466,-0.2825,-0.2922,-0.3137,-0.3522,-0.3538,-0.3642,-0.3921,-0.3924,-0.4091,-0.4424,-0.4479,-0.4648,-0.4873,-0.5212,-0.5382,-0.538,-0.5288,-0.5306,-0.5426,-0.5435,-0.559,-0.5892,-0.5942,-0.6089,-0.6337,-0.6337,-0.6489,-0.6742,-0.6742,-0.6816,-0.6997,-0.7188,-0.7168,-0.7083,-0.7488,-0.7583,-0.7579,-0.7806,-0.793,-0.7983,-0.7837,-0.8044,-0.8328,-0.8184,-0.8539,-0.8965,-0.8963,-0.9277,-0.9554,-0.9557,-0.9884,-1.0235,-1.0236,-1.0628,-1.1003,-1.1176,-1.1219,-1.1219,-1.1194,-1.1031,-1.0936,-1.0839,-1.081,-1.0816,-1.0743,-1.1298,-1.1648,-1.1592,-1.1738,-1.1797,-1.1682,-1.1826,-1.1977,-1.2112,-1.2349,-1.2552,-1.2762,-1.3065,-1.3341,-1.3549,-1.3692,-1.4024,-1.4535,-1.4568,-1.4756,-1.5074,-1.5151,-1.5248,-0.004,-0.004,-0.0079,-0.0081,-0.012,-0.0234,-0.0738,-0.0984,0.0,0.0,0.0,-0.349,-0.4215,-0.4019,0.0,-0.3553,0.0,0.0,0.0,0.0,-0.1837,0.0,0.0,0.0,0.0,0.0,0.0,0.0,0.0,-0.3632,-0.3643,-0.3643,-0.3811,-0.4092,-0.4369,-0.4648,-0.4873,-0.4931,-0.51,-0.538,-0.5288,-0.5196,-0.5159,-0.5328,-0.5386,-0.534,-0.5586,0.0,-0.6092,-0.6092,-0.6239,-0.6487,-0.6487,-0.6564,-0.6651,-0.67,-0.6939,-0.7179,-0.7269,-0.7533,-0.7816,-0.7701,-0.7758,-0.7901,-0.7873,-0.7988,-0.8123,-0.8451,-0.8573,-0.87,-0.8872,-0.9124,-0.933,-0.9357,-0.9524,-0.9764,-0.9983,-1.0404,-1.0776,-1.0819,-1.0923,-1.091,-1.0521,-1.0912,-1.1024,-1.0417,-1.0659,-1.0802,-1.0585,-1.1074,-1.1465,-1.1452,-1.1747,-1.1886,-1.164,-1.189,-1.1998,-1.1785,-1.2078,-1.2349,-1.2526,-1.2762,-1.3039,-1.3349,-1.3549,-1.3808,-1.4197,-1.4461,-1.4724,-1.4952,-1.5391,-1.544,0.0322,0.0323,0.0321,0.0325,0.0323,0.0117,-0.0679,0.0,0.0,0.0,0.0,-0.3427,-0.3988,0.0,0.0,0.0,0.0,0.0,0.0,0.0,0.0,0.0,0.0,0.0,0.0,0.0,0.0,0.0,0.0,-0.3418,-0.3587,-0.3587,-0.3643,-0.3813,-0.4091,-0.4314,-0.4428,-0.4763,-0.4987,-0.5154,-0.5226,-0.5243,-0.5106,-0.5223,-0.5227,-0.519,-0.5338,-0.5539,-0.5789,-0.5789,-0.5939,-0.6189,-0.6189,-0.6305,-0.65,-0.6651,-0.6766,-0.6939,-0.7228,-0.7418,-0.7556,-0.757,-0.7811,-0.8109,-0.7982,-0.7983,-0.8025,-0.8188,-0.831,-0.8445,-0.8687,-0.8936,-0.9109,-0.9273,-0.9447,-0.9705,-1.0081,-1.0307,-1.0511,-1.0684,-1.0776,-1.0752,-1.0537,-1.0653,-1.0661,-1.0324,-1.0405,-1.0506,-1.0364,-1.07,-1.0999,-1.1223,-1.1521,-1.1729,-1.1814,-1.1946,-1.2067,-1.214,-1.231,-1.2558,-1.2847,-1.3066,-1.3229,-1.3401,-1.3598,-1.3817,-1.3991,-1.4164,-1.4488,-1.4949,-1.5222,-1.5452,0.0563,0.0608,0.0607,0.0609,0.0608,0.0353,-0.0693,-0.0953,0.0,0.0,-0.3003,-0.3288,-0.3704,0.0,0.0,0.0,0.0,0.0,0.0,0.0,0.0,0.0,0.0,0.0,0.0,0.0,0.0,0.0,0.0,0.0,-0.3587,-0.3587,-0.3587,-0.3587,-0.3813,-0.3924,-0.3982,-0.4484,-0.4761,-0.4929,-0.5156,-0.5231,-0.5108,-0.5108,-0.5114,-0.514,-0.514,-0.5288,-0.5536,-0.5536,-0.5687,-0.5942,-0.5992,-0.6139,-0.6337,-0.6592,-0.6679,-0.6692,-0.7134,-0.7253,-0.7257,-0.7502,-0.7881,-0.8182,-0.8094,-0.8046,-0.806,-0.8063,-0.8124,-0.8228,-0.8477,-0.8653,-0.8819,-0.913,-0.9388,-0.9646,-0.9994,-1.012,-1.0207,-1.0424,-1.0554,-1.0582,-1.0537,-1.0469,-1.0339,-1.0233,-1.0244,-1.0247,-1.0144,-1.0371,-1.0619,-1.0893,-1.1149,-1.1484,-1.1855,-1.1966,-1.212,-1.2452,-1.2562,-1.2753,-1.3119,-1.3346,-1.3446,-1.3472,-1.3623,-1.3763,-1.3825,-1.3939,-1.432,-1.495,-1.5026,-1.5393,0.0522,0.0601,0.0594,0.0607,0.06,0.0384,-0.0448,0.0,0.0,-0.2073,-0.2524,-0.2866,-0.3292,-0.3729,-0.3969,0.0,0.0,0.0,0.0,0.0,0.0,0.0,0.0,0.0,0.0,0.0,0.0,0.0,0.0,0.0,-0.3587,-0.3587,-0.3587,-0.3587,-0.3643,-0.3757,-0.3982,-0.4036,-0.4372,-0.4873,-0.4931,-0.5009,-0.5108,-0.5108,-0.5008,-0.4834,-0.4834,0.0,0.0,-0.524,-0.5388,-0.5636,-0.5889,-0.5992,-0.6092,-0.6337,-0.6584,-0.6778,-0.6825,-0.7015,-0.7251,-0.7505,-0.7769,-0.7944,-0.8126,-0.8204,-0.8294,-0.8467,-0.8346,-0.8166,-0.8373,-0.835,-0.8376,-0.8823,-0.913,-0.9349,-0.9393,-0.9515,-0.9689,-0.9689,-1.0033,-1.0273,-1.004,-1.0366,-1.0512,-1.0009,-1.03,-1.0423,-0.998,-1.0323,-1.0517,-1.0315,-1.0775,-1.1223,-1.1446,-1.1781,-1.2003,-1.204,-1.2415,-1.2709,-1.2936,-1.3119,-1.3266,-1.3304,-1.3464,-1.3565,-1.3618,-1.4122,-1.448,-1.4727,-1.5041,-1.5321,0.1188,0.1317,0.131,0.1323,0.1072,0.0698,0.0134,0.0,0.0,-0.1522,-0.1994,-0.2388,-0.2758,-0.3383,-0.3898,-0.4027,0.0,0.0,0.0,0.0,0.0,0.0,0.0,0.0,0.0,0.0,0.0,0.0,0.0,0.0,-0.3587,-0.3587,-0.3587,-0.3587,-0.3587,-0.3643,-0.3757,-0.3924,-0.4204,-0.4648,-0.4817,-0.4953,-0.5108,-0.5108,-0.5008,-0.4784,-0.4784,0.0,0.0,-0.4937,-0.5138,-0.5388,-0.5491,-0.5691,-0.5992,-0.6139,-0.6339,-0.6589,-0.6742,-0.6892,-0.6992,-0.7291,-0.7415,-0.7576,-0.7933,-0.8105,-0.8146,-0.8311,-0.819,-0.7994,-0.8174,-0.8199,-0.8288,-0.864,-0.8907,-0.9087,-0.9262,-0.9345,-0.9432,-0.9432,-0.9689,-0.9836,-0.9756,-1.0024,-1.0196,-0.994,-1.0048,-1.016,-1.0129,-1.0166,-1.0239,-1.0418,-1.0723,-1.0999,-1.1186,-1.1484,-1.1744,-1.1966,-1.215,-1.2378,-1.2709,-1.2718,-1.2763,-1.2826,-1.2796,-1.2897,-1.312,-1.3327,-1.3812,-1.4512,-1.4457,-1.4642,0.1384,0.1639,0.1762,0.1762,0.1396,0.0955,0.0,0.0,-0.0578,-0.1127,-0.1541,-0.1981,-0.2479,-0.3172,-0.3835,-0.4211,0.0,-0.4341,0.0,0.0,0.0,0.0,0.0,0.0,0.0,0.0,0.0,0.0,0.0,0.0,-0.3418,-0.3531,-0.3587,-0.3587,-0.3587,-0.3587,-0.3587,-0.3813,-0.4036,-0.4369,-0.4538,-0.4733,-0.5,-0.5,-0.4904,-0.4784,-0.4784,-0.4784,0.0,-0.4784,-0.4937,-0.509,-0.519,-0.5441,-0.5792,-0.5942,-0.6139,-0.6339,-0.6592,-0.6692,-0.6742,-0.6989,-0.7089,-0.7188,-0.764,-0.7839,-0.7918,-0.8017,-0.7986,-0.793,-0.796,-0.8065,-0.8157,-0.8332,-0.8552,-0.8732,-0.8951,-0.9082,-0.9174,-0.9174,-0.9345,-0.9519,-0.9519,-0.9733,-0.9856,-0.98,-0.9946,-1.008,-1.0156,-1.014,-1.019,-1.0377,-1.0588,-1.0825,-1.1005,-1.126,-1.1521,-1.1781,-1.1929,-1.215,-1.2489,-1.2466,-1.2494,-1.257,-1.2505,-1.2563,-1.2658,-1.2798,-1.3236,-1.3908,-1.3806,-1.4012,0.08,0.1287,0.1715,0.1715,0.143,0.1106,0.0,0.0,-0.022,-0.0947,-0.1256,-0.1677,-0.2548,-0.3259,-0.3808,-0.4146,-0.4709,0.0,0.0,0.0,0.0,0.0,0.0,0.0,0.0,0.0,0.0,0.0,0.0,0.0,-0.3081,-0.3418,-0.3587,-0.3587,-0.3587,-0.3587,-0.3587,-0.3587,-0.3757,-0.3982,-0.3982,-0.4239,-0.468,-0.468,-0.4746,-0.4784,0.0,0.0,0.0,-0.4784,-0.4784,-0.4834,-0.509,-0.519,-0.529,-0.5792,-0.5992,-0.6042,-0.6287,-0.6387,-0.6437,-0.6692,-0.6795,-0.6845,-0.7138,-0.7391,-0.7596,-0.7596,-0.7727,-0.7883,-0.7724,-0.7792,-0.79,-0.79,-0.8072,-0.8201,-0.8201,-0.8556,-0.8911,-0.8911,-0.913,-0.9305,-0.9305,-0.9476,-0.9602,-0.9602,-0.999,-1.0216,-0.9916,-1.0307,-1.0424,-0.9961,-1.0316,-1.065,-1.0798,-1.1186,-1.1409,-1.1409,-1.1781,-1.2077,-1.2298,-1.2489,-1.2637,-1.2685,-1.2889,-1.279,-1.2303,-1.2838,-1.2997,-1.2842,-1.3226,-1.3583,0.0975,0.1299,0.1409,0.1106,0.0755,0.0411,0.006,-0.036,-0.0773,-0.1054,-0.1486,-0.1975,-0.2479,-0.3414,-0.4228,-0.4567,-0.4797,0.0,0.0,0.0,0.0,0.0,0.0,0.0,0.0,0.0,0.0,0.0,0.0,0.0,-0.3081,-0.3194,-0.3362,-0.3587,-0.3587,-0.3587,-0.3587,-0.3587,-0.3757,-0.3982,-0.3982,-0.4131,-0.4418,-0.4418,-0.4438,0.0,0.0,-0.4636,-0.4784,-0.4784,-0.4784,-0.4784,-0.4885,-0.5037,-0.524,-0.5391,-0.5589,-0.5789,-0.6039,-0.6139,-0.6189,-0.6439,-0.6539,-0.6539,-0.6637,-0.6989,-0.7322,-0.7426,-0.7455,-0.7416,-0.7499,-0.7576,-0.7639,-0.7639,-0.7812,-0.7984,-0.7984,-0.8204,-0.842,-0.842,-0.8732,-0.9043,-0.9043,-0.9213,-0.9432,-0.9559,-0.9733,-0.9923,-1.0158,-1.0149,-1.0173,-1.0362,-1.0495,-1.0594,-1.059,-1.085,-1.1111,-1.1372,-1.1632,-1.1892,-1.2077,-1.2213,-1.2315,-1.2473,-1.2471,-1.2611,-1.2983,-1.3156,-1.3207,-1.3137,-1.3053,-1.3059,0.0,0.1152,0.1204,0.0918,0.0495,0.0,0.0,-0.0398,-0.0798,-0.0863,-0.1289,-0.1872,-0.2537,-0.3453,-0.4257,-0.4684,-0.4923,0.0,0.0,0.0,0.0,0.0,0.0,0.0,0.0,0.0,0.0,0.0,0.0,0.0,-0.2746,-0.2969,-0.3194,-0.3418,-0.3531,-0.3587,-0.3587,-0.3587,-0.3699,-0.3868,-0.3868,-0.3966,-0.41,-0.41,-0.4177,0.0,0.0,-0.4386,0.0,-0.4636,-0.4686,-0.4784,-0.4784,-0.4887,-0.5037,-0.514,-0.5288,-0.5486,-0.5739,-0.5839,-0.5889,-0.6037,-0.6187,-0.6239,-0.6239,-0.6639,-0.7074,-0.7285,-0.7174,-0.7054,-0.7154,-0.7215,-0.7238,-0.7238,-0.7503,-0.7768,-0.7768,-0.794,-0.8072,-0.8072,-0.8336,-0.856,-0.8644,-0.8863,-0.9122,-0.9301,-0.9471,-0.9689,-0.9994,-1.0048,-1.0149,-1.0448,-1.0564,-1.0606,-1.0645,-1.0833,-1.1,-1.1155,-1.1446,-1.1669,-1.1892,-1.2015,-1.2204,-1.2462,-1.2452,-1.2676,-1.3079,-1.31,-1.3108,-1.3099,-1.2885,-1.2806,0.0,0.0874,0.0,0.0,0.0,0.0,0.0,-0.0053,0.0,-0.055,-0.0896,-0.1559,-0.2739,-0.3456,-0.4066,-0.4679,0.0,0.0,0.0,0.0,0.0,0.0,0.0,0.0,0.0,0.0,0.0,0.0,0.0,0.0,-0.2188,-0.2746,-0.3081,-0.3081,-0.3418,-0.3587,-0.3587,-0.3587,-0.3587,-0.3587,-0.3587,-0.3635,-0.3779,-0.3779,-0.3863,0.0,-0.3984,-0.4135,-0.4388,-0.4388,-0.4537,-0.4784,-0.4784,-0.4784,-0.4834,-0.509,-0.519,-0.519,-0.5486,-0.5586,-0.5586,-0.5584,-0.5789,-0.5992,-0.5992,-0.6342,-0.6842,-0.7089,-0.6997,-0.6794,-0.6794,-0.678,-0.6792,-0.6792,-0.7105,-0.7462,-0.7462,-0.768,-0.7856,-0.7856,-0.79,-0.794,-0.8157,-0.8416,-0.864,-0.8867,-0.9257,-0.9559,-0.9602,-0.999,-1.0264,-1.0316,-1.0459,-1.0658,-1.0878,-1.1061,-1.1074,-1.0859,-1.1161,-1.1484,-1.1669,-1.1892,-1.2187,-1.2562,-1.279,-1.2832,-1.2713,-1.2785,-1.28,-1.2826,-1.2795,-1.2787,0.1045,0.0,0.0386,-0.0386,-0.056,-0.0499,0.0,-0.085,-0.1163,-0.113,0.0,0.0,-0.3236,-0.4056,0.0,0.0,0.0,0.0,0.0,0.0,0.0,0.0,0.0,0.0,0.0,0.0,0.0,0.0,0.0,-0.1964,-0.2188,-0.2356,-0.2635,-0.3081,-0.3194,-0.3362,-0.3587,-0.3587,-0.3587,-0.3587,-0.3587,-0.358,-0.3518,-0.3518,-0.3555,-0.3685,-0.3685,-0.3835,-0.4085,-0.4085,-0.4236,-0.4487,-0.4487,-0.4638,-0.4784,-0.4885,-0.4885,-0.4937,-0.5188,-0.529,-0.5338,-0.5536,-0.5636,-0.5687,-0.5687,-0.6087,-0.6539,-0.6842,-0.6706,-0.6552,-0.6747,-0.6639,-0.6476,-0.6476,-0.6748,-0.6972,-0.6972,-0.7282,-0.7595,-0.7595,-0.7768,-0.7896,-0.794,-0.8157,-0.8372,-0.864,-0.8907,-0.9213,-0.9559,-0.9689,-0.9889,-1.0269,-1.0522,-1.0687,-1.0668,-1.0725,-1.0845,-1.1091,-1.1157,-1.126,-1.1446,-1.1818,-1.2114,-1.2378,-1.2709,-1.2865,-1.286,-1.2763,-1.2787,-1.2954,-1.2704,-1.2658,0.1208,0.0707,0.0261,-0.0583,-0.0783,-0.0726,-0.0498,0.0,0.0,0.0,0.0,0.0,0.0,0.0,0.0,0.0,0.0,0.0,0.0,0.0,0.0,0.0,0.0,0.0,0.0,0.0,0.0,0.0,0.0,-0.1851,-0.202,-0.2132,-0.2355,-0.2691,-0.297,-0.325,-0.3587,-0.3587,-0.3587,-0.3587,-0.3587,-0.3526,-0.3413,-0.3413,-0.3398,-0.3433,-0.3433,-0.3583,-0.3835,-0.3835,-0.3986,-0.4236,-0.4236,-0.4286,-0.4435,-0.4585,-0.4638,-0.4636,-0.4937,-0.5037,-0.5037,-0.5186,-0.5336,-0.5438,-0.5438,-0.5687,-0.6087,-0.6189,-0.6171,-0.6131,-0.6275,-0.6273,-0.6257,-0.6257,-0.6435,-0.6612,-0.6612,-0.6833,-0.7013,-0.7149,-0.7282,-0.7459,-0.768,-0.7896,-0.8157,-0.8376,-0.8688,-0.8999,-0.9257,-0.9476,-0.9733,-1.0125,-1.0381,-1.0595,-1.0783,-1.0656,-1.0763,-1.1208,-1.1186,-1.1266,-1.157,-1.1776,-1.204,-1.2415,-1.2636,-1.2826,-1.29,-1.2771,-1.2755,-1.2846,-1.2543,-1.2497,0.1319,0.087,0.05,-0.0209,-0.0612,-0.0664,-0.0102,0.0,0.0,0.0,0.0,0.0,0.0,0.0,0.0,0.0,0.0,0.0,0.0,0.0,0.0,0.0,0.0,0.0,0.0,0.0,0.0,0.0,0.0,-0.179,-0.1795,-0.202,-0.2132,-0.2188,-0.269,-0.3138,-0.3477,-0.3531,-0.3587,-0.3587,-0.3587,-0.3526,-0.3413,-0.3413,-0.3346,-0.318,0.0,0.0,-0.3534,-0.3534,-0.3684,-0.3934,-0.3934,-0.3984,-0.4033,-0.4236,-0.4338,-0.4386,-0.4583,-0.4684,-0.4684,-0.4684,-0.4836,-0.5092,-0.5092,-0.5288,-0.5486,-0.5486,-0.555,-0.5688,-0.5621,-0.5785,-0.5972,-0.6,-0.6166,-0.6299,-0.6343,-0.6387,-0.6476,-0.6704,-0.6792,-0.6928,-0.733,-0.7635,-0.7896,-0.8113,-0.8512,-0.8823,-0.8911,-0.9257,-0.9602,-0.9907,-1.0125,-1.0429,-1.0873,-1.0735,-1.083,-1.1281,-1.1243,-1.1382,-1.1766,-1.1715,-1.1892,-1.2452,-1.2489,-1.2599,-1.2746,-1.2706,-1.2664,-1.2635,-1.242,-1.238,0.1552,0.1338,0.1135,-0.01,-0.0426,-0.0356,0.0077,0.0,0.0,0.0,0.0,0.0,0.0,0.0,0.0,0.0,0.0,0.0,0.0,0.0,0.0,0.0,0.0,0.0,0.0,0.0,0.0,0.0,0.0,-0.1823,-0.1793,-0.1851,-0.1964,-0.2188,-0.23,-0.2524,-0.2862,-0.3365,-0.3587,-0.3587,-0.3587,-0.3526,-0.3413,-0.3413,-0.3346,-0.318,0.0,-0.323,-0.3281,-0.3281,-0.3432,-0.3685,-0.3685,-0.3784,-0.3982,-0.4033,-0.4083,-0.4083,-0.4133,-0.4133,-0.4133,-0.4133,-0.4286,-0.4539,-0.4539,-0.4688,-0.4935,-0.4935,-0.5208,-0.5492,-0.5401,-0.5332,-0.5304,-0.5484,-0.5677,-0.5852,-0.608,-0.6299,-0.6428,-0.6432,-0.6656,-0.684,-0.6884,-0.7282,-0.7635,-0.7896,-0.816,-0.8464,-0.8867,-0.8955,-0.917,-0.9602,-0.9907,-1.0125,-1.0386,-1.075,-1.1059,-1.1267,-1.1273,-1.1447,-1.1772,-1.1564,-1.1558,-1.1818,-1.2003,-1.2114,-1.215,-1.2441,-1.2545,-1.2459,-1.245,-1.2432,0.162,0.1319,0.1228,0.0748,0.0645,0.079,0.1246,0.0783,0.0,0.0,0.0,0.0,0.0,0.0,0.0,0.0,0.0,0.0,0.0,0.0,0.0,0.0,0.0,0.0,0.0,0.0,0.0,0.0,0.0,0.0,-0.1745,-0.1746,-0.1801,-0.191,-0.2128,-0.2248,-0.2435,-0.2821,-0.3168,-0.3306,-0.3306,-0.3375,-0.3456,-0.3427,-0.3364,-0.3227,0.0,-0.318,-0.318,-0.318,-0.3281,-0.3383,-0.3383,-0.3482,-0.3581,-0.3734,-0.3883,-0.3982,-0.3982,-0.3982,-0.3982,-0.3982,-0.4085,-0.4185,-0.4185,-0.4284,-0.4383,-0.4383,-0.4821,-0.5266,-0.5115,-0.5106,-0.5096,-0.5171,-0.5233,-0.5411,-0.568,-0.5813,-0.5947,-0.6169,-0.6346,-0.6482,-0.6751,-0.7058,-0.7367,-0.7635,-0.7984,-0.8288,-0.8512,-0.8732,-0.8999,-0.9213,-0.9563,-0.9864,-1.0125,-1.0429,-1.0811,-1.1276,-1.1396,-1.1528,-1.1617,-1.1489,-1.1484,-1.1706,-1.1781,-1.1892,-1.2003,-1.2108,-1.217,-1.2247,-1.2322,-1.2371,0.1848,0.1419,0.1322,0.1506,0.1401,0.1458,0.2209,0.1836,0.0,0.0,0.0,0.0,0.0,0.0,0.0,0.0,0.0,0.0,0.0,0.0,0.0,0.0,0.0,0.0,0.0,0.0,0.0,0.0,0.0,0.0,-0.1704,-0.1704,-0.1704,-0.1704,-0.1971,-0.2091,-0.2065,-0.2283,-0.2581,-0.3026,-0.3026,-0.3111,-0.3278,-0.3237,-0.3181,-0.311,-0.3067,-0.304,-0.3027,-0.3027,-0.3027,-0.3027,-0.3079,-0.313,-0.323,-0.3433,-0.3633,-0.3831,-0.3831,-0.3831,-0.3831,-0.3831,-0.3833,-0.3883,-0.3883,-0.3932,-0.3982,-0.3982,-0.439,-0.4812,-0.4764,-0.4861,-0.4995,-0.4939,-0.494,-0.5013,-0.5235,-0.5371,-0.5505,-0.5861,-0.6038,-0.6216,-0.6615,-0.6877,-0.7146,-0.7459,-0.7808,-0.8069,-0.8197,-0.8512,-0.878,-0.8867,-0.9213,-0.9607,-0.9951,-1.0164,-1.057,-1.1206,-1.1424,-1.1496,-1.148,-1.1397,-1.1403,-1.1484,-1.1595,-1.1706,-1.1855,-1.1854,-1.1924,-1.2035,-1.2117,-1.2278,0.2508,0.2034,0.1736,0.1695,0.098,0.0729,0.2313,0.1725,0.0,0.176,0.0,0.0,0.0,0.0,0.0,0.0,0.0,0.0,0.0,0.0,0.0,0.0,0.0,0.0,0.0,0.0,0.0,0.0,0.0,0.0,-0.1703,-0.1704,-0.1704,-0.1704,-0.1704,-0.1759,-0.1761,-0.1761,-0.2062,-0.275,-0.275,-0.2726,-0.268,-0.2676,-0.2626,-0.2542,-0.2538,-0.2512,-0.2472,-0.2472,-0.2472,-0.2472,-0.2725,-0.2977,-0.318,-0.323,-0.323,-0.3281,-0.3281,-0.3281,-0.3281,-0.3281,-0.3432,-0.3635,-0.3635,-0.3784,-0.3982,-0.3982,-0.4029,-0.4107,-0.4277,-0.4484,-0.4682,-0.4774,-0.4772,-0.4792,-0.4966,-0.5235,-0.5416,-0.546,-0.5816,-0.6171,-0.6387,-0.6656,-0.6972,-0.7418,-0.7551,-0.7724,-0.8157,-0.8245,-0.842,-0.8867,-0.8911,-0.9213,-0.9951,-1.0164,-1.0511,-1.0982,-1.1217,-1.1307,-1.1307,-1.1251,-1.1109,-1.0856,-1.1223,-1.1446,-1.1446,-1.1798,-1.1942,-1.1822,-1.2014,-1.2137,0.2615,0.2203,0.1953,0.1854,0.1513,0.0,0.0,0.3212,0.2935,0.2512,0.2309,0.0,0.0,0.0,0.0,0.0,0.0,0.0,0.0,0.0,0.0,0.0,0.0,0.0,0.0,0.0,0.0,0.0,0.0,0.0,-0.1134,-0.1134,-0.1237,-0.1392,-0.1392,-0.1504,-0.1678,-0.1678,-0.1805,-0.2065,-0.2282,-0.2437,-0.2582,-0.2553,-0.2522,-0.2488,-0.2459,-0.2437,-0.2422,-0.2422,-0.2422,-0.2422,-0.2522,-0.2623,-0.2724,-0.2724,-0.2724,-0.2724,-0.2724,-0.2724,-0.2725,-0.2876,-0.3027,-0.313,-0.3281,-0.3432,-0.3481,-0.3481,-0.3633,-0.3819,-0.399,-0.4094,-0.4183,-0.4283,-0.427,-0.4367,-0.4714,-0.4882,-0.506,-0.5327,-0.5549,-0.5772,-0.6169,-0.639,-0.6656,-0.7017,-0.733,-0.7547,-0.7724,-0.8025,-0.8288,-0.8464,-0.8732,-0.913,-0.9689,-0.9994,-1.0255,-1.0564,-1.0858,-1.1147,-1.1307,-1.1124,-1.0983,-1.0841,-1.0976,-1.1074,-1.1223,-1.1484,-1.1723,-1.1913,-1.2131,-1.2294,0.3271,0.2659,0.2236,0.2234,0.0,0.0,0.3741,0.3992,0.3882,0.3539,0.3183,0.0,0.0,0.0,0.0,0.0,0.0,0.0,0.0,0.0,0.0,0.0,0.0,0.0,0.0,0.0,0.0,0.0,0.0,0.0,0.0,-0.0808,-0.0909,-0.1061,-0.1061,-0.1169,-0.139,-0.139,-0.1399,-0.1414,-0.1729,-0.2056,-0.2289,-0.2262,-0.2243,-0.223,-0.2202,-0.2182,-0.217,-0.217,-0.2221,-0.2271,-0.2271,-0.2321,-0.2422,-0.2422,-0.2422,-0.2422,-0.2422,-0.2422,-0.2422,-0.2623,-0.2674,-0.2724,-0.2876,-0.2927,-0.2927,-0.2927,-0.3079,-0.3271,-0.3474,-0.3741,-0.3888,-0.395,-0.399,-0.4087,-0.4367,-0.4572,-0.4795,-0.5104,-0.5282,-0.5505,-0.5902,-0.6169,-0.6435,-0.6748,-0.7061,-0.7326,-0.7462,-0.7764,-0.8025,-0.8197,-0.8552,-0.8951,-0.9345,-0.9689,-0.9951,-1.0207,-1.0542,-1.08,-1.1066,-1.096,-1.0875,-1.0801,-1.0812,-1.0901,-1.0999,-1.1223,-1.1484,-1.1818,-1.2077,-1.2305,0.4665,0.3575,0.258,0.0,0.0,0.0,0.43,0.3793,0.3482,0.4824,0.0,0.0,0.0,0.0,0.0,0.0,0.0,0.0,0.0,0.0,0.0,0.0,0.0,0.0,0.0,0.0,0.0,0.0,0.0,0.0,0.0,-0.0808,-0.0808,-0.0808,-0.0808,-0.0808,-0.0808,-0.0808,-0.0808,-0.0808,-0.1061,-0.139,-0.1703,-0.1703,-0.1688,-0.1714,-0.1714,-0.1645,-0.1617,-0.1617,-0.1768,-0.1971,-0.1971,-0.2171,-0.2371,-0.2371,-0.2371,-0.2371,-0.2371,-0.2371,-0.2371,-0.2371,-0.2422,-0.2422,-0.2422,-0.2422,-0.2422,-0.2422,-0.2422,-0.2472,-0.2725,-0.3332,-0.3855,-0.3832,-0.3896,-0.3998,-0.392,-0.4304,-0.4705,-0.4705,-0.5062,-0.546,-0.5675,-0.5902,-0.626,-0.6707,-0.6795,-0.6972,-0.7418,-0.7507,-0.768,-0.8157,-0.8416,-0.8684,-0.8867,-0.9345,-0.9689,-0.9994,-1.0164,-1.0368,-1.0574,-1.0768,-1.0803,-1.0584,-1.0796,-1.0858,-1.0781,-1.0999,-1.1186,-1.1409,-1.1818,-1.2114,0.4347,0.3942,0.0,0.0,0.0,0.0,0.0,0.4597,0.0,0.0,0.0,0.0,0.0,0.0,0.0,0.0,0.0,0.0,0.0,0.0,0.0,0.0,0.0,0.0,0.0,0.0,0.0,0.0,0.0,0.0,0.0,-0.0253,-0.0303,-0.0505,-0.0505,-0.0606,-0.0808,-0.0808,-0.0808,-0.0808,-0.0859,-0.1067,-0.1334,-0.154,-0.1638,-0.163,-0.163,-0.1625,-0.1617,-0.1617,-0.1667,-0.1718,-0.1718,-0.1768,-0.1818,-0.1818,-0.1818,-0.1818,-0.1818,-0.1818,-0.1869,-0.207,-0.2122,-0.2171,-0.2321,-0.2422,-0.2422,-0.2422,-0.2422,-0.2422,-0.2522,-0.2813,-0.3187,-0.352,-0.3594,-0.3662,-0.391,-0.4076,-0.4259,-0.4616,-0.4926,-0.5188,-0.5458,-0.5816,-0.6127,-0.6305,-0.6435,-0.67,-0.7143,-0.737,-0.7639,-0.794,-0.8072,-0.8245,-0.864,-0.8811,-0.9074,-0.9476,-0.9563,-0.9923,-1.0631,-1.0562,-1.046,-1.0372,-1.0415,-1.0406,-1.0368,-1.0718,-1.0999,-1.1186,-1.1446,-1.1744,0.4686,0.0,0.0,0.0,0.0,0.0,0.0,0.0,0.0,0.0,0.0,0.0,0.0,0.0,0.0,0.0,0.0,0.0,0.0,0.0,0.0,0.0,0.0,0.0,0.0,0.0,0.0,0.0,0.0,0.0,0.0,0.0202,0.0101,-0.0101,-0.0202,-0.0303,-0.0505,-0.0505,-0.0505,-0.0505,-0.0606,-0.0707,-0.0909,-0.1162,-0.1263,-0.1263,-0.1263,-0.1263,-0.1263,-0.1263,-0.1263,-0.1263,-0.1263,-0.1263,-0.1263,-0.1263,-0.1263,-0.1263,-0.1263,-0.1263,-0.1314,-0.1617,-0.1667,-0.1718,-0.2019,-0.207,-0.207,-0.207,-0.207,-0.212,-0.2221,-0.2423,-0.2711,-0.3105,-0.3307,-0.3493,-0.3673,-0.3844,-0.4038,-0.44,-0.4714,-0.4999,-0.5314,-0.565,-0.5936,-0.6161,-0.629,-0.652,-0.6786,-0.7058,-0.7326,-0.7544,-0.768,-0.79,-0.8288,-0.8504,-0.8723,-0.899,-0.9213,-0.9563,-1.0125,-1.0172,-1.0234,-1.0317,-1.0259,-1.0232,-1.021,-1.044,-1.0691,-1.0999,-1.1186,-1.1446,0.5378,0.0,0.0,0.0,0.0,0.0,0.0,0.0,0.0,0.0,0.0,0.0,0.0,0.0,0.0,0.0,0.0,0.0,0.0,0.0,0.0,0.0,0.0,0.0,0.0,0.0,0.0,0.0,0.0,0.0,0.0,0.0556,0.0455,0.0455,0.0202,0.0051,0.0051,0.0051,0.0,0.0,-0.0253,-0.0354,-0.0354,-0.0657,-0.0808,-0.0808,-0.0808,-0.0808,-0.0808,-0.0808,-0.0808,-0.0808,-0.0808,-0.0808,-0.0808,-0.0808,-0.0808,-0.0808,-0.0808,-0.0808,-0.0859,-0.1061,-0.1162,-0.1212,-0.1465,-0.1516,-0.1516,-0.1566,-0.1566,-0.1617,-0.187,-0.2171,-0.2411,-0.2617,-0.3094,-0.3451,-0.3328,-0.3666,-0.4029,-0.4075,-0.4493,-0.4893,-0.5216,-0.5391,-0.5644,-0.6141,-0.6298,-0.6387,-0.6387,-0.6612,-0.6836,-0.701,-0.7279,-0.7547,-0.7808,-0.8245,-0.8504,-0.8548,-0.8947,-0.917,-0.9213,-0.9694,-1.0034,-1.0221,-1.0243,-1.0203,-1.0155,-1.0192,-1.0401,-1.0735,-1.0974,-1.1186,0.0,0.4928,0.0,0.0,0.0,0.0,0.0,0.0,0.0,0.0,0.0,0.0,0.0,0.0,0.0,0.0,0.0,0.0,0.0,0.0,0.0,0.0,0.0,0.0,0.0,0.0,0.0,0.0,0.0,0.0,0.0808,0.0758,0.0707,0.0707,0.0657,0.0505,0.0303,0.0303,0.0202,0.0,-0.0051,-0.0101,-0.0101,-0.0606,-0.0808,-0.0808,-0.0808,-0.0808,-0.0808,-0.0808,-0.0808,-0.0808,-0.0808,-0.0808,-0.0808,-0.0808,-0.0808,-0.0808,-0.0808,-0.0808,-0.0808,-0.0859,-0.0909,-0.0909,-0.096,-0.096,-0.101,-0.1212,-0.1263,-0.1364,-0.1617,-0.1869,-0.217,-0.2409,-0.2827,-0.3231,-0.3399,-0.3639,-0.3929,-0.4114,-0.4538,-0.4922,-0.4989,-0.5166,-0.5408,-0.5647,-0.5938,-0.6171,-0.6171,-0.6346,-0.652,-0.6564,-0.6792,-0.7058,-0.7275,-0.7544,-0.7808,-0.8028,-0.816,-0.838,-0.8723,-0.9209,-0.9545,-0.9755,-0.9771,-0.9811,-0.9964,-1.0107,-1.0256,-1.0357,-1.0686,-1.0962,0.0,0.0,0.0,0.0,0.0,0.0,0.0,0.0,0.0,0.0,0.0,0.0,0.0,0.0,0.0,0.0,0.0,0.0,0.0,0.0,0.0,0.0,0.0,0.0,0.0,0.0,0.0,0.0,0.0,0.1331,0.1195,0.1055,0.101,0.101,0.0859,0.0758,0.0606,0.0606,0.0505,0.0404,0.0404,0.0404,0.0354,-0.0152,-0.0404,-0.0404,-0.0404,-0.0404,-0.0404,-0.0404,-0.0404,-0.0404,-0.0404,-0.0404,-0.0404,-0.0404,-0.0404,-0.0404,-0.0404,-0.0404,-0.0455,-0.0556,-0.0606,-0.0657,-0.0758,-0.0808,-0.0808,-0.096,-0.1111,-0.1212,-0.1364,-0.1718,-0.2021,-0.2171,-0.2605,-0.3026,-0.3245,-0.3505,-0.3721,-0.4007,-0.4342,-0.4693,-0.4981,-0.5243,-0.5418,-0.5403,-0.5522,-0.5676,-0.5814,-0.5939,-0.6121,-0.6257,-0.6479,-0.6656,-0.6741,-0.7098,-0.7367,-0.7496,-0.7764,-0.8028,-0.8245,-0.8512,-0.8907,-0.9432,-0.9463,-0.9572,-0.977,-0.9879,-1.0028,-1.0204,-1.0423,-1.0633,0.0,0.0,0.0,0.0,0.0,0.0,0.0,0.0,0.0,0.0,0.0,0.0,0.0,0.0,0.0,0.0,0.0,0.0,0.0,0.0,0.0,0.0,0.0,0.0,0.0,0.0,0.0,0.0,0.0,0.1704,0.1661,0.1443,0.1307,0.1257,0.1059,0.0909,0.0859,0.0862,0.0863,0.0812,0.0812,0.0811,0.0808,0.0354,0.0152,0.0152,0.0152,0.0153,0.0153,0.0152,0.0152,0.0152,0.0152,0.0152,0.0152,0.0152,0.0152,0.0152,0.0152,0.0152,0.0101,-0.0101,-0.0202,-0.0253,-0.0505,-0.0606,-0.0606,-0.0707,-0.0909,-0.1061,-0.1162,-0.1519,-0.1879,-0.198,-0.2339,-0.2737,-0.3035,-0.332,-0.3617,-0.3811,-0.4097,-0.4461,-0.4998,-0.5271,-0.5409,-0.5272,-0.5169,-0.5191,-0.5404,-0.5546,-0.5699,-0.5952,-0.6169,-0.6299,-0.6343,-0.6741,-0.6962,-0.6962,-0.7455,-0.772,-0.7764,-0.7812,-0.8204,-0.9043,-0.9126,-0.9308,-0.9531,-0.9578,-0.9759,-1.0089,-1.0206,-1.0329,0.0,0.0,0.0,0.0,0.0,0.0,0.0,0.0,0.0,0.0,0.0,0.0,0.0,0.0,0.0,0.0,0.0,0.0,0.0,0.0,0.0,0.0,0.0,0.0,0.0,0.0,0.0,0.0,0.2143,0.2022,0.1866,0.1805,0.1725,0.1528,0.1503,0.1364,0.1162,0.1181,0.1138,0.088,0.088,0.0872,0.0808,0.0707,0.0713,0.0776,0.0776,0.0783,0.0793,0.0781,0.0776,0.0775,0.0712,0.0707,0.0707,0.0707,0.0707,0.0707,0.0707,0.0707,0.0707,0.0657,0.0657,0.0606,0.0303,0.0253,0.0152,-0.0303,-0.0455,-0.0606,-0.1061,-0.1278,-0.1501,-0.1964,-0.2144,-0.2316,-0.2843,-0.3294,-0.3704,-0.3702,-0.4063,-0.4448,-0.4583,-0.4916,-0.5138,-0.5125,-0.5229,-0.5225,-0.5182,-0.5156,-0.5249,-0.5471,-0.568,-0.5899,-0.6127,-0.6346,-0.6476,-0.6476,-0.6789,-0.7013,-0.7187,-0.7415,-0.7724,-0.8072,-0.8464,-0.889,-0.9353,-0.952,-0.9615,-0.9684,-1.0274,-1.042,0.0,0.0,0.0,0.0,0.0,0.0,0.0,0.0,0.0,0.0,0.0,0.0,0.0,0.0,0.0,0.0,0.0,0.0,0.0,0.0,0.0,0.0,0.0,0.0,0.0,0.0,0.0,0.0,0.2254,0.2138,0.2063,0.2056,0.1981,0.1787,0.1754,0.1615,0.137,0.1381,0.1395,0.1309,0.1272,0.1273,0.1263,0.1263,0.1123,0.0883,0.0883,0.0887,0.0893,0.0886,0.0878,0.0817,0.0811,0.0808,0.0808,0.0808,0.0808,0.0808,0.0808,0.0808,0.0808,0.0808,0.0808,0.0758,0.0657,0.0505,0.0354,0.0101,-0.0153,-0.0462,-0.0667,-0.104,-0.1371,-0.1581,-0.1855,-0.2186,-0.2457,-0.2916,-0.342,-0.3683,-0.4026,-0.4262,-0.4254,-0.4398,-0.4535,-0.4487,-0.4653,-0.4777,-0.4877,-0.4964,-0.503,-0.5204,-0.5325,-0.539,-0.5463,-0.5808,-0.5985,-0.5985,-0.6343,-0.6612,-0.6697,-0.6833,-0.7054,-0.7452,-0.8065,-0.8548,-0.8903,-0.9126,-0.9334,-0.9602,-0.9883,-1.0136,0.0,0.0,0.0,0.0,0.0,0.0,0.0,0.0,0.0,0.0,0.0,0.0,0.0,0.0,0.0,0.0,0.0,0.0,0.0,0.0,0.0,0.0,0.0,0.0,0.0,0.0,0.0,0.0,0.2504,0.2348,0.2315,0.2302,0.2231,0.2003,0.2004,0.186,0.1622,0.1534,0.1549,0.1621,0.1602,0.1613,0.1706,0.1706,0.152,0.1289,0.1134,0.1088,0.1097,0.1087,0.1077,0.1017,0.1012,0.101,0.101,0.101,0.101,0.101,0.101,0.101,0.101,0.101,0.101,0.1009,0.0904,0.0752,0.0552,0.0454,0.0102,-0.0207,-0.0365,-0.0742,-0.1128,-0.1288,-0.1616,-0.1948,-0.2238,-0.2708,-0.3169,-0.3557,-0.3842,-0.406,-0.4024,-0.404,-0.4048,-0.3991,-0.4136,-0.4288,-0.4465,-0.4645,-0.4804,-0.4942,-0.5023,-0.5039,-0.5053,-0.538,-0.5542,-0.5542,-0.5961,-0.621,-0.621,-0.634,-0.6609,-0.701,-0.7625,-0.8109,-0.8504,-0.8732,-0.9009,-0.9426,-0.9596,-0.9863,0.0,0.0,0.0,0.0,0.0,0.0,0.0,0.0,0.0,0.0,0.0,0.0,0.0,0.0,0.0,0.0,0.0,0.0,0.0,0.0,0.0,0.0,0.0,0.0,0.0,0.0,0.0,0.0,0.2964,0.2767,0.2591,0.2596,0.2481,0.2289,0.2194,0.2099,0.1861,0.17,0.1619,0.1621,0.1602,0.1752,0.1968,0.1919,0.2036,0.2273,0.177,0.1599,0.1644,0.1591,0.1584,0.1657,0.1577,0.1566,0.1566,0.1566,0.1566,0.1566,0.1566,0.1566,0.1566,0.1566,0.1566,0.1511,0.1236,0.118,0.1037,0.0553,0.0404,0.0255,-0.0264,-0.0432,-0.0601,-0.1147,-0.1327,-0.156,-0.2415,-0.2842,-0.3129,-0.312,-0.3437,-0.3756,-0.3817,-0.3927,-0.3987,-0.3984,-0.4029,-0.4,-0.3929,-0.4163,-0.4372,-0.4526,-0.475,-0.5029,-0.5266,-0.5171,-0.5115,-0.5115,-0.5515,-0.5719,-0.5719,-0.6163,-0.652,-0.6792,-0.7054,-0.7492,-0.8241,-0.8504,-0.8723,-0.8942,-0.9632,-0.9866,0.0,0.0,0.0,0.0,0.0,0.0,0.0,0.0,0.0,0.0,0.0,0.0,0.0,0.0,0.0,0.0,0.0,0.0,0.0,0.0,0.0,0.0,0.0,0.0,0.0,0.0,0.0,0.0,0.0,0.3239,0.2991,0.2993,0.2839,0.2526,0.2449,0.2295,0.2111,0.2014,0.1987,0.1987,0.1979,0.2039,0.2122,0.2122,0.2177,0.2238,0.2067,0.2003,0.2071,0.212,0.2113,0.2104,0.2116,0.212,0.212,0.212,0.212,0.212,0.212,0.212,0.2116,0.204,0.2032,0.1976,0.1745,0.1508,0.1328,0.099,0.0815,0.063,0.0213,0.0,-0.0277,-0.0877,-0.1043,-0.1153,-0.1673,-0.2354,-0.2832,-0.2762,-0.2907,-0.303,-0.2999,-0.3191,-0.3318,-0.324,-0.3531,-0.3726,-0.3701,-0.3944,-0.4113,-0.4132,-0.4218,-0.434,-0.4573,-0.4682,-0.4801,-0.494,-0.5168,-0.5385,-0.5569,-0.5676,-0.5947,-0.6349,-0.6567,-0.7007,-0.7768,-0.8157,-0.846,-0.8727,-0.9126,-0.9479,0.0,0.0,0.0,0.0,0.0,0.0,0.0,0.0,0.0,0.0,0.0,0.0,0.0,0.0,0.0,0.0,0.0,0.0,0.0,0.0,0.0,0.0,0.0,0.0,0.0,0.0,0.0,0.0,0.0,0.0,0.3315,0.3227,0.3069,0.2703,0.2578,0.2424,0.2289,0.223,0.2207,0.2222,0.2206,0.2275,0.2384,0.2322,0.2362,0.2452,0.245,0.239,0.2284,0.2299,0.2297,0.2286,0.2316,0.2328,0.2328,0.2328,0.2328,0.2328,0.2328,0.2328,0.2323,0.2293,0.2283,0.2227,0.2042,0.1819,0.1607,0.1372,0.1166,0.0947,0.0642,0.0275,-0.0112,-0.0604,-0.082,-0.0925,-0.1123,-0.1791,-0.2364,-0.2446,-0.256,-0.2596,-0.2505,-0.2659,-0.2751,-0.2684,-0.3029,-0.3332,-0.3332,-0.3633,-0.3865,-0.3816,-0.3859,-0.3986,-0.413,-0.4246,-0.4422,-0.466,-0.478,-0.4986,-0.5267,-0.5343,-0.5594,-0.5947,-0.6169,-0.6567,-0.7146,-0.7676,-0.8113,-0.8376,-0.8688,-0.9209,0.0,0.0,0.0,0.0,0.0,0.0,0.0,0.0,0.0,0.0,0.0,0.0,0.0,0.0,0.0,0.0,0.0,0.0,0.0,0.0,0.0,0.0,0.0,0.0,0.0,0.0,0.0,0.0,0.3599,0.3502,0.3487,0.3315,0.3094,0.2918,0.265,0.2515,0.2513,0.2335,0.2224,0.2222,0.2223,0.2386,0.2712,0.2664,0.2778,0.3004,0.2947,0.2667,0.2237,0.2241,0.2201,0.224,0.2242,0.2242,0.2242,0.2242,0.2242,0.2242,0.2242,0.2242,0.2242,0.2241,0.224,0.2232,0.2234,0.2065,0.1867,0.161,0.1394,0.1177,0.0971,0.0498,-0.0056,-0.0275,-0.0602,-0.0871,-0.0856,-0.1279,-0.1757,-0.2076,-0.2312,-0.244,-0.249,-0.2402,-0.2374,-0.2373,-0.2624,-0.2775,-0.2775,-0.323,-0.3584,-0.3584,-0.3783,-0.3982,-0.3982,-0.3917,-0.4022,-0.4268,-0.435,-0.4533,-0.4765,-0.5165,-0.5458,-0.5675,-0.5947,-0.6169,-0.6384,-0.7146,-0.7635,-0.79,-0.8372,-0.9074,0.5108,0.0,0.0,0.0,0.0,0.0,0.0,0.0,0.0,0.0,0.0,0.0,0.0,0.0,0.0,0.0,0.0,0.0,0.0,0.0,0.0,0.0,0.0,0.0,0.0,0.0,0.0,0.0,0.3938,0.3784,0.3637,0.335,0.3183,0.3139,0.2957,0.2823,0.2785,0.2778,0.2759,0.2775,0.2817,0.2891,0.3,0.2985,0.3025,0.3068,0.3007,0.3,0.2984,0.2827,0.2783,0.2801,0.2843,0.286,0.286,0.286,0.2955,0.305,0.305,0.3195,0.333,0.3094,0.2985,0.2928,0.255,0.2412,0.2337,0.216,0.1989,0.1767,0.1299,0.0941,0.0614,0.0549,0.0274,0.0,-0.0211,-0.0528,-0.085,-0.1206,-0.1436,-0.1657,-0.1617,-0.1932,-0.2194,-0.2166,-0.2391,-0.2522,-0.2522,-0.2623,-0.2725,-0.2725,-0.2976,-0.3229,-0.338,-0.3566,-0.3804,-0.4052,-0.4198,-0.4344,-0.4581,-0.4795,-0.506,-0.5458,-0.5677,-0.5944,-0.6169,-0.6877,-0.7231,-0.7363,-0.8197,-0.8723,0.0,0.0,0.0,0.0,0.0,0.0,0.5454,0.5798,0.589,0.0,0.0,0.0,0.0,0.0,0.0,0.0,0.0,0.0,0.0,0.0,0.0,0.0,0.0,0.0,0.0,0.438,0.4237,0.4278,0.4172,0.3954,0.3695,0.353,0.333,0.3183,0.3089,0.3015,0.292,0.2976,0.3016,0.3043,0.308,0.3111,0.3086,0.3109,0.3097,0.3094,0.3058,0.3183,0.3371,0.3278,0.3245,0.3244,0.3284,0.33,0.33,0.33,0.3393,0.3486,0.3486,0.358,0.3666,0.3484,0.3333,0.3193,0.2912,0.2742,0.2576,0.2504,0.2413,0.216,0.1614,0.1377,0.1228,0.0933,0.0766,0.0543,0.0423,0.0159,-0.0212,-0.073,-0.1009,-0.1075,-0.1107,-0.1483,-0.1748,-0.1717,-0.2056,-0.229,-0.2223,-0.2321,-0.2422,-0.2422,-0.2522,-0.2725,-0.3027,-0.318,-0.3432,-0.3833,-0.3845,-0.4,-0.4379,-0.4489,-0.4703,-0.5104,-0.5413,-0.5769,-0.6083,-0.6564,-0.6918,-0.7095,-0.7804,-0.8288,0.0,0.0,0.0,0.0,0.0,0.0,0.5513,0.5629,0.5571,0.0,0.0,0.0,0.0,0.0,0.0,0.0,0.0,0.0,0.0,0.0,0.0,0.0,0.0,0.0,0.4534,0.4328,0.4261,0.4399,0.4271,0.4048,0.3722,0.3684,0.3511,0.3197,0.3157,0.306,0.2953,0.3011,0.3075,0.3192,0.3151,0.314,0.3149,0.3142,0.3117,0.3116,0.3158,0.3299,0.3537,0.3577,0.3588,0.3599,0.3599,0.3595,0.3587,0.3587,0.3631,0.3631,0.3631,0.3633,0.3676,0.3631,0.3452,0.3284,0.3308,0.3047,0.2679,0.2689,0.2661,0.2504,0.1971,0.1858,0.1732,0.1156,0.1041,0.0982,0.0966,0.0697,0.0267,-0.0472,-0.0688,-0.0749,-0.0749,-0.1016,-0.1224,-0.1152,-0.1613,-0.1959,-0.188,-0.2124,-0.227,-0.227,-0.2321,-0.2472,-0.2675,-0.2775,-0.2975,-0.3473,-0.3455,-0.3616,-0.408,-0.4207,-0.4391,-0.4661,-0.5149,-0.5594,-0.6038,-0.6254,-0.6609,-0.7051,-0.7323,-0.7808,0.0,0.0,0.0,0.0,0.0,0.0,0.4897,0.5193,0.5309,0.0,0.0,0.0,0.0,0.0,0.0,0.0,0.0,0.0,0.0,0.0,0.0,0.0,0.0,0.0,0.4667,0.4437,0.4335,0.4478,0.4244,0.4031,0.3881,0.3637,0.3551,0.3591,0.3381,0.329,0.3364,0.3392,0.3493,0.3672,0.3488,0.3451,0.3515,0.33,0.3195,0.3192,0.3341,0.3561,0.3845,0.3977,0.3899,0.3679,0.3679,0.3641,0.3587,0.3587,0.3723,0.3857,0.3857,0.3989,0.4121,0.3901,0.3812,0.3737,0.3633,0.3424,0.3168,0.2882,0.2842,0.2825,0.2504,0.2461,0.2411,0.2011,0.1786,0.1556,0.1256,0.099,0.0774,0.0597,0.0,-0.049,-0.049,-0.0762,-0.0978,-0.0975,-0.1004,-0.1037,-0.1034,-0.1274,-0.1414,-0.1414,-0.1818,-0.2122,-0.2172,-0.2575,-0.2808,-0.2864,-0.3186,-0.3407,-0.3489,-0.3816,-0.4125,-0.4389,-0.5057,-0.546,-0.5549,-0.5949,-0.6393,-0.6881,-0.7058,-0.7367,0.0,0.0,0.0,0.5014,0.0,0.0,0.0,0.5221,0.5266,0.4974,0.0,0.0,0.0,0.0,0.0,0.0,0.0,0.0,0.0,0.0,0.0,0.0,0.0,0.0,0.4585,0.4407,0.4306,0.4289,0.4216,0.4026,0.3761,0.3687,0.363,0.3591,0.3469,0.3381,0.3415,0.3448,0.3562,0.3759,0.3692,0.3684,0.3784,0.3533,0.3383,0.3381,0.3349,0.3581,0.3973,0.4083,0.4119,0.4184,0.4102,0.4042,0.4,0.3959,0.4034,0.4078,0.4078,0.4168,0.43,0.4123,0.4062,0.3975,0.3964,0.3738,0.3449,0.3264,0.3214,0.3145,0.2878,0.2843,0.2805,0.2524,0.2244,0.1958,0.1776,0.1394,0.1119,0.1109,0.0665,0.0222,0.0055,-0.0388,-0.0662,-0.0657,-0.0755,-0.085,-0.079,-0.094,-0.109,-0.1245,-0.1505,-0.1759,-0.205,-0.2285,-0.2453,-0.2553,-0.2818,-0.3039,-0.3145,-0.34,-0.3765,-0.43,-0.4792,-0.5149,-0.5416,-0.5638,-0.6038,-0.6612,-0.6836,-0.7146,0.0,0.0,0.0,0.0,0.0,0.5323,0.0,0.0,0.0,0.5116,0.0,0.0,0.0,0.0,0.0,0.0,0.0,0.0,0.0,0.0,0.0,0.0,0.0,0.0,0.4297,0.4237,0.4141,0.4037,0.4059,0.3942,0.3601,0.3687,0.369,0.3523,0.354,0.3507,0.3421,0.3484,0.3601,0.3816,0.3835,0.3904,0.4062,0.3765,0.3623,0.3586,0.3432,0.3581,0.3934,0.3984,0.4248,0.4618,0.4485,0.4461,0.4451,0.4359,0.4324,0.4326,0.4344,0.4328,0.4302,0.432,0.4249,0.4196,0.4235,0.3976,0.3739,0.365,0.3535,0.3414,0.3158,0.3123,0.3138,0.2861,0.258,0.2355,0.2244,0.1795,0.1458,0.1402,0.1177,0.0897,0.0561,0.0112,-0.0167,-0.0165,-0.0439,-0.0653,-0.0591,-0.0641,-0.0853,-0.1119,-0.1226,-0.1482,-0.187,-0.1997,-0.2109,-0.2296,-0.2465,-0.2644,-0.2897,-0.3076,-0.3539,-0.421,-0.448,-0.4837,-0.5327,-0.5371,-0.5725,-0.6343,-0.6615,-0.6969,0.0,0.0,0.0,0.0,0.5363,0.0,0.0,0.0,0.5129,0.4826,0.0,0.0,0.0,0.0,0.0,0.0,0.0,0.0,0.0,0.0,0.0,0.0,0.0,0.0,0.0,0.3749,0.3835,0.3758,0.3657,0.3544,0.3514,0.3595,0.3608,0.3581,0.3697,0.3782,0.3832,0.3842,0.3974,0.4224,0.4014,0.4007,0.4279,0.3983,0.3773,0.3636,0.3833,0.3833,0.3685,0.3883,0.418,0.4458,0.453,0.4557,0.4547,0.4453,0.4374,0.4384,0.4514,0.4434,0.4312,0.4348,0.4481,0.4526,0.4324,0.4316,0.4201,0.3806,0.3722,0.3686,0.3473,0.3482,0.3475,0.3138,0.3026,0.2858,0.23,0.2132,0.202,0.1795,0.1458,0.1177,0.0897,0.0785,0.0728,0.0727,0.0442,0.0274,0.0273,-0.0162,-0.048,-0.048,-0.0959,-0.1322,-0.13,-0.1761,-0.2074,-0.1969,-0.2192,-0.2387,-0.2572,-0.2963,-0.3452,-0.3946,-0.4212,-0.4567,-0.5055,-0.528,-0.5638,-0.6127,-0.6343,-0.6612,0.0,0.0,0.0,0.0,0.0,0.0,0.5376,0.0,0.5343,0.0,0.0,0.0,0.0,0.0,0.0,0.0,0.4051,0.0,0.0,0.0,0.0,0.0,0.0,0.0,0.3392,0.3675,0.3768,0.3546,0.3569,0.3544,0.3342,0.3475,0.3575,0.3586,0.3663,0.3728,0.3859,0.3859,0.393,0.4146,0.4071,0.416,0.4364,0.4026,0.3839,0.3773,0.3615,0.3583,0.3586,0.3736,0.3935,0.4175,0.421,0.4407,0.464,0.4549,0.4514,0.452,0.4559,0.4522,0.4473,0.4565,0.462,0.4667,0.4605,0.4508,0.4354,0.4281,0.4044,0.3795,0.3752,0.3653,0.3587,0.3418,0.325,0.3026,0.2802,0.258,0.2469,0.2356,0.2188,0.2076,0.1964,0.1346,0.0897,0.0897,0.0781,0.0666,0.0666,0.0331,0.0,-0.0162,-0.0541,-0.0857,-0.0989,-0.1234,-0.1409,-0.1507,-0.1805,-0.2082,-0.2336,-0.278,-0.3136,-0.3317,-0.381,-0.4257,-0.461,-0.4966,-0.5369,-0.5683,-0.6166,-0.6567,0.7156,0.0,0.0,0.0,0.0,0.0,0.0,0.0,0.0,0.0,0.0,0.0,0.0,0.0,0.0,0.0,0.0,0.3583,0.0,0.0,0.0,0.0,0.0,0.0,0.0,0.3441,0.3494,0.3257,0.338,0.339,0.3187,0.334,0.3465,0.3552,0.3564,0.3658,0.3726,0.3789,0.3842,0.3958,0.4091,0.4228,0.4356,0.4084,0.3917,0.3846,0.3476,0.3356,0.3459,0.3476,0.3633,0.3879,0.3924,0.4186,0.4602,0.4536,0.4498,0.4528,0.46,0.4594,0.4635,0.4679,0.4708,0.4724,0.476,0.4686,0.451,0.4516,0.4218,0.3907,0.3831,0.3721,0.3587,0.3587,0.3418,0.3194,0.3137,0.2971,0.2806,0.2693,0.2693,0.2693,0.2693,0.1907,0.1234,0.1234,0.1121,0.1009,0.1009,0.0729,0.0446,0.0165,-0.011,-0.0433,-0.0734,-0.0823,-0.0907,-0.1082,-0.1467,-0.1793,-0.1992,-0.2428,-0.2778,-0.2911,-0.3452,-0.39,-0.43,-0.4699,-0.5102,-0.5416,-0.6035,-0.6435,0.0,0.0,0.0,0.6839,0.0,0.0,0.0,0.0,0.6157,0.0,0.0,0.0,0.0,0.0,0.4883,0.4289,0.381,0.0,0.0,0.0,0.0,0.0,0.0,0.0,0.0,0.2828,0.2823,0.283,0.2881,0.297,0.3091,0.3183,0.3277,0.3404,0.3536,0.359,0.3592,0.372,0.3849,0.3906,0.3956,0.4089,0.4306,0.4169,0.3978,0.3774,0.3605,0.3339,0.3098,0.3206,0.3383,0.3635,0.388,0.4134,0.4313,0.4311,0.4259,0.4248,0.4576,0.4647,0.4635,0.4679,0.4708,0.4724,0.476,0.4784,0.4719,0.432,0.4206,0.4081,0.3719,0.3586,0.3587,0.3587,0.3587,0.3475,0.3194,0.3081,0.3026,0.275,0.2693,0.2693,0.2693,0.2413,0.2132,0.2132,0.1683,0.129,0.129,0.1065,0.0729,0.0448,0.0166,-0.0109,-0.0374,-0.0734,-0.0868,-0.0837,-0.1183,-0.1434,-0.1433,-0.1951,-0.2422,-0.2911,-0.3092,-0.3585,-0.43,-0.4569,-0.4926,-0.5416,-0.5905,-0.6213,0.0,0.0,0.7828,0.7441,0.0,0.0,0.0,0.0,0.0,0.0,0.0,0.0,0.0,0.0,0.5124,0.4774,0.4331,0.3872,0.0,0.3109,0.292,0.0,0.0,0.0,0.0,0.0,0.0,0.2871,0.2963,0.2993,0.2911,0.3056,0.3179,0.3271,0.3389,0.3507,0.3586,0.3656,0.3718,0.3849,0.3901,0.3924,0.3914,0.3968,0.3895,0.3743,0.3723,0.3684,0.3629,0.3652,0.374,0.3879,0.3929,0.3992,0.4072,0.4472,0.4551,0.4488,0.4629,0.4689,0.4677,0.4765,0.4742,0.4746,0.4776,0.4784,0.4823,0.4794,0.4682,0.4505,0.4498,0.4313,0.4201,0.4201,0.4201,0.4145,0.4032,0.3866,0.3645,0.3589,0.3421,0.3309,0.3309,0.3027,0.2635,0.2244,0.202,0.1851,0.1627,0.1346,0.1117,0.0994,0.0768,0.0543,0.0481,0.0,-0.036,-0.0501,-0.083,-0.1047,-0.1204,-0.1517,-0.1911,-0.2423,-0.2823,-0.327,-0.3855,-0.4255,-0.4656,-0.5144,-0.546,-0.5861,0.9079,0.8825,0.0,0.8056,0.7918,0.0,0.7459,0.0,0.0,0.0,0.0,0.0,0.0,0.0,0.5354,0.5106,0.4524,0.3923,0.0,0.3322,0.3222,0.0,0.0,0.0,0.0,0.0,0.2994,0.275,0.2872,0.291,0.0,0.2946,0.3085,0.3175,0.3333,0.347,0.3579,0.3574,0.3673,0.3804,0.3889,0.3896,0.3789,0.3871,0.3841,0.3756,0.3788,0.3799,0.3845,0.3898,0.3948,0.399,0.4069,0.3993,0.3974,0.4421,0.462,0.4628,0.4689,0.4708,0.4722,0.4758,0.4784,0.4784,0.4784,0.4784,0.4815,0.4862,0.4818,0.4712,0.4685,0.4573,0.448,0.448,0.448,0.448,0.448,0.4258,0.3982,0.3982,0.3757,0.3587,0.3587,0.3418,0.3082,0.2579,0.2355,0.2132,0.1964,0.1683,0.1452,0.1326,0.1152,0.0977,0.0908,0.0528,0.0261,0.0052,-0.0302,-0.0538,-0.0662,-0.1072,-0.1512,-0.1886,-0.2466,-0.2959,-0.3361,-0.39,-0.4344,-0.4743,-0.5015,-0.5416]}]]